[[{"header":{"parameterUnit":"m.s-1","parameterCategory":1,"la1":30.6,"la2":28.766,"lo1":-90.7593,"lo2":-88.6598,"dy":0.0162,"dx":0.0183,"nx":116,"ny":114,"refTime":"2023-07-10T00:00:00:Z","depth":0,"parameterNumber":2,"parameterNumberName":"U-component_of_WINDS"},"data":[0.0,0.0,0.0,0.0,0.0,0.0,0.0,0.0,0.0,0.0,0.0,0.0,0.0,0.0,0.0,0.0,0.0,0.0,0.0,0.0,0.0,0.0,0.0,0.0,0.0,0.0,0.0,0.0,0.0,0.0,0.0,0.0,0.0,0.0,0.0,0.0,0.0,0.0,0.0,0.0,0.0,0.0,0.0,0.0,0.0,0.0,0.0,0.0,0.0,0.0,0.0,0.0,0.0,0.0,0.0,0.0,0.0,0.0,0.0,0.0,0.0,0.0,0.0,0.0,0.0,0.0,0.0,0.0,0.0,0.0,0.0,0.0,0.0,0.0,0.0,0.0,0.0,0.0,0.0,0.0,0.0,0.0,0.0,0.0,0.0,0.0,0.0,0.0,0.0,0.0,0.0,0.0,0.0,0.0,0.0,0.0,0.0,0.0,0.0,0.0,0.0,0.0,0.0,0.0,0.0,0.0,0.0,0.0,0.0,0.0,0.0,0.0,0.0,0.0,0.0,0.0,0.0,0.0,0.0,0.0,0.0,0.0,0.0,0.0,0.0,0.0,0.0,0.0,0.0,0.0,0.0,0.0,0.0,0.0,0.0,0.0,0.0,0.0,0.0,0.0,0.0,0.0,0.0,0.0,0.0,0.0,0.0,0.0,0.0,0.0,0.0,0.0,0.0,0.0,0.0,0.0,0.0,0.0,0.0,0.0,0.0,0.0,0.0,0.0,0.0,0.0,0.0,0.0,0.0,0.0,0.0,0.0,0.0,0.0,0.0,0.0,0.0,0.0,0.0,0.0,0.0,0.0,0.0,0.0,0.0,0.0,0.0,0.0,0.0,0.0,0.0,0.0,0.0,0.0,0.0,0.0,0.0,0.0,0.0,0.0,0.0,0.0,0.0,0.0,0.0,0.0,0.0,0.0,0.0,0.0,0.0,0.0,0.0,0.0,0.0,0.0,0.0,0.0,0.0,0.0,0.0,0.0,0.0,0.0,0.0,0.0,0.0,0.0,0.0,0.0,0.0,0.0,0.0,0.0,0.0,0.0,0.0,0.0,0.0,0.0,0.0,0.0,0.0,0.0,0.0,0.0,0.0,0.0,0.0,0.0,0.0,0.0,0.0,0.0,0.0,0.0,0.0,0.0,0.0,0.0,0.0,0.0,0.0,0.0,0.0,0.0,0.0,0.0,0.0,0.0,0.0,0.0,0.0,0.0,0.0,0.0,0.0,0.0,0.0,0.0,0.0,0.0,0.0,0.0,0.0,0.0,0.0,0.0,0.0,0.0,0.0,0.0,0.0,0.0,0.0,0.0,0.0,0.0,0.0,0.0,0.0,0.0,0.0,0.0,0.0,0.0,0.0,0.0,0.0,0.0,0.0,0.0,0.0,0.0,0.0,0.0,0.0,0.0,0.0,0.0,0.0,0.0,0.0,0.0,0.0,0.0,0.0,0.0,0.0,0.0,0.0,0.0,0.0,0.0,0.0,0.0,0.0,0.0,0.0,0.0,0.0,0.0,0.0,0.0,0.0,0.0,0.0,0.0,0.0,0.0,0.0,0.0,0.0,0.0,0.0,0.0,0.0,0.0,0.0,0.0,0.0,0.0,0.0,0.0,0.0,0.0,0.0,0.0,0.0,0.0,0.0,0.0,0.0,0.0,0.0,0.0,0.0,0.0,0.0,0.0,0.0,0.0,0.0,0.0,0.0,0.0,0.0,0.0,0.0,0.0,0.0,0.0,0.0,0.0,0.0,0.0,0.0,0.0,0.0,0.0,0.0,0.0,0.0,0.0,0.0,0.0,0.0,0.0,0.0,0.0,0.0,0.0,0.0,0.0,0.0,0.0,0.0,0.0,0.0,0.0,0.0,0.0,0.0,0.0,0.0,0.0,0.0,0.0,0.0,0.0,0.0,0.0,0.0,0.0,0.0,0.0,0.0,0.0,0.0,0.0,0.0,0.0,0.0,0.0,0.0,0.0,0.0,0.0,0.0,0.0,0.0,0.0,0.0,0.0,0.0,0.0,0.0,0.0,0.0,0.0,0.0,0.0,0.0,0.0,0.0,0.0,0.0,0.0,0.0,0.0,0.0,0.0,0.0,0.0,0.0,0.0,0.0,0.0,0.0,0.0,0.0,0.0,0.0,0.0,0.0,0.0,0.0,0.0,0.0,0.0,0.0,0.0,0.0,0.0,0.0,0.0,0.0,0.0,0.0,0.0,0.0,0.0,0.0,0.0,0.0,0.0,0.0,0.0,0.0,0.0,0.0,0.0,0.0,0.0,0.0,0.0,0.0,0.0,0.0,0.0,0.0,0.0,0.0,0.0,0.0,0.0,0.0,0.0,0.0,0.0,0.0,0.0,0.0,0.0,0.0,0.0,0.0,0.0,0.0,0.0,0.0,0.0,0.0,0.0,0.0,0.0,0.0,0.0,0.0,0.0,0.0,0.0,0.0,0.0,0.0,0.0,0.0,0.0,0.0,0.0,0.0,0.0,0.0,0.0,0.0,0.0,0.0,0.0,0.0,0.0,0.0,0.0,0.0,0.0,0.0,0.0,0.0,0.0,0.0,0.0,0.0,0.0,0.0,0.0,0.0,0.0,0.0,0.0,0.0,0.0,0.0,0.0,0.0,0.0,0.0,0.0,0.0,0.0,0.0,0.0,0.0,0.0,0.0,0.0,0.0,0.0,0.0,0.0,0.0,0.0,0.0,0.0,0.0,0.0,0.0,0.0,0.0,0.0,0.0,0.0,0.0,0.0,0.0,0.0,0.0,0.0,0.0,0.0,0.0,0.0,0.0,0.0,0.0,0.0,0.0,0.0,0.0,0.0,0.0,0.0,0.0,0.0,0.0,0.0,0.0,0.0,0.0,0.0,0.0,0.0,0.0,0.0,0.0,0.0,0.0,0.0,0.0,0.0,0.0,0.0,0.0,0.0,0.0,0.0,0.0,0.0,0.0,0.0,0.0,0.0,0.0,0.0,0.0,0.0,0.0,0.0,0.0,0.0,0.0,0.0,0.0,0.0,0.0,0.0,0.0,0.0,0.0,0.0,0.0,0.0,0.0,0.0,0.0,0.0,0.0,0.0,0.0,0.0,0.0,0.0,0.0,0.0,0.0,0.0,0.0,0.0,0.0,0.0,0.0,0.0,0.0,0.0,0.0,0.0,0.0,0.0,0.0,0.0,0.0,0.0,0.0,0.0,0.0,0.0,0.0,0.0,0.0,0.0,0.0,0.0,0.0,0.0,0.0,0.0,0.0,0.0,0.0,0.0,0.0,0.0,0.0,0.0,0.0,0.0,0.0,0.0,0.0,0.0,0.0,0.0,0.0,0.0,0.0,0.0,0.0,0.0,0.0,0.0,0.0,0.0,0.0,0.0,0.0,0.0,0.0,0.0,0.0,0.0,0.0,0.0,0.0,0.0,0.0,0.0,0.0,0.0,0.0,0.0,0.0,0.0,0.0,0.0,0.0,0.0,0.0,0.0,0.0,0.0,0.0,0.0,0.0,0.0,0.0,0.0,0.0,0.0,0.0,0.0,0.0,0.0,0.0,0.0,0.0,0.0,0.0,0.0,0.0,0.0,0.0,0.0,0.0,0.0,0.0,0.0,0.0,0.0,0.0,0.0,0.0,0.0,0.0,0.0,0.0,0.0,0.0,0.0,0.0,0.0,0.0,0.0,0.0,0.0,0.0,0.0,0.0,0.0,0.0,0.0,0.0,0.0,0.0,0.0,0.0,0.0,0.0,0.0,0.0,0.0,0.0,0.0,0.0,0.0,0.0,0.0,0.0,0.0,0.0,0.0,0.0,0.0,0.0,0.0,0.0,0.0,0.0,0.0,0.0,0.0,0.0,0.0,0.0,0.0,0.0,0.0,0.0,0.0,0.0,0.0,0.0,0.0,0.0,0.0,0.0,0.0,0.0,0.0,0.0,0.0,0.0,0.0,0.0,0.0,0.0,0.0,0.0,0.0,0.0,0.0,0.0,0.0,0.0,0.0,0.0,0.0,0.0,0.0,0.0,0.0,0.0,0.0,0.0,0.0,0.0,0.0,0.0,0.0,0.0,0.0,0.0,0.0,0.0,0.0,0.0,0.0,0.0,0.0,0.0,0.0,0.0,0.0,0.0,0.0,0.0,0.0,0.0,0.0,0.0,0.0,0.0,0.0,0.0,0.0,0.0,0.0,0.0,0.0,0.0,0.0,0.0,0.0,0.0,0.0,0.0,0.0,0.0,0.0,0.0,0.0,0.0,0.0,0.0,0.0,0.0,0.0,0.0,0.0,0.0,0.0,0.0,0.0,0.0,0.0,0.0,0.0,0.0,0.0,0.0,0.0,0.0,0.0,0.0,0.0,0.0,0.0,0.0,0.0,0.0,0.0,0.0,0.0,0.0,0.0,0.0,0.0,0.0,0.0,0.0,0.0,0.0,0.0,0.0,0.0,0.0,0.0,0.0,0.0,0.0,0.0,0.0,0.0,0.0,0.0,0.0,0.0,0.0,0.0,0.0,0.0,0.0,0.0,0.0,0.0,0.0,0.0,0.0,0.0,0.0,0.0,0.0,0.0,0.0,0.0,0.0,0.0,0.0,0.0,0.0,0.0,0.0,0.0,0.0,0.0,0.0,0.0,0.0,0.0,0.0,0.0,0.0,0.0,0.0,0.0,0.0,0.0,0.0,0.0,0.0,0.0,0.0,0.0,0.0,0.0,0.0,0.0,0.0,0.0,0.0,0.0,0.0,0.0,0.0,0.0,0.0,0.0,0.0,0.0,0.0,0.0,0.0,0.0,0.0,0.0,0.0,0.0,0.0,0.0,0.0,0.0,0.0,0.0,0.0,0.0,0.0,0.0,0.0,0.0,0.0,0.0,0.0,0.0,0.0,0.0,0.0,0.0,0.0,0.0,0.0,0.0,0.0,0.0,0.0,0.0,0.0,0.0,0.0,0.0,0.0,0.0,0.0,0.0,0.0,0.0,0.0,0.0,0.0,0.0,0.0,0.0,0.0,0.0,0.0,0.0,0.0,0.0,0.0,0.0,0.0,0.0,0.0,0.0,0.0,0.0,0.0,0.0,0.0,0.0,0.0,0.0,0.0,0.0,0.0,0.0,0.0,0.0,0.0,0.0,0.0,0.0,0.0,0.0,0.0,0.0,0.0,0.0,0.0,0.0,0.0,0.0,0.0,0.0,0.0,0.0,0.0,0.0,0.0,0.0,0.0,0.0,0.0,0.0,0.0,0.0,0.0,0.0,0.0,0.0,0.0,0.0,0.0,0.0,0.0,0.0,0.0,0.0,0.0,0.0,0.0,0.0,0.0,0.0,0.0,0.0,0.0,0.0,0.0,0.0,0.0,0.0,0.0,0.0,0.0,0.0,0.0,0.0,0.0,0.0,0.0,0.0,0.0,0.0,0.0,0.0,0.0,0.0,0.0,0.0,0.0,0.0,0.0,0.0,0.0,0.0,0.0,0.0,0.0,0.0,0.0,0.0,0.0,0.0,0.0,0.0,0.0,0.0,0.0,0.0,0.0,0.0,0.0,0.0,0.0,0.0,0.0,0.0,0.0,0.0,0.0,0.0,0.0,0.0,0.0,0.0,0.0,0.0,0.0,0.0,0.0,0.0,0.0,0.0,0.0,0.0,0.0,0.0,0.0,0.0,0.0,0.0,0.0,0.0,0.0,0.0,0.0,0.0,0.0,0.0,0.0,0.0,0.0,0.0,0.0,0.0,0.0,0.0,0.0,0.0,0.0,0.0,0.0,0.0,0.0,0.0,0.0,0.0,0.0,0.0,0.0,0.0,0.0,0.0,0.0,0.0,0.0,0.0,0.0,0.0,0.0,0.0,0.0,0.0,0.0,0.0,0.0,0.0,0.0,0.0,0.0,0.0,0.0,0.0,0.0,0.0,0.0,0.0,0.0,0.0,0.0,0.0,0.0,0.0,0.0,0.0,0.0,0.0,0.0,0.0,0.0,0.0,0.0,0.0,0.0,0.0,0.0,0.0,0.0,0.0,0.0,0.0,0.0,0.0,0.0,0.0,0.0,0.0,0.0,0.0,0.0,0.0,0.0,0.0,0.0,0.0,0.0,0.0,0.0,0.0,0.0,0.0,0.0,0.0,-1.101,0.0,0.0,0.0,0.0,0.0,0.0,0.0,0.0,0.0,0.0,0.0,0.0,0.0,0.0,0.0,0.0,0.0,0.0,0.0,0.0,0.0,0.0,0.0,0.0,0.0,0.0,0.0,0.0,0.0,0.0,0.0,0.0,0.0,0.0,0.0,0.0,0.0,0.0,0.0,0.0,0.0,0.0,0.0,0.0,0.0,0.0,0.0,0.0,0.0,0.0,0.0,0.0,0.0,0.0,0.0,0.0,0.0,0.0,0.0,0.0,0.0,0.0,0.0,0.0,0.0,0.0,0.0,0.0,0.0,0.0,0.0,0.0,0.0,0.0,0.0,0.0,0.0,0.0,0.0,0.0,0.0,0.0,0.0,0.0,0.0,0.0,0.0,0.0,0.0,0.0,0.0,0.0,0.0,0.0,0.0,0.0,0.0,0.0,0.0,0.0,0.0,0.0,0.0,0.0,0.0,0.0,0.0,0.0,0.0,0.0,0.0,0.0,0.0,0.0,0.0,0.0,-1.2147,0.0,0.0,0.0,0.0,0.0,0.0,0.0,0.0,0.0,0.0,0.0,0.0,0.0,0.0,0.0,0.0,0.0,0.0,0.0,0.0,0.0,0.0,0.0,0.0,0.0,0.0,0.0,0.0,0.0,0.0,0.0,0.0,0.0,0.0,0.0,0.0,0.0,0.0,0.0,0.0,0.0,0.0,0.0,0.0,0.0,0.0,0.0,0.0,0.0,0.0,0.0,0.0,0.0,0.0,0.0,0.0,0.0,0.0,0.0,0.0,0.0,0.0,0.0,0.0,0.0,0.0,0.0,0.0,0.0,0.0,0.0,0.0,0.0,0.0,0.0,0.0,0.0,0.0,0.0,0.0,0.0,0.0,0.0,0.0,0.0,0.0,0.0,0.0,0.0,0.0,0.0,0.0,0.0,0.0,0.0,0.0,0.0,0.0,0.0,0.0,0.0,0.0,0.0,0.0,0.0,0.0,0.0,0.0,-1.4973,-1.4986,-1.453,-1.4898,-1.46,-1.3605,-1.3556,-1.3319,-1.3038,-1.2583,0.0,0.0,0.0,0.0,0.0,0.0,0.0,0.0,0.0,0.0,0.0,0.0,0.0,0.0,0.0,0.0,0.0,0.0,0.0,0.0,0.0,0.0,0.0,0.0,0.0,0.0,0.0,0.0,0.0,0.0,0.0,0.0,0.0,0.0,0.0,0.0,0.0,0.0,0.0,0.0,0.0,0.0,0.0,0.0,0.0,0.0,0.0,0.0,0.0,0.0,0.0,0.0,0.0,0.0,0.0,0.0,0.0,0.0,0.0,0.0,0.0,0.0,0.0,0.0,0.0,0.0,0.0,0.0,0.0,0.0,0.0,0.0,0.0,0.0,0.0,0.0,0.0,0.0,0.0,0.0,0.0,0.0,0.0,0.0,0.0,0.0,-0.8327,-0.7779,0.0,0.0,0.0,0.0,0.0,0.0,0.0,0.0,0.0,0.0,0.0,0.0,0.0,-1.3624,-1.404,-1.4826,-1.5397,-1.5813,-1.6,-1.5802,-1.5512,-1.525,-1.4791,-1.4141,-1.3842,0.0,-1.365,-1.251,0.0,0.0,0.0,0.0,0.0,0.0,0.0,0.0,0.0,0.0,0.0,0.0,0.0,0.0,0.0,0.0,0.0,0.0,0.0,0.0,0.0,0.0,0.0,0.0,0.0,0.0,0.0,0.0,0.0,0.0,0.0,0.0,0.0,0.0,0.0,0.0,0.0,0.0,0.0,0.0,0.0,0.0,0.0,0.0,0.0,0.0,0.0,0.0,0.0,0.0,0.0,0.0,0.0,0.0,0.0,0.0,0.0,0.0,0.0,0.0,0.0,0.0,0.0,0.0,0.0,0.0,0.0,0.0,0.0,0.0,0.0,0.0,0.0,0.0,0.0,0.0,0.0,0.0,0.0,0.0,0.0,0.0,0.0,0.0,0.0,-0.6522,-0.7803,-0.86,-0.8864,-0.9247,0.0,0.0,0.0,0.0,0.0,0.0,0.0,0.0,0.0,-1.3383,-1.4521,-1.5098,-1.5408,-1.6219,-1.661,-1.6657,-1.6668,-1.6511,-1.6138,-1.5843,-1.5512,-1.518,-1.5174,-1.5177,-1.5117,-1.3523,-1.3413,-1.4063,0.0,0.0,0.0,0.0,-1.1595,-1.2086,0.0,0.0,0.0,0.0,0.0,0.0,0.0,0.0,0.0,0.0,0.0,0.0,0.0,0.0,0.0,0.0,0.0,0.0,0.0,0.0,0.0,0.0,0.0,0.0,0.0,0.0,0.0,0.0,0.0,0.0,0.0,0.0,0.0,0.0,0.0,0.0,0.0,0.0,0.0,0.0,0.0,0.0,0.0,0.0,0.0,0.0,0.0,0.0,0.0,0.0,0.0,0.0,0.0,0.0,0.0,0.0,0.0,0.0,0.0,0.0,0.0,0.0,0.0,0.0,0.0,0.0,0.0,0.0,0.0,0.0,0.0,0.0,0.0,0.0,0.0,0.0,0.0,-0.6148,-0.7278,-0.9331,-0.9922,-1.0473,0.0,0.0,0.0,0.0,0.0,0.0,-1.3367,-1.4189,-1.4775,-1.4811,-1.5782,-1.6497,-1.6509,-1.7239,-1.7456,-1.7389,-1.7545,-1.7302,-1.6865,-1.6585,-1.6393,-1.6196,-1.6252,-1.6404,-1.6516,-1.4942,-1.4288,-1.4309,-1.3323,-1.3292,-1.3603,-1.2161,-1.2463,-1.3551,0.0,0.0,0.0,0.0,0.0,0.0,0.0,0.0,0.0,0.0,0.0,0.0,0.0,0.0,0.0,0.0,0.0,0.0,0.0,0.0,0.0,0.0,0.0,0.0,0.0,0.0,0.0,0.0,0.0,0.0,0.0,0.0,0.0,0.0,0.0,0.0,0.0,0.0,0.0,0.0,0.0,0.0,0.0,0.0,0.0,0.0,0.0,0.0,0.0,0.0,0.0,0.0,0.0,0.0,0.0,0.0,0.0,0.0,0.0,0.0,0.0,0.0,0.0,0.0,0.0,0.0,0.0,0.0,0.0,0.0,0.0,0.0,0.0,0.0,0.0,0.0,0.0,0.0,0.0,-0.9016,-1.1648,0.0,0.0,0.0,0.0,-1.4361,-1.4645,-1.529,-1.6441,-1.6538,-1.6786,-1.726,-1.7139,-1.7245,-1.7581,-1.7602,-1.7772,-1.8316,-1.8414,-1.819,-1.7936,-1.7946,-1.7529,-1.7007,-1.6775,-1.6925,-1.7359,-1.6556,-1.5853,-1.5274,-1.5235,-1.5086,-1.4725,-1.4358,-1.429,-1.4257,0.0,0.0,0.0,0.0,0.0,0.0,0.0,0.0,0.0,0.0,0.0,0.0,0.0,0.0,0.0,0.0,0.0,0.0,0.0,0.0,0.0,0.0,0.0,0.0,0.0,0.0,0.0,0.0,0.0,0.0,0.0,0.0,0.0,0.0,0.0,0.0,0.0,0.0,0.0,0.0,0.0,0.0,0.0,0.0,0.0,0.0,0.0,0.0,0.0,0.0,0.0,0.0,0.0,0.0,0.0,0.0,0.0,0.0,0.0,0.0,0.0,0.0,0.0,0.0,0.0,0.0,0.0,0.0,0.0,0.0,0.0,0.0,0.0,0.0,0.0,0.0,0.0,0.0,0.0,-1.0952,-1.224,0.0,-1.4218,-1.4239,-1.4639,-1.5502,-1.5888,-1.6444,-1.6928,-1.7368,-1.7539,-1.7576,-1.7945,-1.8039,-1.7976,-1.8555,-1.8874,-1.9054,-1.8813,-1.8855,-1.8828,-1.85,-1.8059,-1.7893,-1.7864,-1.774,-1.7556,-1.7599,-1.7007,-1.6284,-1.5734,-1.5597,-1.5625,-1.4982,-1.4745,-1.4736,0.0,0.0,0.0,0.0,0.0,0.0,0.0,0.0,0.0,0.0,0.0,0.0,0.0,0.0,0.0,0.0,0.0,0.0,0.0,0.0,0.0,0.0,0.0,0.0,0.0,0.0,0.0,0.0,0.0,0.0,0.0,0.0,0.0,0.0,0.0,0.0,0.0,0.0,0.0,0.0,0.0,0.0,-0.8765,0.0,0.0,0.0,0.0,0.0,0.0,0.0,0.0,0.0,0.0,0.0,0.0,0.0,0.0,0.0,0.0,0.0,0.0,0.0,0.0,0.0,0.0,0.0,0.0,0.0,0.0,0.0,0.0,0.0,0.0,0.0,0.0,0.0,0.0,0.0,-1.1293,-1.2548,-1.3473,-1.444,-1.5402,-1.561,-1.5964,-1.6844,-1.7347,-1.7675,-1.8196,-1.8357,-1.8449,-1.832,-1.8622,-1.8706,-1.8706,-1.9233,-1.9661,-1.9821,-1.944,-1.9396,-1.9523,-1.9193,-1.8824,-1.8788,-1.9016,-1.8602,-1.8143,-1.8449,-1.8251,-1.7388,-1.6168,-1.5612,-1.547,-1.4542,-1.4281,-1.4483,0.0,0.0,0.0,0.0,0.0,0.0,0.0,0.0,0.0,0.0,0.0,0.0,0.0,0.0,0.0,0.0,0.0,0.0,0.0,0.0,0.0,0.0,0.0,0.0,0.0,0.0,0.0,0.0,0.0,0.0,0.0,0.0,0.0,0.0,0.0,0.0,0.0,0.0,0.0,0.0,0.0,0.0,-0.9887,0.0,0.0,0.0,0.0,0.0,0.0,0.0,0.0,0.0,0.0,0.0,0.0,0.0,0.0,0.0,0.0,0.0,0.0,0.0,0.0,0.0,0.0,0.0,0.0,0.0,0.0,0.0,0.0,0.0,0.0,0.0,0.0,0.0,-1.0571,-1.158,-1.2631,-1.3738,-1.547,-1.6605,-1.6201,-1.6624,-1.7374,-1.8433,-1.867,-1.9184,-2.0295,-1.9882,-1.9737,-1.9737,-1.9322,-1.9391,-1.9844,-1.965,-1.9853,-2.0272,-2.0053,-1.9861,-1.9967,-1.9967,-1.9751,-1.962,-1.9742,-1.9533,-1.9013,-1.9494,-1.9381,-1.8722,-1.6623,-1.5373,-1.4625,-1.3609,-1.3484,-1.3877,0.0,0.0,0.0,0.0,0.0,0.0,0.0,0.0,0.0,0.0,0.0,0.0,0.0,0.0,0.0,0.0,0.0,0.0,0.0,0.0,0.0,0.0,0.0,0.0,0.0,0.0,0.0,0.0,0.0,0.0,0.0,0.0,0.0,0.0,0.0,0.0,0.0,0.0,0.0,0.0,0.0,0.0,-1.0272,0.0,0.0,0.0,0.0,0.0,0.0,0.0,0.0,0.0,0.0,0.0,0.0,0.0,0.0,0.0,0.0,0.0,0.0,0.0,0.0,0.0,0.0,0.0,0.0,0.0,0.0,0.0,0.0,0.0,0.0,0.0,0.0,-1.2112,-1.2213,-1.3224,-1.4573,-1.6101,-1.6287,-1.6765,-1.7513,-1.7266,-1.748,-1.8681,-1.8619,-1.9289,-2.0557,-2.0422,-2.0275,-1.9992,-2.0486,-2.0653,-2.0296,-2.0759,-2.0965,-2.074,-2.0051,-1.9694,-1.9479,-1.9163,-1.9106,-1.9142,-1.9413,-1.924,-1.8741,-1.9228,-1.9294,-1.9179,-1.826,-1.7588,-1.7303,-1.6339,-1.6024,-1.5949,0.0,0.0,0.0,0.0,0.0,0.0,0.0,0.0,0.0,0.0,0.0,0.0,0.0,0.0,0.0,0.0,0.0,0.0,0.0,0.0,0.0,0.0,0.0,0.0,0.0,0.0,0.0,0.0,0.0,0.0,0.0,0.0,0.0,0.0,0.0,0.0,0.0,0.0,0.0,0.0,0.0,0.0,-1.0842,-1.0592,-1.0261,-0.9813,-0.9714,-0.946,-0.9067,-0.8866,0.0,0.0,0.0,0.0,0.0,0.0,0.0,0.0,0.0,0.0,0.0,0.0,0.0,0.0,0.0,0.0,0.0,0.0,0.0,0.0,0.0,0.0,0.0,0.0,-1.2491,-1.3658,-1.4582,-1.5355,-1.6176,-1.7356,-1.7378,-1.736,-1.7909,-1.7745,-1.8102,-1.9219,-1.9297,-1.9832,-2.1279,-2.1291,-2.0944,-2.0703,-2.1277,-2.1261,-2.0757,-2.1335,-2.149,-2.1381,-2.075,-2.022,-1.9945,-1.9627,-1.9415,-1.9609,-1.9745,-1.9551,-1.9316,-1.9742,-1.9836,0.0,0.0,0.0,0.0,0.0,-1.6493,-1.6538,0.0,0.0,0.0,0.0,0.0,0.0,0.0,0.0,0.0,0.0,0.0,0.0,0.0,0.0,0.0,0.0,0.0,0.0,0.0,0.0,0.0,0.0,0.0,0.0,0.0,0.0,0.0,0.0,0.0,0.0,0.0,0.0,0.0,0.0,0.0,0.0,0.0,0.0,0.0,0.0,0.0,0.0,-1.1524,-1.1183,-1.0834,-1.0385,-1.0298,-1.0006,-0.964,-0.9426,0.0,0.0,0.0,0.0,0.0,0.0,0.0,0.0,0.0,0.0,0.0,0.0,0.0,0.0,0.0,0.0,0.0,0.0,0.0,0.0,0.0,0.0,0.0,0.0,-1.38,-1.5108,-1.7074,-1.7412,-1.7663,-1.817,-1.8325,-1.8314,-1.8075,-1.8227,-1.869,-1.9822,-2.0212,-2.0913,-2.24,0.0,0.0,0.0,0.0,-2.1619,-2.1335,-2.1703,-2.1953,-2.1922,-2.1438,-2.1068,-2.0797,-2.0497,-2.0453,-2.0635,-2.0655,-2.0578,-2.0181,-2.0714,-2.07,-2.0092,-1.8368,-1.7674,-1.752,-1.6419,-1.6242,-1.6503,0.0,0.0,0.0,0.0,0.0,0.0,0.0,0.0,0.0,0.0,0.0,0.0,0.0,0.0,0.0,0.0,0.0,0.0,0.0,0.0,0.0,0.0,0.0,0.0,0.0,0.0,0.0,0.0,0.0,0.0,0.0,0.0,0.0,0.0,0.0,0.0,0.0,0.0,0.0,0.0,0.0,0.0,-1.2273,-1.1567,-1.1028,-1.0689,-1.0374,-1.013,-0.991,-0.9981,-0.9888,-0.9677,-0.9725,0.0,0.0,0.0,0.0,0.0,0.0,0.0,0.0,0.0,0.0,0.0,0.0,0.0,0.0,0.0,0.0,0.0,0.0,0.0,0.0,-1.3982,-1.5591,-1.703,-1.8441,-1.876,-1.897,-1.921,-1.9033,-1.8899,-1.8816,-1.8559,-1.8839,-2.0274,-2.0527,-2.1386,-2.2877,-2.2889,-2.2615,-2.2048,-2.2614,-2.2744,-2.2268,-2.2688,-2.2625,-2.1922,0.0,0.0,-2.0477,-2.0493,-2.0594,-2.0635,-2.1166,-2.1316,-2.1227,-2.1434,-2.0958,-2.0028,-1.9404,-1.8808,-1.8154,-1.7669,-1.7845,-1.8188,0.0,0.0,0.0,0.0,0.0,0.0,0.0,0.0,0.0,0.0,0.0,0.0,0.0,0.0,0.0,0.0,0.0,0.0,0.0,0.0,0.0,0.0,0.0,0.0,0.0,0.0,0.0,0.0,0.0,0.0,0.0,0.0,0.0,0.0,0.0,0.0,0.0,0.0,0.0,0.0,0.0,0.0,-1.275,-1.1833,-1.1478,-1.133,-1.0826,-1.062,-1.0546,-1.0494,-1.0489,-1.0408,-1.0113,-1.0123,-1.0086,0.0,0.0,0.0,0.0,0.0,0.0,0.0,0.0,0.0,0.0,0.0,0.0,0.0,0.0,-1.1986,0.0,0.0,-1.4521,-1.5817,-1.679,-1.7815,-1.9264,-1.9527,-1.9542,-1.9808,-1.9509,-1.9515,-1.9566,-1.9639,-1.9693,-1.9844,-2.0902,-2.1647,-2.2113,-2.2827,-2.3008,-2.2447,-2.3127,-2.3356,-2.2623,-2.317,-2.3199,-2.2567,-2.2033,-2.173,-2.1471,-2.12,-2.1304,-2.1473,-2.1642,-2.1787,-2.162,-2.162,-2.1217,-2.0784,-2.0631,-1.9742,-1.8636,-1.8437,-1.8626,-1.8985,0.0,0.0,0.0,0.0,0.0,0.0,0.0,0.0,0.0,0.0,0.0,0.0,0.0,0.0,0.0,0.0,0.0,0.0,0.0,0.0,0.0,0.0,0.0,0.0,0.0,0.0,0.0,0.0,0.0,0.0,0.0,0.0,0.0,0.0,0.0,0.0,0.0,0.0,0.0,0.0,0.0,0.0,-1.3197,-1.2431,-1.1996,-1.2013,-1.162,-1.1272,-1.1101,-1.1056,-1.1026,-1.0914,-1.0536,-1.0588,-1.066,-1.012,-1.0135,0.0,0.0,0.0,0.0,0.0,0.0,0.0,0.0,0.0,-1.2439,-1.2964,-1.3388,-1.404,-1.5192,-1.5493,-1.6075,-1.7591,-1.784,-1.8317,-1.9722,-1.9969,-2.0121,-2.018,-2.0021,-1.9983,-2.0125,-2.0569,-2.0605,-1.9701,-2.1179,-2.1953,-2.1648,-2.2817,-2.3277,-2.2905,-2.3572,-2.3584,-2.3064,-2.3584,-2.352,-2.3211,-2.2864,-2.2609,-2.2632,-2.2256,-2.2172,-2.2414,-2.2343,-2.2124,-2.1949,-2.1828,-2.185,-2.1706,-2.1389,-2.0544,-1.9394,-1.8989,-1.9113,-1.9409,0.0,0.0,0.0,0.0,0.0,0.0,0.0,0.0,0.0,0.0,0.0,0.0,0.0,0.0,0.0,0.0,0.0,0.0,0.0,0.0,0.0,0.0,0.0,0.0,0.0,0.0,0.0,0.0,0.0,0.0,0.0,0.0,0.0,0.0,0.0,0.0,0.0,0.0,0.0,0.0,0.0,0.0,-1.4321,-1.3453,-1.2613,-1.217,-1.2382,-1.2018,-1.1517,-1.1557,-1.1472,-1.1189,-1.0914,-1.0804,-1.0812,-1.0743,0.0,-1.1457,-1.0975,-1.1364,-1.1933,-1.2698,-1.2909,-1.2987,0.0,0.0,-1.3992,-1.3975,-1.4831,-1.5676,-1.6253,-1.6977,-1.7725,-1.8687,-1.9177,-1.9734,-2.0443,-2.0653,-2.0611,-2.0674,-2.0685,-2.0635,-2.0508,-2.0658,-2.0902,-2.0935,-2.1682,-2.2259,-2.2476,-2.3656,-2.4,-2.3164,-2.4,-2.416,-2.3644,-2.3828,-2.352,-2.3211,-2.3528,-2.3607,-2.3143,-2.3291,-2.3257,-2.3166,-2.3411,-2.3119,-2.2792,-2.3007,-2.2588,-2.1933,-2.1463,-2.1073,-2.0667,-1.9913,-1.9629,-1.9698,0.0,0.0,0.0,0.0,0.0,0.0,0.0,0.0,0.0,0.0,0.0,0.0,0.0,0.0,0.0,0.0,0.0,0.0,0.0,0.0,0.0,0.0,0.0,0.0,0.0,0.0,0.0,0.0,0.0,0.0,0.0,0.0,0.0,0.0,0.0,0.0,0.0,0.0,0.0,0.0,0.0,0.0,-1.4401,-1.4143,-1.3828,-1.3199,-1.2961,-1.2596,0.0,0.0,-1.2545,-1.2384,-1.2054,-1.1933,-1.1813,-1.1672,-1.1759,0.0,-1.1958,-1.2319,-1.285,0.0,-1.3957,-1.4288,-1.5117,-1.5383,-1.5493,-1.5792,-1.6216,-1.6695,-1.692,-1.739,-1.7967,0.0,-1.9206,-1.9941,-2.0352,-2.0943,-2.1167,-2.1016,-2.0721,-2.0685,-2.1219,-2.1046,-2.0802,-2.0757,-2.1851,-2.2316,-2.1817,-2.3046,-2.3692,-2.352,-2.3692,-2.3852,-2.4172,-2.4,-2.3925,-2.4243,-2.3951,-2.3878,-2.3885,-2.3562,-2.3528,-2.3527,-2.3245,-2.3287,-2.3161,-2.3424,-2.3191,-2.2528,-2.2501,-2.2278,-2.1786,-2.0655,-2.0239,-2.0021,0.0,0.0,0.0,0.0,0.0,0.0,0.0,0.0,0.0,0.0,0.0,0.0,0.0,0.0,0.0,0.0,0.0,0.0,0.0,0.0,0.0,0.0,0.0,0.0,0.0,0.0,0.0,0.0,0.0,0.0,0.0,0.0,0.0,0.0,0.0,0.0,0.0,0.0,0.0,0.0,0.0,0.0,-1.4538,-1.4665,-1.4477,-1.4201,-1.3696,-1.332,0.0,0.0,-1.3188,-1.3048,-1.2841,-1.2603,-1.2528,-1.2518,-1.2514,-1.2733,-1.3223,0.0,0.0,-1.4628,-1.5041,-1.5577,-1.6257,-1.6515,-1.6762,-1.7104,-1.7391,-1.7474,-1.7461,-1.7866,-1.8237,-1.8351,-1.9275,-2.009,-2.0388,-2.117,-2.1446,-2.1102,-2.0455,-2.0611,-2.2005,-2.1233,-2.0754,-2.1,-2.2119,-2.2452,-2.1783,-2.2964,-2.352,-2.368,-2.352,-2.3692,-2.4492,-2.4,-2.4146,-2.4901,-2.4339,-2.427,-2.4385,-2.371,-2.3517,-2.3529,-2.336,-2.3415,-2.3591,-2.4024,-2.3801,-2.3302,-2.3481,-2.3204,-2.2643,-2.1619,-2.0877,-2.0446,0.0,0.0,0.0,0.0,0.0,0.0,0.0,0.0,0.0,0.0,0.0,0.0,0.0,0.0,0.0,0.0,0.0,0.0,0.0,0.0,0.0,0.0,0.0,0.0,0.0,0.0,0.0,0.0,0.0,0.0,0.0,0.0,0.0,0.0,0.0,0.0,0.0,0.0,0.0,0.0,0.0,0.0,-1.5119,-1.4656,-1.446,-1.4466,-1.4676,0.0,0.0,0.0,-1.3175,-1.2742,-1.2638,-1.2466,0.0,-1.2979,-1.3404,0.0,0.0,0.0,-1.5055,-1.5577,-1.6174,-1.6678,-1.6879,-1.7197,-1.7392,-1.7667,-1.7897,-1.8104,-1.7976,-1.8499,-1.8909,-1.8764,-1.9681,-2.0513,-2.1294,-2.1457,-2.123,-2.0835,-2.0319,-2.0601,0.0,-2.1269,-2.09,-2.2445,-2.3128,-2.3127,-2.2811,-2.3842,-2.4148,-2.3199,-2.352,-2.4012,-2.4492,-2.4,-2.4146,-2.4901,-2.4668,-2.4437,-2.4374,-2.3879,-2.3529,-2.301,-2.4036,-2.4374,-2.4385,-2.5143,-2.4909,-2.4052,-2.4064,-2.3548,-2.2675,-2.2665,-2.2,-2.0958,0.0,0.0,0.0,0.0,0.0,0.0,0.0,0.0,0.0,0.0,0.0,0.0,0.0,0.0,0.0,0.0,0.0,0.0,0.0,0.0,0.0,0.0,0.0,0.0,0.0,0.0,0.0,0.0,0.0,0.0,0.0,0.0,0.0,0.0,0.0,0.0,0.0,0.0,0.0,0.0,0.0,0.0,-1.5188,-1.4834,-1.5022,-1.5352,0.0,0.0,0.0,0.0,0.0,0.0,-1.3723,0.0,0.0,-1.4337,-1.4606,-1.4945,0.0,0.0,-1.6049,-1.6854,-1.7114,-1.7406,-1.7997,-1.8225,-1.8268,-1.8244,-1.8542,-1.8686,-1.8151,-1.8613,-1.9024,-1.89,-1.9712,-2.0453,-2.0699,-2.1467,-2.1829,-2.123,-2.0847,0.0,0.0,0.0,0.0,-2.2619,-2.2397,-2.2496,-2.2841,-2.3732,-2.4281,-2.448,-2.432,-2.448,-2.4811,-2.448,-2.4541,-2.5161,-2.4783,-2.4538,-2.4279,-2.4109,-2.3938,-2.4109,-2.445,-2.4791,-2.5143,-2.5556,-2.508,-2.4064,-2.4407,-2.372,-2.2686,-2.2686,-2.2288,-2.1698,0.0,0.0,0.0,0.0,0.0,0.0,0.0,0.0,0.0,0.0,0.0,0.0,0.0,0.0,0.0,0.0,0.0,0.0,0.0,0.0,0.0,0.0,0.0,0.0,0.0,0.0,0.0,0.0,0.0,0.0,0.0,0.0,0.0,0.0,0.0,0.0,0.0,0.0,0.0,0.0,0.0,0.0,-1.5175,-1.4827,-1.502,0.0,0.0,0.0,0.0,0.0,0.0,0.0,0.0,-1.4271,-1.4448,-1.5375,-1.5599,-1.5735,-1.6619,-1.6767,-1.6883,-1.7464,-1.7811,-1.8046,-1.869,-1.8884,-1.8843,-1.88,-1.8848,-1.8629,-1.8037,-1.8384,-1.8629,-1.8613,-1.9431,-2.0179,-2.0111,-2.1104,-2.17,-2.1488,-2.1205,-2.1671,0.0,0.0,0.0,-2.351,-2.2992,-2.3079,-2.3778,-2.4221,-2.4667,-2.5117,-2.4639,-2.4627,-2.513,-2.4739,-2.4901,-2.5126,-2.4877,-2.4578,-2.4235,-2.4064,-2.4235,-2.4749,-2.4578,-2.4921,-2.5604,-2.5933,-2.5592,-2.4738,-2.4749,-2.4235,-2.3376,-2.3031,-2.2686,-2.2514,0.0,0.0,0.0,0.0,0.0,0.0,0.0,0.0,0.0,0.0,0.0,0.0,0.0,0.0,0.0,0.0,0.0,0.0,0.0,0.0,0.0,0.0,0.0,0.0,0.0,0.0,0.0,0.0,0.0,0.0,0.0,0.0,0.0,0.0,0.0,0.0,0.0,0.0,0.0,0.0,0.0,0.0,-1.4831,-1.4606,0.0,0.0,0.0,0.0,0.0,0.0,0.0,0.0,0.0,0.0,-1.5163,-1.6184,-1.626,-1.6278,-1.7171,-1.7528,-1.7528,-1.7628,-1.8228,-1.8811,-1.9199,-1.9132,-1.9103,-1.9086,-1.8692,-1.8167,0.0,0.0,-1.7865,-1.8031,-1.8843,-1.9604,-1.976,-2.0535,-2.1181,0.0,0.0,0.0,0.0,0.0,0.0,-2.5144,0.0,-2.4863,-2.5438,-2.5308,-2.5296,-2.5117,-2.4798,-2.4798,-2.513,-2.4926,-2.4845,-2.5047,-2.4779,-2.4738,-2.4749,-2.3892,-2.3892,-2.4749,-2.4407,-2.4909,-2.6103,-2.6103,-2.6103,-2.6103,-2.508,-2.4749,-2.4578,-2.372,-2.3376,-2.3376,0.0,0.0,0.0,0.0,0.0,0.0,0.0,0.0,0.0,0.0,0.0,0.0,0.0,0.0,0.0,0.0,0.0,0.0,0.0,0.0,0.0,0.0,0.0,0.0,0.0,0.0,0.0,0.0,0.0,0.0,0.0,0.0,0.0,0.0,0.0,0.0,0.0,0.0,0.0,0.0,0.0,0.0,-1.4398,0.0,0.0,0.0,0.0,0.0,0.0,0.0,0.0,0.0,0.0,0.0,-1.528,-1.6429,-1.6612,-1.6803,-1.8104,-1.8499,-1.8571,-1.9031,-1.9233,-1.9475,-1.9422,-1.9373,-1.9074,-1.8556,-1.8372,-1.8257,0.0,0.0,0.0,-1.8538,-1.8679,0.0,-1.9848,-2.046,0.0,-2.1593,0.0,-2.2841,-2.3728,-2.3762,0.0,0.0,-2.4861,-2.4316,-2.4091,-2.5098,-2.5936,-2.607,-2.5911,-2.5594,-2.513,-2.4591,-2.4516,-2.5047,-2.4939,-2.5071,-2.5263,-2.4921,-2.5092,-2.5263,-2.5092,-2.5604,-2.6613,-2.6613,-2.6613,-2.6613,-2.6286,-2.5592,-2.4749,-2.4407,-2.4235,-2.3892,0.0,0.0,0.0,0.0,0.0,0.0,0.0,0.0,0.0,0.0,0.0,0.0,0.0,0.0,0.0,0.0,0.0,0.0,0.0,0.0,0.0,0.0,0.0,0.0,0.0,0.0,0.0,0.0,0.0,0.0,0.0,0.0,0.0,0.0,0.0,0.0,0.0,0.0,0.0,0.0,0.0,0.0,0.0,0.0,0.0,0.0,0.0,0.0,0.0,0.0,0.0,-1.5418,-1.5383,-1.5312,-1.5517,-1.6921,0.0,-1.7326,-1.8712,-1.8977,-1.8944,-1.9153,-1.9246,-1.9274,-1.9187,-1.9137,-1.8788,-1.8277,-1.8173,0.0,0.0,0.0,0.0,0.0,0.0,0.0,-1.9865,-2.064,-2.1296,0.0,-2.2572,0.0,-2.3915,-2.4127,-2.4492,0.0,-2.5001,-2.5021,-2.5133,-2.6101,-2.6566,-2.6689,-2.6702,-2.6294,-2.5308,-2.449,-2.4504,-2.5047,-2.5203,-2.5518,-2.5775,-2.5775,-2.5604,-2.5433,0.0,-2.5433,-2.5933,-2.6116,-2.6103,-2.6273,-2.6443,-2.5933,-2.5251,-2.5251,-2.5251,-2.508,0.0,0.0,0.0,0.0,0.0,0.0,0.0,0.0,0.0,0.0,0.0,0.0,0.0,0.0,0.0,0.0,0.0,0.0,0.0,0.0,0.0,0.0,0.0,0.0,0.0,0.0,0.0,0.0,0.0,0.0,0.0,0.0,0.0,0.0,0.0,0.0,0.0,0.0,0.0,0.0,0.0,0.0,0.0,0.0,0.0,0.0,0.0,0.0,0.0,0.0,-1.6708,-1.5885,-1.5562,-1.548,-1.5935,-1.7515,-1.7859,-1.7875,-1.8991,-1.9127,-1.8885,-1.8763,-1.8825,-1.8825,-1.8838,-1.8684,-1.8557,-1.8125,0.0,-1.7623,-1.7141,-1.7488,-1.7862,-1.7864,0.0,-1.949,-1.9521,-2.0515,-2.1411,-2.1883,-2.2996,-2.3741,-2.4179,-2.4355,-2.4427,-2.4417,-2.5338,-2.6328,-2.7065,-2.7193,-2.706,-2.6847,-2.6874,-2.6374,-2.5537,-2.4689,-2.448,-2.5047,-2.5465,-2.5756,-2.5871,-2.5834,-2.5652,-2.5325,-2.485,-2.4655,-2.4767,-2.5215,-2.5385,-2.5483,-2.6066,-2.6273,-2.6273,-2.6273,-2.6273,-2.6273,0.0,0.0,0.0,0.0,0.0,0.0,0.0,0.0,0.0,0.0,0.0,0.0,0.0,0.0,0.0,0.0,0.0,0.0,0.0,0.0,0.0,0.0,0.0,0.0,0.0,0.0,0.0,0.0,0.0,0.0,0.0,0.0,0.0,0.0,0.0,0.0,0.0,0.0,0.0,0.0,0.0,0.0,0.0,0.0,0.0,0.0,0.0,0.0,0.0,0.0,-1.694,-1.6758,-1.6791,-1.6674,-1.6711,-1.7672,-1.8163,-1.8473,-1.9132,-1.9285,-1.9192,-1.9244,-1.9257,-1.9137,-1.8911,-1.8558,0.0,0.0,0.0,-1.7333,-1.6837,-1.7014,0.0,-1.7225,0.0,0.0,0.0,0.0,-2.0488,0.0,0.0,0.0,0.0,0.0,0.0,0.0,0.0,-2.5937,-2.6004,-2.6364,-2.6662,-2.6544,-2.6228,-2.5896,-2.5537,-2.516,-2.4951,-2.5035,-2.5083,-2.5133,-2.5108,-2.5033,-2.477,-2.4782,-2.4507,0.0,-2.4504,-2.5168,-2.5349,-2.5483,-2.6268,-2.6613,-2.6613,-2.6613,-2.6613,-2.6613,0.0,0.0,0.0,0.0,0.0,0.0,0.0,0.0,0.0,0.0,-0.9185,-0.9288,0.0,0.0,0.0,0.0,0.0,0.0,0.0,0.0,0.0,0.0,0.0,0.0,0.0,0.0,0.0,0.0,0.0,0.0,0.0,0.0,0.0,0.0,0.0,0.0,0.0,0.0,0.0,0.0,0.0,0.0,0.0,0.0,0.0,0.0,0.0,0.0,0.0,0.0,-1.7295,-1.7191,-1.7044,-1.7059,-1.7198,-1.7698,-1.8233,-1.8668,-1.877,-1.8866,-1.8803,-1.8639,-1.8606,-1.848,-1.7749,0.0,0.0,0.0,0.0,-1.7204,-1.6848,0.0,0.0,0.0,0.0,0.0,0.0,0.0,0.0,0.0,0.0,0.0,0.0,0.0,0.0,0.0,0.0,-2.5506,-2.6444,-2.6625,-2.6724,-2.6702,-2.607,-2.5736,-2.5537,-2.5087,-2.4975,-2.4818,-2.5059,-2.5083,-2.5163,-2.536,-2.5206,-2.483,-2.4663,-2.4258,-2.4009,-2.4412,-2.4532,-2.4519,-2.5744,-2.6061,-2.5905,-2.6914,-2.7045,-2.6916,0.0,0.0,0.0,0.0,0.0,0.0,0.0,-0.867,-0.873,-0.8581,-0.8902,-0.8967,-0.8561,-0.8357,0.0,0.0,0.0,0.0,0.0,0.0,0.0,0.0,0.0,0.0,0.0,0.0,0.0,0.0,0.0,0.0,0.0,0.0,0.0,0.0,0.0,0.0,0.0,0.0,0.0,0.0,0.0,0.0,0.0,0.0,0.0,0.0,0.0,0.0,0.0,0.0,-1.7423,-1.7282,-1.6907,-1.7204,-1.7695,-1.7939,-1.8386,-1.87,-1.8611,-1.8459,-1.8212,-1.7954,-1.7811,-1.7616,-1.6993,-1.7167,0.0,0.0,-1.685,-1.7047,-1.6693,0.0,0.0,0.0,0.0,0.0,0.0,0.0,0.0,0.0,0.0,0.0,0.0,0.0,0.0,0.0,0.0,0.0,-2.6819,-2.679,-2.6675,-2.6638,-2.6003,-2.5667,-2.5463,-2.5313,-2.4923,-2.4625,-2.5133,-2.5298,-2.5133,-2.5462,-2.5409,-2.4927,-2.4615,-2.427,-2.3695,-2.3925,-2.3832,-2.343,-2.4842,-2.5477,-2.5383,-2.6799,-2.7278,-2.7302,0.0,0.0,0.0,0.0,0.0,0.0,0.0,-0.8624,-0.8494,-0.8654,-0.8885,-0.8886,-0.8561,-0.848,0.0,0.0,0.0,0.0,0.0,0.0,0.0,0.0,0.0,0.0,0.0,0.0,0.0,0.0,0.0,0.0,0.0,0.0,0.0,0.0,0.0,0.0,0.0,0.0,0.0,0.0,0.0,0.0,0.0,0.0,0.0,0.0,0.0,0.0,0.0,0.0,0.0,-1.6963,-1.6855,-1.7413,-1.8149,-1.8941,0.0,0.0,-1.9,-1.8601,-1.8021,-1.7715,-1.739,-1.7204,-1.7367,0.0,0.0,0.0,-1.669,-1.6359,-1.6166,0.0,0.0,0.0,0.0,0.0,0.0,0.0,0.0,0.0,0.0,0.0,0.0,0.0,0.0,0.0,0.0,0.0,-2.5644,-2.5657,-2.5609,-2.5647,-2.5511,-2.5476,-2.526,-2.559,-2.5437,-2.4625,-2.5133,-2.5133,-2.4625,-2.4625,-2.4637,-2.4673,-2.4412,-2.408,0.0,-2.415,-2.4056,-2.3645,-2.4399,-2.5317,-2.6209,-2.6401,-2.7226,-2.7928,0.0,0.0,0.0,0.0,0.0,0.0,0.0,-0.7792,-0.7928,-0.8281,-0.8366,-0.847,-0.8587,-0.8314,-0.7992,0.0,0.0,0.0,0.0,0.0,0.0,0.0,0.0,0.0,0.0,0.0,0.0,-0.8999,-0.8813,0.0,0.0,0.0,0.0,0.0,0.0,-0.9732,0.0,0.0,0.0,0.0,0.0,0.0,0.0,0.0,0.0,0.0,0.0,0.0,0.0,0.0,0.0,0.0,-1.6576,-1.7004,0.0,0.0,-1.789,-1.8038,-1.7846,-1.7261,-1.6784,-1.6903,-1.6537,-1.6235,-1.6393,0.0,0.0,-1.6324,-1.6138,-1.5922,-1.5748,0.0,0.0,0.0,0.0,0.0,0.0,0.0,0.0,0.0,0.0,0.0,0.0,0.0,0.0,0.0,0.0,0.0,-2.5281,-2.5741,-2.5935,-2.5847,-2.6183,-2.6073,-2.5376,-2.5878,-2.5791,-2.5462,-2.5627,-2.5462,-2.4967,-2.4967,-2.4887,-2.4878,-2.4651,-2.4411,0.0,-2.4471,-2.4644,-2.5025,-2.5462,-2.6108,-2.689,-2.7226,-2.7588,-2.7869,0.0,0.0,0.0,0.0,0.0,0.0,-0.7047,-0.723,-0.7531,-0.7843,-0.794,-0.8085,-0.8436,-0.7928,-0.7531,-0.742,0.0,0.0,0.0,0.0,0.0,0.0,0.0,0.0,0.0,0.0,0.0,-0.8493,-0.8465,-0.8458,0.0,0.0,-0.8623,-0.8849,0.0,0.0,0.0,0.0,0.0,0.0,0.0,0.0,0.0,0.0,0.0,0.0,0.0,0.0,0.0,0.0,0.0,0.0,0.0,0.0,0.0,0.0,-1.698,-1.7211,-1.6977,-1.642,-1.6001,-1.6344,-1.6018,-1.5587,0.0,0.0,0.0,-1.5739,-1.5547,-1.5333,-1.5333,0.0,0.0,0.0,0.0,0.0,0.0,0.0,0.0,0.0,0.0,0.0,0.0,0.0,0.0,0.0,0.0,0.0,-2.5296,-2.5711,-2.6022,-2.6022,-2.6344,-2.6222,-2.5664,-2.6079,-2.6182,-2.5969,-2.6134,-2.5994,-2.5587,-2.5662,-2.5607,-2.5371,-2.5249,-2.512,0.0,-2.526,-2.5577,-2.5948,-2.6475,-2.6965,-2.739,-2.7755,-2.7936,-2.7829,0.0,0.0,0.0,0.0,0.0,0.0,0.0,-0.723,-0.7394,-0.7394,-0.762,-0.7823,-0.7911,-0.7263,-0.6849,-0.69,0.0,0.0,0.0,0.0,0.0,0.0,0.0,0.0,0.0,0.0,0.0,-0.8028,-0.7961,-0.7795,-0.7545,-0.8325,-0.8456,-0.8046,0.0,0.0,0.0,0.0,0.0,0.0,0.0,0.0,0.0,0.0,0.0,0.0,0.0,0.0,0.0,0.0,0.0,0.0,0.0,0.0,0.0,0.0,-1.6818,-1.627,-1.697,-1.6551,-1.6049,-1.6596,-1.6113,-1.5737,0.0,0.0,0.0,-1.5154,-1.4951,-1.4741,-1.4741,0.0,0.0,0.0,0.0,0.0,0.0,0.0,0.0,0.0,0.0,0.0,0.0,0.0,0.0,0.0,0.0,0.0,-2.5309,-2.5564,-2.5549,-2.5549,-2.5549,-2.5677,-2.5944,-2.6236,-2.6236,-2.5969,-2.6516,-2.6643,-2.6389,-2.6656,-2.663,-2.6389,-2.6669,-2.6312,0.0,-2.6631,-2.6678,-2.6196,-2.6985,-2.7442,-2.7696,-2.7696,-2.7883,-2.8136,0.0,0.0,0.0,0.0,0.0,0.0,0.0,-0.6757,-0.6975,-0.7229,-0.7232,-0.7231,-0.7416,-0.6998,-0.6623,-0.6372,0.0,0.0,0.0,0.0,0.0,0.0,0.0,0.0,0.0,0.0,0.0,-0.7795,-0.7697,-0.7715,-0.7845,-0.8015,-0.8232,-0.85,-0.8911,0.0,0.0,0.0,0.0,0.0,0.0,0.0,0.0,0.0,0.0,0.0,0.0,0.0,0.0,0.0,0.0,0.0,0.0,0.0,0.0,0.0,0.0,0.0,-1.5405,-1.4972,-1.4562,-1.4609,-1.4551,-1.4584,-1.5245,0.0,0.0,0.0,0.0,0.0,0.0,0.0,0.0,0.0,0.0,0.0,0.0,0.0,0.0,0.0,0.0,0.0,0.0,0.0,0.0,0.0,0.0,0.0,-2.6082,-2.6426,-2.6307,-2.6009,-2.6183,-2.6222,-2.6151,-2.6405,-2.6764,-2.7231,-2.7249,-2.7394,-2.7175,-2.7266,-2.7084,-2.6669,-2.6758,-2.6364,-2.5801,-2.6939,-2.7251,-2.7409,-2.8331,-2.9091,-2.9355,-2.9008,-2.9063,-2.8978,0.0,0.0,0.0,0.0,0.0,0.0,0.0,-0.6673,-0.6757,-0.7026,-0.6868,-0.6819,-0.7028,-0.6739,-0.645,-0.6276,0.0,0.0,0.0,0.0,0.0,0.0,0.0,0.0,0.0,0.0,0.0,0.0,0.0,-0.7603,-0.7825,-0.7951,-0.8197,-0.8551,-0.8805,0.0,0.0,0.0,0.0,0.0,0.0,0.0,-1.2656,0.0,0.0,0.0,0.0,0.0,0.0,0.0,0.0,0.0,0.0,0.0,0.0,0.0,0.0,0.0,0.0,-1.421,-1.3754,-1.3749,-1.3787,0.0,0.0,0.0,0.0,0.0,0.0,0.0,0.0,0.0,0.0,0.0,0.0,0.0,0.0,0.0,0.0,0.0,0.0,0.0,0.0,0.0,0.0,0.0,0.0,0.0,-2.6847,-2.686,-2.6638,-2.6494,-2.676,-2.6666,-2.6492,-2.6879,-2.7335,-2.7696,-2.7816,-2.7795,-2.7812,-2.7812,-2.7577,-2.7136,-2.7422,-2.7039,0.0,-2.8041,-2.8578,-2.8415,-2.975,-3.015,-2.983,-2.9649,-2.9314,-2.8978,0.0,0.0,0.0,0.0,0.0,0.0,0.0,0.0,0.0,0.0,-0.6643,-0.6582,-0.6751,-0.6445,-0.6292,0.0,0.0,0.0,0.0,0.0,0.0,0.0,0.0,0.0,0.0,0.0,0.0,-0.7516,-0.7545,-0.7545,-0.7598,0.0,-0.8343,-0.8391,-0.8735,0.0,0.0,0.0,0.0,0.0,0.0,0.0,0.0,0.0,0.0,0.0,0.0,0.0,0.0,0.0,0.0,0.0,0.0,0.0,0.0,0.0,0.0,0.0,0.0,0.0,0.0,0.0,0.0,0.0,0.0,0.0,0.0,0.0,0.0,0.0,0.0,0.0,0.0,0.0,0.0,0.0,0.0,0.0,0.0,0.0,0.0,0.0,0.0,0.0,0.0,0.0,0.0,0.0,-2.7633,-2.686,-2.6702,-2.7032,-2.6827,-2.6827,-2.6854,-2.7415,-2.7696,-2.7696,-2.8003,-2.8136,-2.811,-2.8136,-2.7989,0.0,-2.8492,-2.829,-2.774,-2.9885,-3.0243,-2.9454,-3.0898,-3.0651,-2.9649,-2.9481,-2.8978,-2.8318,0.0,0.0,0.0,0.0,0.0,0.0,0.0,0.0,0.0,0.0,0.0,-0.6659,-0.6429,-0.6445,0.0,0.0,0.0,0.0,0.0,0.0,0.0,0.0,0.0,0.0,0.0,0.0,0.0,-0.767,-0.786,-0.806,-0.8282,-0.8735,0.0,0.0,0.0,0.0,0.0,0.0,0.0,0.0,0.0,0.0,0.0,0.0,0.0,0.0,-1.1868,-1.2218,0.0,0.0,0.0,0.0,0.0,0.0,0.0,0.0,-1.2372,-1.2303,-1.2576,0.0,-1.2879,-1.3092,0.0,0.0,0.0,0.0,0.0,0.0,0.0,0.0,0.0,0.0,0.0,0.0,0.0,0.0,0.0,0.0,0.0,0.0,0.0,0.0,0.0,0.0,0.0,0.0,0.0,-2.7476,-2.7633,-2.7476,-2.7175,-2.7032,-2.6827,-2.6934,-2.7161,-2.7522,-2.7696,-2.7696,-2.8003,-2.803,-2.7816,-2.8043,-2.8278,-2.8519,-2.8469,-2.8655,-2.8958,-2.9998,-3.016,-2.9939,-3.1063,-3.115,-3.0499,-3.0193,-2.9859,-2.9691,0.0,0.0,0.0,0.0,0.0,0.0,0.0,0.0,0.0,0.0,0.0,0.0,0.0,0.0,0.0,0.0,0.0,0.0,0.0,0.0,0.0,0.0,0.0,0.0,0.0,0.0,0.0,0.0,0.0,-0.8338,0.0,0.0,0.0,0.0,0.0,0.0,0.0,0.0,0.0,0.0,-1.0913,0.0,0.0,0.0,0.0,0.0,-1.1569,-1.1904,0.0,-1.2108,-1.22,-1.2498,0.0,0.0,0.0,0.0,-1.1477,-1.1436,-1.1344,-1.184,-1.2493,-1.2641,-1.2832,-1.2811,0.0,0.0,0.0,0.0,0.0,0.0,0.0,0.0,0.0,0.0,0.0,0.0,0.0,0.0,0.0,0.0,0.0,0.0,0.0,0.0,0.0,0.0,0.0,-2.7961,-2.8261,-2.779,-2.7476,-2.7333,-2.6986,-2.6961,-2.7268,-2.7549,-2.7762,-2.7909,-2.8238,-2.8392,-2.8244,-2.8909,-2.916,-2.9467,-2.9328,-2.954,-3.0112,-3.0468,-3.0528,-3.0334,-3.1167,-3.1135,-3.0455,-3.0303,-2.9998,-2.9859,0.0,0.0,0.0,0.0,0.0,0.0,0.0,0.0,0.0,0.0,0.0,0.0,0.0,0.0,0.0,0.0,0.0,0.0,0.0,0.0,0.0,0.0,0.0,0.0,0.0,0.0,0.0,0.0,0.0,0.0,0.0,0.0,-0.9596,0.0,0.0,0.0,0.0,0.0,0.0,-1.0624,-1.0675,0.0,0.0,0.0,0.0,0.0,0.0,0.0,0.0,-1.1709,-1.184,-1.2075,-1.215,0.0,0.0,0.0,0.0,0.0,-1.0592,-1.1352,-1.2236,-1.2387,-1.2372,-1.228,0.0,0.0,0.0,0.0,0.0,0.0,0.0,0.0,0.0,0.0,0.0,0.0,0.0,0.0,0.0,0.0,0.0,0.0,0.0,0.0,0.0,0.0,0.0,-2.8431,-2.8886,-2.8104,-2.7633,-2.7633,-2.7105,-2.6921,-2.7268,-2.7727,-2.7996,-2.8406,-2.8796,-2.8964,-2.8923,-2.9816,-3.0179,-3.0136,0.0,0.0,-3.0939,-3.1103,-3.1061,-3.0984,-3.1301,-3.0939,-3.026,-3.0412,-3.0107,-2.9844,0.0,0.0,0.0,0.0,0.0,0.0,0.0,0.0,0.0,0.0,0.0,0.0,0.0,0.0,0.0,0.0,0.0,0.0,0.0,0.0,0.0,0.0,0.0,0.0,0.0,0.0,0.0,0.0,0.0,0.0,-0.9619,-0.9969,-0.9909,-0.9387,0.0,-0.9481,-0.9142,-0.9657,-1.0084,-1.0368,-1.047,0.0,0.0,0.0,0.0,0.0,0.0,0.0,0.0,-1.132,-1.1322,-1.1376,-1.1781,0.0,0.0,0.0,0.0,0.0,-1.0511,-1.1066,-1.1627,-1.2082,-1.2298,-1.2516,0.0,0.0,0.0,0.0,0.0,0.0,0.0,0.0,0.0,0.0,0.0,0.0,0.0,0.0,0.0,0.0,0.0,0.0,0.0,0.0,0.0,0.0,-2.8289,-2.8431,-2.8886,-2.8104,-2.7633,-2.7633,-2.6901,-2.672,-2.7268,-2.7892,-2.8565,-2.8938,-2.9717,-2.9703,-2.9117,-2.9884,-3.0179,-3.0136,0.0,-3.1046,-3.1948,-3.1749,-3.1857,-3.1948,-3.1632,-3.115,-3.0803,-3.112,-3.0969,-3.0651,0.0,0.0,0.0,0.0,0.0,0.0,0.0,0.0,0.0,0.0,0.0,0.0,0.0,0.0,0.0,0.0,0.0,0.0,0.0,0.0,0.0,0.0,0.0,0.0,0.0,0.0,0.0,0.0,0.0,-0.9803,-1.0347,-1.0547,-1.0339,-0.9873,0.0,-0.9375,-0.9278,-0.9673,-0.9888,-1.0058,0.0,0.0,0.0,0.0,0.0,0.0,0.0,0.0,0.0,0.0,-1.0912,-1.1019,-1.1584,0.0,0.0,0.0,0.0,0.0,-1.0281,-1.0539,-1.1033,-1.1678,-1.2258,-1.2707,0.0,0.0,0.0,0.0,0.0,0.0,0.0,0.0,0.0,0.0,0.0,0.0,0.0,0.0,0.0,0.0,0.0,0.0,0.0,0.0,0.0,0.0,-2.8744,-2.8744,-2.8886,-2.8275,-2.7805,-2.7633,-2.7162,-2.7305,-2.807,-2.8548,-2.8949,-2.9271,-2.9941,-3.0093,-3.0116,-3.0592,-3.0832,-3.0954,0.0,-3.1533,-3.2113,-3.161,-3.1603,-3.1677,-3.1135,-3.0984,-3.0998,-3.1091,-3.1286,-3.1209,0.0,0.0,0.0,0.0,0.0,0.0,0.0,0.0,0.0,0.0,0.0,0.0,0.0,0.0,0.0,0.0,0.0,0.0,0.0,0.0,0.0,0.0,0.0,0.0,0.0,0.0,-0.881,-0.8851,-0.973,-1.0368,-1.0855,-1.1054,-1.0777,0.0,0.0,-0.9344,-0.9417,-0.9514,-0.9616,-0.9783,0.0,0.0,0.0,0.0,0.0,0.0,0.0,0.0,0.0,0.0,0.0,0.0,0.0,0.0,0.0,-1.0648,-1.0353,-1.0109,-0.9984,-1.0182,-1.0615,0.0,0.0,0.0,0.0,0.0,0.0,0.0,0.0,0.0,0.0,0.0,0.0,0.0,0.0,0.0,0.0,0.0,0.0,0.0,0.0,0.0,0.0,0.0,0.0,-2.9368,-2.9042,-2.8886,-2.8886,-2.8588,-2.8118,-2.779,-2.7633,-2.7927,-2.8557,-2.9058,-2.9535,-2.9983,-3.0499,-3.0832,-3.0984,-3.1482,-3.1647,-3.1452,-3.1934,-3.2174,-3.2293,-3.1734,-3.1564,-3.1753,-3.1013,-3.0954,-3.1227,-3.1046,-3.112,-3.139,0.0,0.0,0.0,0.0,0.0,0.0,0.0,0.0,0.0,0.0,0.0,0.0,0.0,0.0,0.0,0.0,0.0,0.0,0.0,0.0,0.0,0.0,0.0,0.0,0.0,-0.8291,-0.8838,-0.9915,-1.0298,-1.0665,-1.1086,-1.155,-1.096,-0.9634,0.0,-0.9485,-0.9206,-0.9113,-0.9312,-0.9668,-0.9486,0.0,0.0,0.0,0.0,0.0,0.0,0.0,0.0,0.0,0.0,0.0,0.0,0.0,-1.0876,-1.0483,-1.016,-0.9928,-0.9842,-1.0313,-1.0802,-1.095,0.0,0.0,0.0,0.0,0.0,0.0,0.0,0.0,0.0,0.0,0.0,0.0,0.0,0.0,0.0,0.0,0.0,0.0,0.0,0.0,0.0,0.0,0.0,-2.8886,-2.8886,-2.8886,-2.8886,-2.8588,-2.8289,-2.8275,-2.7805,-2.7927,-2.8557,-2.9382,-3.0351,-3.1316,-3.1828,-3.1843,-3.1482,-3.2324,-3.2324,-3.1482,-3.2428,-3.2772,-3.2819,-3.2772,-3.2654,-3.2613,-3.2327,-3.2083,-3.2073,-3.1212,-3.1135,-3.1452,0.0,0.0,0.0,0.0,0.0,0.0,0.0,0.0,0.0,0.0,0.0,0.0,0.0,0.0,0.0,0.0,0.0,0.0,0.0,0.0,0.0,0.0,0.0,-0.8394,-0.8802,-0.9,-0.9372,-0.993,-1.0896,-1.1364,-1.1338,-1.1385,0.0,0.0,0.0,-0.936,-0.9404,-0.9437,-0.9539,-0.9758,-0.9606,-0.9409,0.0,0.0,0.0,0.0,0.0,0.0,0.0,0.0,-0.9683,0.0,0.0,0.0,-1.0685,-1.0312,-0.9982,-0.9699,-0.9482,-0.967,-1.009,-1.0649,0.0,0.0,0.0,0.0,0.0,0.0,0.0,0.0,0.0,0.0,0.0,0.0,0.0,0.0,0.0,0.0,0.0,0.0,0.0,0.0,0.0,0.0,-2.9508,-2.9368,-2.9212,-2.9212,-2.8886,-2.8744,-2.8588,-2.8289,-2.8431,-2.8576,-2.8896,-2.9866,-3.1001,-3.2324,-3.2174,-3.2339,-3.2819,-3.2505,-3.2174,-3.1994,-3.2489,-3.2819,-3.2819,-3.2788,-3.2772,-3.2803,-3.267,-3.2098,-3.1512,-3.1722,-3.139,-3.0969,0.0,0.0,0.0,0.0,0.0,0.0,0.0,0.0,0.0,0.0,0.0,0.0,0.0,0.0,0.0,0.0,0.0,0.0,0.0,0.0,0.0,0.0,0.0,-0.8583,-0.9212,-0.9387,-0.9671,-1.0076,-1.1216,-1.1557,-1.1184,0.0,0.0,0.0,0.0,-0.9573,-0.9505,-0.9547,-0.9617,-0.9687,-0.9416,-0.9268,0.0,0.0,0.0,0.0,0.0,0.0,0.0,0.0,0.0,0.0,0.0,0.0,0.0,0.0,-0.989,-0.965,-0.9353,-0.9528,-0.9984,0.0,0.0,0.0,0.0,0.0,0.0,0.0,0.0,0.0,0.0,0.0,0.0,0.0,0.0,0.0,0.0,0.0,0.0,0.0,0.0,0.0,0.0,-3.0267,-2.9679,-2.9368,-2.9368,-2.9212,-2.8886,-2.8886,-2.873,-2.8431,-2.8744,-2.905,-2.9382,-3.0203,-3.1341,-3.2983,-3.2546,-3.2725,-3.3492,-3.2834,-3.2505,-3.2339,-3.267,-3.2819,-3.2983,-3.2725,-3.2694,-3.2725,-3.2623,-3.2128,-3.1452,-3.1753,-3.1405,-3.0817,0.0,0.0,0.0,0.0,0.0,0.0,0.0,0.0,0.0,0.0,0.0,0.0,0.0,0.0,0.0,0.0,0.0,0.0,0.0,0.0,0.0,0.0,0.0,-0.8661,-0.9212,-0.9185,-0.9636,-1.0479,-1.1084,-1.1075,-1.0516,-1.0906,0.0,0.0,0.0,0.0,-0.9471,-0.9291,-0.93,-0.9441,-0.8898,-0.8982,-0.9354,0.0,0.0,0.0,0.0,0.0,0.0,0.0,0.0,0.0,0.0,0.0,0.0,0.0,-0.9974,-0.9907,-0.9412,-1.0115,0.0,0.0,0.0,0.0,0.0,0.0,0.0,0.0,0.0,0.0,0.0,0.0,0.0,0.0,0.0,0.0,0.0,0.0,0.0,0.0,0.0,0.0,-3.0202,-2.9792,-2.9368,-2.8886,-2.8886,-2.8886,-2.8886,-2.8886,-2.8886,-2.8886,-2.8886,-2.9208,-2.9851,-3.0349,-3.1487,-3.3429,-3.3111,-3.3143,-3.3476,-3.3476,-3.3312,-3.2819,-3.2819,-3.2983,-3.3476,-3.2515,-3.2499,-3.2741,-3.2447,-3.2174,-3.2109,-3.1105,-3.0817,-3.0832,0.0,0.0,0.0,0.0,0.0,0.0,0.0,0.0,0.0,0.0,0.0,0.0,0.0,0.0,0.0,0.0,0.0,0.0,0.0,0.0,0.0,0.0,0.0,0.0,0.0,0.0,-0.9384,-1.0216,-1.0464,-1.0487,0.0,0.0,0.0,-0.9552,0.0,0.0,-0.9151,-0.9514,-0.9457,-0.9137,-0.9071,-0.9023,-0.8962,0.0,0.0,0.0,0.0,0.0,0.0,0.0,0.0,0.0,0.0,0.0,0.0,0.0,-0.9303,-0.9322,-0.8949,0.0,0.0,0.0,0.0,0.0,0.0,0.0,0.0,0.0,0.0,0.0,0.0,0.0,0.0,0.0,0.0,0.0,0.0,0.0,0.0,0.0,0.0,0.0,-3.0991,-3.0363,-2.9793,-2.9472,-2.9389,-2.9212,-2.8886,-2.8886,-2.8886,-2.8886,-2.8886,-2.909,-2.9515,-3.0245,-3.1219,-3.2608,-3.3091,-3.3708,-3.4458,-3.3547,-3.2912,-3.2819,-3.2505,-3.267,-3.3015,-3.3116,-3.2905,-3.289,-3.3375,-3.3227,-3.267,-3.2732,-3.2386,-3.1843,0.0,0.0,0.0,0.0,0.0,0.0,0.0,0.0,0.0,0.0,0.0,0.0,0.0,0.0,0.0,0.0,0.0,0.0,0.0,0.0,0.0,0.0,0.0,0.0,0.0,-0.9014,-0.9275,0.0,0.0,0.0,0.0,0.0,0.0,-0.9504,0.0,-0.9505,-0.9173,-0.937,-0.9275,-0.8923,-0.9031,-0.8965,-0.887,0.0,0.0,0.0,0.0,0.0,0.0,0.0,0.0,0.0,0.0,0.0,0.0,0.0,-0.9248,-0.9432,-0.8952,0.0,0.0,0.0,0.0,0.0,0.0,0.0,0.0,0.0,0.0,0.0,0.0,0.0,0.0,0.0,0.0,0.0,0.0,0.0,0.0,0.0,0.0,0.0,-3.1259,-3.0759,-3.041,-3.0081,-3.013,-2.9992,-2.9353,-2.9508,-2.9353,-2.8886,-2.8886,-2.9047,-2.9369,-3.0186,-3.1174,-3.2305,-3.3012,-3.366,-3.4441,-3.3742,-3.327,-3.2999,-3.252,-3.2174,-3.2309,-3.3132,-3.3265,-3.289,-3.3656,-3.336,-3.285,-3.2897,-3.2716,-3.2174,0.0,0.0,0.0,0.0,0.0,0.0,0.0,0.0,0.0,0.0,0.0,0.0,0.0,0.0,0.0,0.0,0.0,0.0,0.0,0.0,0.0,0.0,0.0,0.0,0.0,0.0,0.0,0.0,0.0,0.0,0.0,0.0,-0.9312,-0.9422,0.0,-0.9533,-0.9362,-0.8987,-0.8812,-0.8725,-0.8783,-0.8831,-0.8873,-0.8583,0.0,0.0,0.0,0.0,0.0,0.0,0.0,0.0,0.0,0.0,0.0,-0.9406,-0.9659,-0.9829,0.0,0.0,0.0,0.0,0.0,0.0,0.0,0.0,0.0,0.0,0.0,0.0,0.0,0.0,0.0,0.0,0.0,0.0,-2.8005,0.0,0.0,0.0,0.0,-3.092,-3.0904,-3.0958,-3.0872,-3.0728,-3.1077,-3.095,-3.0268,-3.0408,-3.0114,-2.9086,-2.9056,-2.9032,-2.9339,-3.0141,-3.1113,-3.2211,-3.2582,-3.3241,-3.4018,-3.405,-3.3772,-3.3328,-3.2535,-3.2009,-3.1753,-3.2936,-3.3249,-3.2874,-3.3296,-3.3281,-3.289,-3.2474,-3.2339,-3.2339,0.0,0.0,0.0,0.0,0.0,0.0,0.0,0.0,0.0,0.0,0.0,0.0,0.0,0.0,0.0,0.0,0.0,0.0,0.0,0.0,0.0,0.0,0.0,0.0,0.0,0.0,0.0,0.0,0.0,0.0,0.0,0.0,0.0,-0.9392,0.0,-0.8933,-0.9087,-0.8965,-0.8714,-0.8353,-0.8576,-0.8386,-0.7973,-0.7811,-0.7769,0.0,0.0,0.0,0.0,0.0,0.0,0.0,0.0,-0.9921,-0.9679,-0.9864,-0.963,0.0,0.0,0.0,0.0,0.0,0.0,0.0,0.0,0.0,0.0,0.0,0.0,0.0,0.0,0.0,0.0,0.0,0.0,0.0,0.0,0.0,0.0,0.0,0.0,-3.1111,-3.1395,-3.0871,-3.0389,-3.0453,-3.0134,-3.026,-3.0562,-3.0498,-3.03,-3.0369,-2.9658,-2.9412,-2.9472,-2.9972,-3.0642,-3.1495,-3.2235,-3.2793,-3.3323,-3.3226,-3.298,-3.2535,-3.2582,-3.2551,-3.2639,-3.3312,-3.3397,-3.3301,-3.3429,-3.3476,-3.3296,-3.3312,-3.3164,-3.3164,0.0,0.0,0.0,0.0,0.0,0.0,0.0,0.0,0.0,0.0,0.0,0.0,0.0,0.0,0.0,0.0,0.0,0.0,0.0,0.0,0.0,0.0,0.0,0.0,0.0,0.0,0.0,0.0,0.0,0.0,0.0,0.0,0.0,-0.9324,0.0,-0.8649,-0.8661,-0.8546,-0.8333,-0.805,-0.8312,-0.8222,-0.7948,-0.7709,-0.7687,-0.77,-0.7644,0.0,0.0,0.0,0.0,0.0,0.0,0.0,-0.9814,-1.0349,-1.016,-0.9838,0.0,0.0,0.0,0.0,0.0,0.0,0.0,0.0,0.0,0.0,0.0,0.0,0.0,0.0,0.0,0.0,0.0,0.0,0.0,0.0,-2.8547,-2.9728,-3.0299,-3.0567,-3.0993,-3.0607,-3.05,-3.0663,-3.0843,-3.0824,-3.0788,-3.0934,-3.0788,-3.0076,-2.9925,-2.9679,-2.9212,-3.0166,-3.0805,-3.0963,-3.2031,-3.2523,-3.2761,-3.2825,-3.267,-3.2263,-3.252,-3.2685,-3.2772,-3.3296,-3.3444,-3.3544,-3.3772,-3.364,-3.3492,-3.3492,-3.3492,-3.3492,0.0,0.0,0.0,0.0,0.0,0.0,0.0,0.0,0.0,0.0,0.0,0.0,0.0,0.0,0.0,0.0,0.0,0.0,0.0,0.0,0.0,0.0,0.0,0.0,0.0,0.0,0.0,0.0,0.0,0.0,0.0,0.0,0.0,-0.9367,0.0,-0.8599,-0.8445,-0.8109,-0.7983,-0.7858,-0.8058,-0.8136,-0.8125,-0.7746,-0.7765,-0.7914,-0.7736,-0.8067,-0.8595,-0.8629,0.0,0.0,0.0,0.0,-1.0143,-1.0866,-1.0791,-1.0437,0.0,0.0,0.0,0.0,0.0,0.0,0.0,0.0,0.0,0.0,0.0,0.0,0.0,0.0,0.0,0.0,0.0,0.0,0.0,0.0,-2.8496,-2.9154,-2.9728,-3.0157,-3.0442,-3.0299,-3.0414,-3.0854,-3.1447,-3.1622,-3.0878,-3.1511,-3.1086,-2.9664,-2.9834,-2.9664,-2.9042,-3.0263,-3.087,-3.0729,-3.1779,-3.2158,-3.2203,-3.2569,-3.2576,-3.2282,-3.2242,-3.2453,-3.2975,-3.3201,-3.3429,-3.364,-3.3968,-3.3852,-3.3572,-3.3508,-3.3524,-3.3572,0.0,0.0,0.0,0.0,0.0,0.0,0.0,0.0,0.0,0.0,0.0,0.0,0.0,0.0,0.0,0.0,0.0,0.0,-0.8232,0.0,0.0,-0.8667,-0.8602,-0.8521,0.0,0.0,0.0,0.0,0.0,0.0,0.0,0.0,0.0,-0.99,0.0,0.0,-0.8986,-0.8581,-0.8129,-0.7763,-0.7939,-0.7857,-0.7568,-0.734,-0.7519,-0.7795,-0.7617,-0.8017,-0.8618,-0.8642,-0.9148,0.0,0.0,0.0,-1.0835,-1.1404,-1.1053,0.0,0.0,0.0,0.0,0.0,0.0,0.0,0.0,0.0,0.0,0.0,0.0,0.0,0.0,0.0,0.0,0.0,0.0,0.0,0.0,0.0,-2.8742,-2.9186,-2.9871,-3.0299,-3.0442,-3.0157,-3.0014,-3.0063,-3.0365,-3.0533,-3.0511,-3.0856,-3.0712,-3.0129,-2.9834,-2.9523,-2.9368,-2.9568,-3.0065,-3.0856,-3.1352,-3.1506,-3.1506,-3.1842,-3.2095,-3.2459,-3.2316,-3.2746,-3.3484,-3.3177,-3.3369,-3.3968,-3.364,-3.3667,-3.3905,-3.3603,-3.3683,-3.3905,0.0,0.0,0.0,0.0,0.0,0.0,0.0,0.0,0.0,0.0,0.0,0.0,0.0,0.0,0.0,-0.7273,-0.7704,-0.8164,-0.856,-0.8873,-0.9033,-0.8886,-0.8724,-0.8602,-0.8602,0.0,0.0,0.0,0.0,0.0,0.0,-0.8962,-0.9248,0.0,0.0,0.0,0.0,-0.9098,-0.8627,-0.795,-0.8078,-0.8118,-0.8068,-0.8068,-0.7936,-0.7834,-0.8555,-0.8748,-0.8786,-0.9811,-0.9974,-0.9823,-1.036,0.0,0.0,0.0,-1.1535,0.0,0.0,0.0,0.0,0.0,0.0,0.0,0.0,0.0,0.0,0.0,0.0,0.0,0.0,0.0,0.0,0.0,0.0,0.0,0.0,0.0,-2.8795,-2.9132,-2.9234,-2.9154,-2.8854,-2.8884,-2.8916,-2.8996,-2.9456,-3.0034,-3.0759,-3.0451,-3.0213,-3.0298,-3.0023,-2.9716,-2.9254,-2.9868,-3.0408,-3.0732,-3.1225,-3.1395,-3.1395,-3.1601,-3.1868,-3.2103,-3.2299,-3.2714,-3.3275,-3.3113,-3.3321,-3.3804,-3.3656,-3.373,-3.4064,-3.4173,-3.4039,-3.3985,0.0,0.0,0.0,0.0,0.0,0.0,0.0,0.0,0.0,0.0,0.0,0.0,0.0,0.0,0.0,0.0,-0.7757,-0.8344,-0.9038,-0.9286,-0.9288,-0.9065,-0.8889,-0.8783,-0.8643,0.0,0.0,0.0,0.0,0.0,-0.9186,-0.8909,-0.9163,0.0,-0.9827,0.0,0.0,0.0,0.0,-0.8444,-0.8836,-0.8844,-0.8855,-0.9627,-0.9247,-0.8448,-1.0035,-0.9981,-0.9458,-1.0901,-1.0932,-1.0294,-1.0825,-1.0834,0.0,0.0,0.0,0.0,0.0,0.0,0.0,0.0,0.0,0.0,0.0,0.0,0.0,0.0,0.0,0.0,0.0,0.0,0.0,0.0,0.0,0.0,0.0,0.0,-2.88,-2.9049,-2.871,-2.8208,-2.8067,-2.8233,-2.8249,-2.8084,-2.8901,-2.9488,-2.9933,-2.9723,-2.9602,-2.9652,-2.9926,-2.9716,-2.9168,-3.0269,-3.0685,-3.0422,-3.1008,-3.1379,-3.1209,-3.1379,-3.1565,-3.1783,-3.2123,-3.2491,-3.2746,-3.2858,-3.3031,-3.346,-3.3544,-3.3832,-3.4263,-3.4585,-3.4419,-3.4167,0.0,0.0,0.0,0.0,0.0,0.0,0.0,0.0,0.0,0.0,0.0,0.0,-0.6842,-0.6915,-0.7147,-0.7537,-0.813,-0.882,-0.9591,-0.9664,-0.9524,-0.9226,-0.9182,0.0,-0.8414,0.0,0.0,0.0,0.0,0.0,-0.8545,-0.8427,-0.8847,-0.9713,-1.0315,-0.9888,-0.877,0.0,0.0,0.0,0.0,-1.0354,-0.9764,-1.2385,-1.1922,-1.0029,-1.1887,-1.1804,-1.0941,-1.1535,-1.1774,-1.1591,-1.1066,-1.1215,-1.1671,0.0,0.0,0.0,0.0,0.0,0.0,0.0,0.0,0.0,0.0,0.0,0.0,0.0,0.0,0.0,0.0,0.0,0.0,0.0,0.0,0.0,0.0,0.0,-2.8738,-2.8722,-2.8696,-2.8773,-2.8773,-2.9091,-2.8869,-2.7772,-2.8775,-2.8725,-2.7432,-2.8588,-2.8943,-2.8088,-2.885,-2.9305,-2.9716,-3.0361,-3.0238,-2.906,-3.0607,-3.1209,-3.0839,-3.1209,-3.1395,-3.1395,-3.1799,-3.2001,-3.2049,-3.2344,-3.2682,-3.3053,-3.3403,-3.405,-3.4649,-3.4785,-3.4719,-3.4633,0.0,0.0,0.0,0.0,0.0,0.0,0.0,0.0,0.0,0.0,0.0,0.0,0.0,-0.7617,-0.7669,-0.7894,-0.8353,-0.8891,-0.9549,-0.9487,-0.9452,-0.9534,-0.9248,-0.906,-0.8996,0.0,0.0,0.0,0.0,-0.768,-0.8348,-0.8151,-0.8433,-0.91,-0.9653,-0.9834,-0.9766,-1.0409,0.0,0.0,0.0,0.0,0.0,-1.2224,-1.1206,-1.058,-1.1903,-1.2687,-1.3061,-1.3603,-1.3733,-1.3422,-1.2674,-1.2637,-1.2965,-1.3114,-1.3764,0.0,0.0,0.0,0.0,0.0,0.0,0.0,0.0,0.0,0.0,0.0,0.0,0.0,0.0,0.0,0.0,0.0,0.0,0.0,0.0,0.0,-2.9089,-2.9003,-2.8694,-2.835,-2.8067,-2.8377,-2.8284,-2.7741,-2.8459,-2.8932,-2.8964,-2.8898,-2.8987,-2.919,-2.9183,-2.9454,-3.014,-3.034,-3.0363,-3.0228,-3.0719,-3.1093,-3.1209,-3.1379,-3.1565,-3.1766,-3.1936,-3.2074,-3.2332,-3.2731,-3.2895,-3.3002,-3.3516,-3.3742,-3.4013,-3.4587,-3.4552,-3.4333,0.0,0.0,0.0,0.0,0.0,0.0,0.0,0.0,0.0,0.0,0.0,0.0,0.0,0.0,-0.7945,-0.8227,-0.8735,-0.9178,-0.9546,-0.9523,-0.9589,-0.9761,-0.9436,-0.9203,-0.9128,0.0,0.0,0.0,0.0,0.0,0.0,-0.7828,-0.8,-0.8641,-0.9047,-0.9485,0.0,0.0,0.0,-1.0443,0.0,0.0,-1.5025,-1.3335,-1.2422,-1.2314,-1.4037,-1.4678,-1.496,-1.5644,-1.5693,-1.5206,-1.422,-1.3915,-1.3922,-1.3783,-1.4542,0.0,0.0,0.0,0.0,0.0,0.0,0.0,0.0,0.0,0.0,0.0,0.0,0.0,0.0,0.0,0.0,0.0,0.0,0.0,0.0,0.0,0.0,-2.9439,-2.8727,-2.8225,-2.8193,-2.8268,-2.816,-2.7741,-2.8317,0.0,-2.9123,-2.8932,-2.8945,-2.9615,-2.9356,-2.9435,-2.9676,-3.0039,-3.0112,-3.0056,-3.0656,-3.0941,-3.1055,-3.1225,-3.1565,-3.1766,-3.1766,-3.1993,-3.2337,-3.2621,-3.2698,-3.2888,-3.3334,-3.3565,-3.3884,-3.4571,-3.4487,-3.4157,0.0,0.0,0.0,0.0,0.0,0.0,0.0,0.0,0.0,0.0,0.0,0.0,0.0,0.0,0.0,-0.8569,-0.926,-0.9692,-0.9692,-0.9798,-0.9864,-0.9881,-0.9739,-0.9387,-0.8801,0.0,0.0,0.0,0.0,0.0,0.0,0.0,-0.7655,-0.8382,-0.8529,-0.8875,-0.9346,0.0,-1.091,-1.1222,0.0,-1.2516,-1.4008,-1.6171,-1.6046,-1.5188,-1.8122,-1.802,-1.6551,-1.7425,-1.7425,-1.6838,-1.5482,-1.4863,-1.4705,-1.4101,-1.495,-1.6313,0.0,0.0,0.0,0.0,0.0,0.0,0.0,0.0,0.0,0.0,0.0,0.0,0.0,0.0,0.0,0.0,0.0,0.0,0.0,0.0,0.0,-2.9806,-2.8927,-2.8515,-2.9163,-2.9055,-2.849,-2.7741,-2.8317,-2.8408,-2.7798,-2.8377,-2.8851,-2.9298,-2.9361,-2.9117,-2.8694,-2.9409,-2.9245,-2.8522,-3.0099,-3.0562,-3.0238,-3.1055,-3.1395,-3.1395,-3.1395,-3.159,-3.2021,-3.1983,-3.2152,-3.2489,-3.2878,-3.3532,-3.4212,-3.4653,-3.4458,-3.4131,0.0,0.0,0.0,0.0,0.0,0.0,0.0,0.0,0.0,0.0,0.0,0.0,0.0,-0.9014,-0.9055,-0.924,-0.942,-0.9534,-0.9534,-0.9587,-0.9657,-0.9771,-0.9542,-0.9269,-0.8959,0.0,0.0,0.0,0.0,0.0,0.0,0.0,0.0,0.0,-0.808,-0.8641,-0.9301,-0.9886,0.0,-1.1191,-1.1467,-1.2756,0.0,0.0,-1.5366,-1.6126,-1.7563,-1.8109,-1.8402,-1.9155,-1.9404,-1.9207,-1.7698,-1.6879,-1.6565,-1.6728,-1.7654,-1.8799,-1.9557,0.0,0.0,0.0,0.0,0.0,0.0,0.0,0.0,0.0,0.0,0.0,0.0,0.0,0.0,0.0,0.0,0.0,0.0,0.0,0.0,-2.9466,-2.8938,-2.8793,-2.9304,-2.9196,-2.9023,0.0,-2.8901,-2.8996,-2.8507,-2.8964,-2.9154,-2.9298,-2.9314,-2.9425,-2.9615,-2.9702,-2.9813,-2.9802,-3.0274,-3.0458,-3.0685,-3.087,-3.1379,-3.1766,-3.1565,-3.1597,-3.1969,-3.2074,-3.2178,-3.267,-3.2943,-3.3208,-3.3307,-3.379,-3.3804,-3.364,0.0,0.0,0.0,0.0,0.0,0.0,0.0,0.0,0.0,0.0,0.0,0.0,0.0,0.0,-0.9469,-0.9612,-0.9534,-0.9549,-0.969,-0.9593,-0.9588,-0.9638,-0.9351,-0.9132,-0.9001,0.0,0.0,0.0,0.0,0.0,0.0,0.0,0.0,0.0,0.0,0.0,0.0,0.0,0.0,0.0,-1.1763,0.0,0.0,-1.5384,-1.6045,-1.7104,-1.8884,-1.965,-1.9987,-2.0982,-2.1141,-2.0903,-1.9713,-1.9112,-1.8823,-1.9182,-1.9891,-2.0804,-2.2378,-2.3125,0.0,0.0,0.0,0.0,-2.7352,-2.7996,-2.8455,0.0,0.0,0.0,0.0,0.0,0.0,0.0,0.0,0.0,0.0,0.0,0.0,-2.9126,-2.8939,-2.8946,-2.9005,-2.9028,-2.9035,-2.9039,-2.9248,-2.928,-2.9071,-2.9248,-2.9424,-2.9552,-2.9568,-2.9713,-2.984,-2.9834,-2.9866,-2.9952,-3.0112,-3.0267,-3.0395,-3.0694,-3.1157,-3.1542,-3.1194,-3.1304,-3.1708,-3.1783,-3.192,-3.2446,-3.2646,-3.2809,-3.2986,-3.3433,-3.3492,-3.3492,0.0,0.0,0.0,0.0,0.0,0.0,0.0,0.0,0.0,0.0,0.0,0.0,0.0,0.0,0.0,-0.9891,-0.9707,-0.9743,-1.003,-0.9783,-0.9611,-0.9611,-0.9256,-0.9058,-0.9004,0.0,0.0,0.0,0.0,0.0,0.0,0.0,0.0,0.0,0.0,0.0,0.0,0.0,0.0,-1.1517,-1.2363,-1.3581,0.0,0.0,-1.7708,-1.8231,-2.1365,-2.201,-2.1619,-2.2862,-2.2807,-2.2117,-2.1723,-2.1406,-2.1262,-2.1572,-2.1805,-2.2597,-2.5017,-2.535,-2.539,-2.6623,-2.7321,0.0,-2.8837,-2.9048,-2.9201,-2.9738,0.0,0.0,0.0,0.0,0.0,0.0,0.0,0.0,0.0,0.0,0.0,0.0,-2.882,-2.8859,-2.8807,-2.8832,-2.9021,-2.9255,-2.9304,-2.9304,-2.9304,-2.9304,-2.9433,-2.9835,-2.99,-2.9857,-2.9806,-2.9828,-2.9649,-2.932,-2.9978,-3.0127,-2.9838,-3.0607,-3.0942,-3.1022,-3.0898,-3.1209,-3.1549,-3.1581,-3.1799,-3.222,-3.2347,-3.2714,-3.3146,-3.3465,-3.346,-3.3429,-0.7875,0.0,0.0,0.0,0.0,0.0,0.0,0.0,0.0,0.0,0.0,0.0,0.0,0.0,0.0,-1.0579,-1.0302,-1.0163,-1.0221,-0.9939,-0.9726,-0.9613,-0.9442,-0.9227,-0.8985,-0.887,0.0,0.0,0.0,0.0,0.0,0.0,0.0,0.0,0.0,0.0,0.0,0.0,0.0,-1.2581,-1.3248,-1.4384,-1.5955,-1.8456,-1.9824,-2.0669,-2.2506,-2.3417,-2.3915,-2.4901,-2.5143,-2.4756,-2.3969,-2.3658,-2.3536,-2.3779,-2.4252,-2.4842,-2.5534,-2.6334,-2.7141,-2.7434,-2.8077,0.0,-2.9007,-2.9844,-3.0537,0.0,0.0,0.0,0.0,0.0,0.0,0.0,0.0,0.0,0.0,0.0,0.0,0.0,-2.8926,-2.8821,-2.9144,-2.9261,-2.9191,-2.9297,-2.9045,-2.8847,-2.8847,-2.8847,-2.8922,-2.8947,-2.9535,-2.9839,-2.9946,-3.013,-3.0034,-2.9824,-3.0114,-3.0389,-3.026,-3.0827,-3.1203,-3.1776,-3.1841,-3.2037,-3.2315,-3.2301,-3.2602,-3.2961,-3.29,-3.3094,-3.3542,-3.3579,-3.3301,-3.3257,-0.7752,0.0,0.0,0.0,0.0,0.0,0.0,0.0,0.0,0.0,0.0,0.0,0.0,0.0,0.0,-1.1033,-1.0981,-1.0882,-1.0746,-1.0774,-1.0478,-0.9794,-0.9603,-0.9419,-0.9091,-0.8915,0.0,0.0,0.0,0.0,0.0,0.0,0.0,0.0,0.0,0.0,0.0,0.0,-1.2814,-1.47,-1.3723,0.0,-1.6138,-1.8826,-2.0643,-2.2032,-2.3166,-2.4595,-2.5906,-2.6511,-2.6468,-2.6087,-2.5411,-2.5367,-2.5467,-2.5397,-2.5957,-2.6833,-2.747,-2.8321,-2.9089,-2.943,-2.9986,0.0,0.0,-3.105,-3.15,-3.125,0.0,0.0,0.0,0.0,0.0,0.0,0.0,0.0,0.0,0.0,0.0,0.0,-2.8782,-2.8673,-2.7944,-2.8517,-2.8871,-2.9043,-2.8484,-2.8494,-2.9012,-2.9028,-2.9133,-2.9323,-2.9917,-3.0119,-2.9921,-3.025,-3.0193,-2.9585,-3.0082,-3.0308,-3.013,-3.0743,-3.1168,-3.1531,-3.1612,-3.1874,-3.2357,-3.2413,-3.31,-3.3619,-3.3192,-3.3337,-3.3722,-3.3611,-3.3528,-3.3563,-0.7736,0.0,0.0,0.0,0.0,0.0,0.0,0.0,0.0,0.0,0.0,0.0,0.0,0.0,0.0,-1.1731,-1.1995,-1.2026,-1.1614,-1.1791,-1.1464,-1.0484,-1.0123,-0.9854,-0.9602,-0.9248,-0.915,0.0,0.0,0.0,0.0,0.0,0.0,0.0,0.0,0.0,0.0,0.0,0.0,-1.7272,0.0,-1.5332,-1.7089,-1.9789,-2.1727,-2.3242,-2.4355,-2.6056,-2.7659,-2.8015,-2.7875,-2.7431,-2.6738,-2.6853,-2.7067,-2.6744,-2.7395,-2.8429,-2.9415,-3.0111,-3.0779,-3.1329,-3.1938,-3.2211,0.0,0.0,0.0,0.0,0.0,0.0,0.0,0.0,0.0,0.0,0.0,0.0,0.0,0.0,0.0,0.0,-2.861,-2.8465,-2.7047,-2.7727,-2.8299,-2.8432,-2.79,-2.7914,-2.891,-2.9044,-2.9194,-2.9512,-2.9915,-3.0071,-2.9705,-3.0078,-2.99,-2.9345,-2.9986,-3.0179,-2.9968,-3.0694,-3.1148,-3.1247,-3.1481,-3.1926,-3.2259,-3.2674,-3.3409,-3.4374,-3.3546,-3.3371,-3.379,-3.3676,-3.3756,-3.4197,-0.8451,-0.8186,0.0,0.0,0.0,0.0,0.0,0.0,0.0,0.0,0.0,0.0,0.0,-1.3128,-1.3369,-1.3418,-1.3881,-1.3817,-1.3037,-1.249,-1.2209,-1.2363,-1.1339,-1.0917,-1.1134,-1.0685,-1.0368,-1.0268,0.0,0.0,0.0,0.0,0.0,0.0,-1.2293,0.0,0.0,0.0,-1.6332,0.0,-2.0135,-2.024,0.0,-2.3379,-2.4771,-2.5591,-2.7885,-2.8989,-2.9532,-3.0,-3.0178,-3.0098,-2.8348,-2.809,-2.8542,-2.8395,-2.8663,-2.9217,-3.0013,-3.0866,-3.1623,-3.2111,-3.2363,-3.2712,-3.3069,0.0,-3.3394,-3.3394,0.0,0.0,0.0,0.0,0.0,0.0,0.0,0.0,0.0,0.0,0.0,-2.9244,-2.8908,-2.867,-2.8363,-2.7839,-2.7669,-2.7644,-2.7289,-2.7263,-2.7682,-2.7771,-2.7942,-2.7959,-2.8895,-2.9321,-2.8992,-2.9589,-2.9682,-2.926,-2.9757,-3.0065,-3.0341,-3.0809,-3.1297,-3.207,-3.2341,-3.2824,-3.3174,-3.3415,-3.4108,-3.481,-3.3918,-3.3799,-3.4288,-3.4164,-3.4083,-3.4338,-0.8839,-0.8741,0.0,0.0,0.0,0.0,0.0,0.0,0.0,0.0,0.0,0.0,-1.3737,-1.3796,-1.3985,-1.4825,-1.5534,-1.548,-1.4354,-1.4588,-1.4602,-1.413,-1.316,-1.2696,-1.3033,-1.2052,-1.1462,-1.1369,-1.0836,0.0,0.0,0.0,0.0,0.0,-1.32,0.0,-1.7858,0.0,-1.8831,0.0,0.0,0.0,0.0,-2.4461,-2.5008,-2.6478,-2.9246,-3.0371,-3.0665,-3.1236,-3.1285,-3.1069,-2.9615,-2.974,-3.0394,-3.0021,-3.046,-3.1265,-3.2023,-3.2829,-3.3387,-3.3309,-3.3579,-3.3933,-3.3613,-3.376,-3.3983,-3.374,0.0,0.0,0.0,0.0,0.0,0.0,-3.2238,0.0,0.0,0.0,-2.9813,0.0,0.0,0.0,-2.8365,-2.7619,-2.7251,-2.7628,-2.6901,-2.6777,-2.768,-2.725,-2.7303,-2.771,-2.8332,-2.8799,-2.879,-2.9328,-2.9468,-2.9336,-2.9905,-3.0293,-3.0385,-3.1086,-3.1718,-3.2381,-3.2335,-3.2918,-3.3603,-3.3534,-3.3975,-3.4659,-3.4256,-3.4375,-3.4892,-3.4571,-3.4847,-3.5375,-0.9658,0.0,0.0,0.0,0.0,0.0,0.0,0.0,0.0,0.0,0.0,0.0,-1.5174,-1.5204,-1.5486,-1.6556,-1.7499,-1.761,-1.6484,-1.6718,-1.6828,-1.6621,-1.5328,-1.4907,-1.5419,-1.4062,-1.332,-1.3196,0.0,0.0,0.0,0.0,0.0,0.0,0.0,-1.6055,-1.8854,0.0,-2.1243,-2.4986,-2.509,-2.6298,-2.7855,-2.6199,-2.6194,-2.755,-3.0308,-3.1399,-3.1496,-3.2341,-3.252,-3.221,-3.1193,-3.1169,-3.16,-3.1271,-3.2151,-3.3198,-3.3633,-3.4274,-3.4724,-3.4398,-3.4565,-3.4799,-3.4282,-3.4309,-3.439,-3.4146,-3.3875,0.0,0.0,0.0,-3.3317,-3.2529,0.0,-3.2038,0.0,-3.0726,0.0,0.0,0.0,0.0,0.0,-2.7279,-2.6892,-2.7243,-2.6444,-2.6276,-2.7003,-2.6594,-2.6594,-2.7158,-2.757,-2.7956,-2.8064,-2.8577,-2.8956,-2.9045,-2.9921,-3.041,-3.059,-3.1287,-3.1919,-3.2584,-3.238,-3.2799,-3.3596,-3.3464,-3.389,-3.4573,-3.4382,-3.4874,-3.5646,-3.5204,-3.5595,-3.6402,-1.1198,-1.1022,0.0,0.0,0.0,0.0,0.0,0.0,0.0,0.0,0.0,0.0,-1.7428,-1.8361,-1.8804,-1.8851,-1.9975,-2.0487,-1.9836,-1.8471,-1.845,-2.0197,-1.8039,-1.726,-1.8385,-1.708,-1.6159,-1.5846,0.0,0.0,0.0,0.0,0.0,0.0,0.0,-1.7182,-1.9744,-2.0542,-2.3103,-2.6661,-2.7761,-2.9093,-3.0309,0.0,-2.9453,-2.9505,-3.1817,-3.247,-3.2326,-3.3403,-3.4092,-3.4162,-3.3029,-3.213,-3.1657,-3.2017,-3.3345,-3.4359,-3.3811,-3.4528,-3.5367,-3.5159,-3.4873,-3.4704,-3.4919,-3.4881,-3.4734,-3.4613,-3.4601,-3.424,-3.3568,-3.3455,-3.3332,-3.2976,-3.2125,0.0,0.0,0.0,0.0,0.0,0.0,0.0,0.0,-2.6895,-2.6428,-2.6153,-2.5591,-2.5266,-2.5238,-2.5622,-2.5746,-2.5668,-2.6323,-2.6689,-2.6647,-2.7374,-2.7911,-2.83,-2.9412,-3.026,-3.0953,-3.1404,-3.1733,-3.2103,-3.249,-3.2753,-3.2758,-3.3528,-3.4212,-3.4999,-3.4538,-3.5106,-3.6199,-3.6143,-3.6402,-3.6867,0.0,0.0,0.0,0.0,0.0,0.0,0.0,-1.2352,0.0,0.0,-1.4531,-1.5908,-1.9093,-1.9687,-2.0273,-2.1377,-2.1408,-2.1389,-2.1489,-2.0601,-2.0716,-2.2271,-2.0988,-2.0527,-2.1295,-1.9672,-1.9,-1.9275,0.0,0.0,0.0,0.0,0.0,0.0,0.0,-1.8222,0.0,0.0,0.0,0.0,0.0,-3.0443,-3.0446,0.0,-3.1928,-3.2928,-3.2304,-3.2714,-3.3752,-3.4443,-3.49,-3.5085,-3.4658,-3.4337,-3.4378,-3.5045,-3.568,-3.6119,-3.6402,-3.6838,-3.7199,-3.6603,-3.6426,-3.6432,-3.5997,-3.5947,-3.581,-3.5067,-3.482,-3.4409,-3.2987,-3.3128,-3.3017,-3.1975,-3.2007,-3.1912,0.0,0.0,0.0,0.0,0.0,0.0,0.0,0.0,-2.6948,-2.5582,-2.5586,-2.5309,-2.484,-2.4841,-2.5179,-2.5761,-2.6449,-2.7219,-2.7671,-2.8454,-2.9091,-2.9597,-3.0242,-3.115,-3.2014,-3.1872,-3.2377,-3.3256,-3.257,-3.2724,-3.3526,-3.3506,-3.3683,-3.4194,-3.4588,-3.5086,-3.5449,-3.6219,-3.6817,-3.7327,-1.4467,0.0,0.0,0.0,0.0,0.0,0.0,0.0,0.0,0.0,-1.658,-1.7956,-2.0888,-2.1459,-2.1974,-2.3187,-2.3029,-2.3098,-2.3422,-2.2384,-2.255,-2.4389,-2.3187,-2.3037,-2.4118,-2.2632,-2.1979,-2.2076,-1.9765,-1.8964,0.0,0.0,0.0,0.0,0.0,-1.907,-2.0917,-2.3541,-2.5554,0.0,0.0,-3.1917,0.0,0.0,-3.2913,-3.3535,0.0,-3.3517,-3.4539,-3.5217,-3.5785,-3.6153,-3.599,-3.5921,-3.6017,-3.6791,-3.7276,-3.7364,-3.7598,-3.7908,-3.798,-3.724,-3.7156,-3.7061,-3.6187,-3.6305,-3.6142,-3.5169,-3.4923,-3.4613,-3.3414,-3.3479,-3.3341,-3.2127,-3.2243,-3.1912,0.0,-2.9701,-2.9409,-2.9139,0.0,0.0,0.0,-2.7772,-2.7035,-2.5658,-2.5273,-2.4868,0.0,-2.4456,-2.4872,-2.5503,-2.6453,-2.7378,-2.8264,-2.8742,-2.9299,-3.0188,-3.0723,-3.1436,-3.2453,-3.2473,-3.2897,-3.3497,-3.2954,-3.3033,-3.3526,-3.3506,-3.3614,-3.4005,-3.4702,-3.5094,-3.5334,-3.6421,-3.7126,-3.7777,-1.4768,-1.4209,0.0,0.0,-1.3856,0.0,0.0,0.0,-1.7533,0.0,-1.9691,-2.0864,-2.2955,-2.3459,-2.3809,-2.4254,-2.4857,-2.5306,-2.5657,-2.3948,-2.4074,-2.6635,-2.4983,-2.4936,-2.6872,-2.5814,-2.5054,-2.4433,-2.2356,0.0,0.0,0.0,0.0,0.0,-1.9305,0.0,-2.1099,-2.4053,-2.6165,-2.7789,-3.1598,-3.3329,-3.3726,-3.3925,-3.2858,-3.1504,-3.4181,-3.4938,-3.4689,-3.5921,-3.6751,-3.7338,-3.6971,-3.6485,-3.6412,-3.7239,-3.8006,-3.8437,-3.7692,-3.7656,-3.7828,-3.736,-3.7084,-3.6779,-3.6029,-3.5873,-3.579,-3.5128,-3.5039,-3.5015,-3.4693,-3.4547,-3.3968,-3.2992,-3.2705,-3.193,-3.0119,-2.9645,-2.9263,-2.8524,-2.8833,-2.8976,-2.868,-2.7572,-2.663,-2.5932,-2.489,-2.3975,0.0,-2.4218,-2.4732,-2.5011,-2.5984,-2.716,-2.828,-2.8348,-2.8793,-2.9752,-3.0619,-3.1354,-3.2063,-3.2923,-3.3055,-3.2715,-3.3482,-3.3457,-3.2741,-3.3528,-3.4005,-3.4476,-3.4892,-3.5324,-3.5695,-3.6507,-3.7376,-3.8108,-1.6845,-1.5909,-1.5151,0.0,-1.4812,-1.4808,0.0,0.0,0.0,0.0,-1.9831,-2.0954,-2.396,-2.4533,-2.5107,-2.6315,-2.5843,-2.5865,-2.6599,-2.5565,-2.589,-2.7779,-2.6909,-2.7162,-2.9043,-2.6935,-2.652,-2.8052,-2.4114,0.0,-2.3841,0.0,0.0,0.0,0.0,0.0,-2.1889,-2.4003,-2.7036,-3.0609,-3.2712,-3.3508,-3.349,0.0,-3.4198,-3.3863,-3.5778,-3.6238,-3.5809,-3.6417,-3.6806,-3.7026,-3.7209,-3.691,-3.6806,-3.8027,-3.8207,-3.8302,-3.8872,-3.9089,-3.905,-3.8917,-3.8833,-3.8737,-3.8414,-3.8052,-3.7779,-3.6832,-3.6519,-3.6081,-3.4921,-3.4689,-3.4247,-3.2976,-3.1734,-3.0893,-3.053,-2.9864,-2.9287,-2.8887,-2.8551,-2.7986,-2.7013,-2.663,-2.5545,-2.3551,-2.3861,0.0,0.0,0.0,-2.4421,-2.5099,-2.6162,-2.7125,-2.7747,-2.8357,-2.9049,-2.9744,-3.0619,-3.1318,-3.2084,-3.224,-3.2316,-3.2297,-3.2785,-3.2954,-3.2741,-3.3828,-3.4446,-3.4859,-3.5316,-3.5725,-3.6162,-3.6965,-3.7714,-3.8493,-1.8214,-1.6986,0.0,-1.6191,0.0,0.0,-1.7107,-1.7946,0.0,-2.1137,-2.1418,0.0,-2.4857,-2.566,-2.6311,-2.7194,-2.7057,-2.7296,-2.7829,-2.7352,-2.782,-2.945,-2.851,-2.8636,-3.0371,-2.861,-2.8106,-2.8816,-2.5831,0.0,-2.4675,0.0,0.0,0.0,0.0,-2.1767,-2.25,-2.463,-2.7817,-3.1726,-3.3634,-3.404,0.0,-3.5219,-3.5494,-3.5504,-3.6882,-3.7016,-3.6512,-3.6901,-3.7214,-3.7393,-3.7613,-3.7601,-3.7763,-3.8481,-3.8509,-3.834,-3.9011,-3.9129,-3.9149,-3.9163,-3.9155,-3.9087,-3.8887,-3.8629,-3.8241,-3.7478,-3.6912,-3.6328,-3.5624,-3.5046,-3.444,-3.3048,-3.1776,-3.0831,-3.0641,-3.0189,-2.9536,-2.8749,-2.8222,-2.7411,-2.602,-2.5964,-2.5156,-2.3218,-2.3595,0.0,0.0,0.0,-2.4333,-2.4907,-2.6249,-2.7225,-2.78,-2.8668,-2.9287,-2.9708,-3.0633,-3.1246,-3.1774,-3.2384,-3.2524,-3.2456,-3.3321,-3.3471,-3.3275,-3.4329,-3.4953,-3.5322,-3.6111,-3.6497,-3.6824,-3.762,-3.8025,-3.8163,-1.9165,-1.8026,0.0,0.0,0.0,0.0,0.0,-2.0523,0.0,-2.3279,0.0,-2.4451,-2.5927,-2.6874,-2.7442,-2.7605,-2.8459,-2.8939,-2.889,-2.893,-2.9551,-3.0932,-2.9755,-2.971,-3.1186,-3.0361,-2.9492,-2.8799,-2.7388,0.0,0.0,0.0,0.0,0.0,0.0,0.0,0.0,-2.5864,-2.8668,-3.1865,-3.4222,-3.4902,-3.4637,-3.6058,-3.6531,-3.6548,-3.7454,-3.7389,-3.6994,-3.7332,-3.7699,-3.8016,-3.8016,-3.826,-3.8594,-3.8633,-3.8701,-3.8564,-3.8759,-3.8724,-3.8647,-3.8963,-3.901,-3.8793,-3.8699,-3.8333,-3.8073,-3.7701,-3.6887,-3.6263,-3.6357,-3.5437,-3.4362,-3.3508,-3.2369,-3.1423,-3.0811,-3.0618,-2.9884,-2.8411,-2.8005,0.0,-2.5583,-2.5429,-2.5043,-2.3877,-2.3547,0.0,0.0,0.0,-2.4208,-2.482,-2.6082,-2.7138,-2.7957,-2.8759,-2.927,-2.9616,-3.0424,-3.0965,-3.1271,-3.2421,-3.2726,-3.2561,-3.4144,-3.4515,-3.3813,-3.4733,-3.5477,-3.5887,-3.7049,-3.7638,-3.762,-3.8353,-3.8124,-3.7767,-2.0173,0.0,0.0,0.0,0.0,-2.3191,-2.334,-2.3182,-2.382,-2.5763,-2.5965,-2.6503,-2.8027,-2.8458,-2.8777,-2.9435,-2.9633,-2.9583,-2.927,-2.96,-3.002,-3.0623,-3.0388,-3.0903,-3.229,-3.0737,-3.0373,-3.1419,-2.8022,0.0,0.0,0.0,0.0,0.0,0.0,0.0,-2.608,-2.8027,0.0,-3.257,-3.435,-3.5105,-3.5235,-3.6043,-3.666,-3.7222,-3.7035,-3.7073,-3.7314,-3.7818,-3.7939,-3.8016,-3.8328,-3.8378,-3.831,-3.9024,-3.8709,-3.834,-3.9505,-3.9392,-3.9151,-3.9737,-3.9782,-3.9678,-3.9473,-3.9235,-3.8819,-3.8555,-3.7874,-3.7027,-3.6459,-3.5312,-3.443,-3.4424,-3.336,-3.2446,-3.2363,-3.1175,-3.0154,-2.9279,-2.8711,-2.7699,-2.6342,-2.5526,-2.427,-2.2518,0.0,0.0,0.0,0.0,-2.3738,0.0,-2.5622,-2.6303,0.0,0.0,-2.8338,-2.8447,-2.9553,-3.0056,-3.011,-3.0941,-3.1323,-3.1461,-3.3303,-3.3797,-3.3594,-3.5228,-3.6345,-3.7203,-3.7759,-3.8168,-3.8385,-3.818,-3.8291,-3.8465,-2.2007,0.0,0.0,0.0,0.0,0.0,0.0,-2.6875,-2.767,-2.7535,-2.7435,-2.7885,-2.9258,-2.9924,-3.0304,-3.0531,-3.0634,-3.0872,-3.115,-3.1559,-3.2056,-3.2867,-3.2503,-3.2715,-3.3581,-3.2106,-3.151,-3.1823,-2.9504,-2.812,0.0,0.0,0.0,0.0,0.0,-2.6131,0.0,0.0,0.0,-3.2856,-3.4471,-3.5416,-3.588,-3.6783,-3.7179,-3.7519,-3.812,-3.8196,-3.8084,-3.8368,-3.8476,-3.8657,-3.8968,-3.8689,-3.8443,-3.885,-3.8631,-3.8448,-3.9195,-3.8986,-3.8829,-3.9281,-3.9406,-3.9353,-3.9405,-3.921,-3.8814,-3.857,-3.7798,-3.6869,-3.5916,-3.5082,-3.4534,-3.4289,-3.3448,-3.2629,-3.2058,-3.1204,-3.0286,-2.9167,-2.8684,-2.7918,-2.6461,-2.5681,-2.4535,0.0,0.0,0.0,0.0,0.0,-2.301,0.0,0.0,0.0,-2.6416,0.0,-2.8019,-2.849,-2.9613,-3.0403,-3.0746,-3.144,-3.2018,-3.2489,-3.4037,-3.4649,-3.4676,-3.611,-3.7264,-3.781,-3.8732,-3.9024,-3.9012,-3.9273,-3.8981,-3.8732,0.0,-2.3272,0.0,0.0,-2.5218,-2.6703,-2.7866,-3.0013,-3.0991,-2.927,-2.9116,-2.9598,-3.046,-3.1283,-3.1702,-3.1336,-3.1683,-3.221,-3.2772,-3.3247,-3.388,-3.4617,-3.4355,-3.4195,-3.4355,-3.3429,-3.2752,-3.2085,-3.1173,-2.977,0.0,0.0,0.0,0.0,0.0,0.0,0.0,0.0,-3.1801,-3.3393,-3.4929,-3.5743,-3.6234,-3.7345,-3.7868,-3.815,-3.9479,-3.9576,-3.9082,-3.9182,-3.9185,-3.9144,-3.9203,-3.888,-3.8624,-3.8677,-3.8554,-3.8574,-3.8885,-3.8684,-3.8566,-3.8963,-3.8948,-3.8814,-3.9078,-3.8946,-3.8549,-3.8171,-3.7269,-3.6456,-3.5618,-3.5179,-3.4818,-3.4348,-3.3658,-3.2967,-3.2016,-3.1576,-3.0869,-2.943,-2.905,-2.8351,-2.6884,-2.6063,-2.5076,0.0,0.0,0.0,-2.2206,0.0,0.0,0.0,0.0,-2.5121,-2.6394,0.0,-2.8015,-2.9042,-2.9917,-3.0815,-3.1685,-3.2236,-3.2963,-3.3748,-3.4828,-3.5449,-3.5809,-3.6929,-3.7736,-3.8154,-3.9268,-3.9694,-3.9584,-4.0238,-3.985,-3.8981,0.0,0.0,0.0,0.0,0.0,-3.0135,-2.9686,-3.1303,-3.2198,-3.1253,-3.1715,-3.2229,-3.2277,-3.2402,-3.2582,-3.2506,-3.2932,-3.318,-3.3216,-3.3961,-3.412,-3.3464,-3.434,-3.4649,-3.3982,-3.3855,-3.3744,-3.3623,-3.185,-3.0593,0.0,0.0,0.0,0.0,0.0,0.0,0.0,-3.2998,-3.4038,-3.4899,-3.5773,-3.5921,-3.5559,-3.7036,-3.8383,-3.9641,-3.9916,-4.0381,-4.094,-4.0883,-3.9883,-3.8652,-3.8724,-3.8701,-3.8547,-3.8603,-3.8613,-3.8739,-3.965,-3.9151,-3.8705,-3.9675,-3.9374,-3.8681,-3.8681,-3.8681,-3.8549,-3.775,-3.6716,-3.611,-3.6689,-3.5868,-3.526,-3.5745,-3.4964,-3.4126,-3.3943,-3.3075,-3.2118,-3.1285,-3.0486,-2.9692,-2.8855,-2.6896,-2.5609,0.0,-2.4206,0.0,0.0,0.0,0.0,-2.5646,-2.4771,-2.5483,-2.8064,-2.78,-2.8334,-2.9648,-3.018,-3.095,-3.2098,-3.2098,-3.2542,-3.3358,-3.427,-3.5176,-3.6274,-3.7081,-3.7736,-3.8154,-3.8955,-3.9707,-4.0296,-4.004,-3.9883,-3.9651,0.0,0.0,0.0,0.0,0.0,0.0,0.0,-3.2504,-3.3322,-3.3137,-3.32,-3.3468,-3.3593,-3.3866,-3.3975,-3.3762,-3.3964,-3.3947,-3.3997,-3.4595,-3.4755,-3.4722,-3.5376,-3.5521,-3.5358,-3.4976,-3.4792,-3.455,-3.3309,-3.2151,-3.1217,0.0,0.0,0.0,0.0,-3.2637,-3.355,-3.4546,-3.5341,-3.6118,-3.6702,-3.7061,-3.7387,-3.846,-3.9348,-3.9955,-4.0715,-4.1019,-4.1194,-4.1424,-4.0682,-3.9654,-3.9355,-3.9043,-3.8662,-3.8633,-3.8574,-3.872,-3.903,-3.8826,-3.8586,-3.8983,-3.8718,-3.8437,-3.8437,-3.8437,-3.8171,-3.7482,-3.6535,-3.6068,-3.6455,-3.6244,-3.5921,-3.5936,-3.522,-3.4483,-3.3579,-3.306,-3.2548,-3.1919,-3.1013,-3.0296,-2.9909,-2.8163,-2.6938,0.0,0.0,0.0,0.0,0.0,0.0,-2.5349,0.0,-2.6593,-2.8217,-2.8828,-2.9618,-3.0485,-3.0901,-3.1696,-3.279,-3.2856,-3.3441,-3.4646,-3.5303,-3.5907,-3.6571,-3.7403,-3.8061,-3.8594,-3.9561,-4.0353,-4.0841,-4.0372,-4.0059,-3.9845,-3.0964,0.0,-3.0254,0.0,-3.1377,-3.1764,-3.2749,-3.3535,-3.4214,-3.4467,-3.4415,-3.4371,-3.4667,-3.5055,-3.5092,-3.4416,-3.4697,-3.4737,-3.4605,-3.4993,-3.5358,-3.576,-3.6036,-3.6128,-3.5999,-3.5705,-3.543,-3.5027,-3.4458,-3.3678,-3.2866,0.0,0.0,0.0,-3.3787,-3.4362,-3.5012,-3.5849,-3.6589,-3.7238,-3.7402,-3.797,-3.8663,-3.9387,-3.9863,-4.0112,-4.1455,-4.1735,-4.1603,-4.1887,-4.1655,-4.0863,-3.9741,-3.9121,-3.8826,-3.8681,-3.8535,-3.8681,-3.872,-3.862,-3.8588,-3.8606,-3.8548,-3.8357,-3.8212,-3.8191,-3.8037,-3.7213,-3.6674,-3.6324,-3.639,-3.6262,-3.6153,-3.6103,-3.5348,-3.4505,-3.3828,-3.3466,-3.2936,-3.2505,-3.1614,-3.0934,-3.0703,-2.9241,-2.8202,0.0,0.0,0.0,0.0,0.0,0.0,0.0,0.0,0.0,-2.9287,-3.0026,-3.0647,-3.1343,-3.1729,-3.2462,-3.3675,-3.3921,-3.4495,-3.5476,-3.5999,-3.6367,-3.6868,-3.7725,-3.8366,-3.888,-4.0027,-4.0608,-4.0822,-4.0647,-4.0104,-3.9485,-3.2663,-3.2725,-3.3028,-3.3028,-3.3368,-3.3634,-3.3653,-3.4372,-3.4902,-3.4902,-3.5262,-3.5527,-3.5546,-3.5906,-3.5689,-3.4445,-3.5116,-3.5439,-3.5027,-3.5332,-3.5787,-3.6197,-3.6216,-3.601,-3.56,-3.5557,-3.543,-3.5027,-3.5027,-3.4807,-3.4526,0.0,-3.4314,-3.4471,-3.5597,-3.6176,-3.6314,-3.7449,-3.7875,-3.797,-3.799,-3.824,-3.8644,-3.9105,-3.9562,-4.0112,-4.1742,-4.2414,-4.2502,-4.259,-4.2611,-4.1976,-3.9416,-3.8924,-3.9346,-3.8747,-3.8583,-3.8767,-3.9156,-3.9126,-3.9111,-3.8946,-3.8911,-3.873,-3.8295,-3.8191,-3.8037,-3.7213,-3.7079,-3.6944,-3.6519,-3.609,-3.6042,-3.6729,-3.516,-3.4346,-3.5481,-3.4585,-3.3638,-3.2832,-3.2374,-3.1719,-3.1091,-2.993,0.0,0.0,0.0,0.0,0.0,0.0,0.0,-2.852,-2.839,0.0,-3.1484,-3.0971,-3.1157,-3.2019,-3.2403,-3.3276,-3.4408,-3.5228,-3.5314,-3.5082,-3.587,-3.6367,-3.6868,-3.7725,-3.8366,-3.888,-4.0027,-4.0259,-3.9894,-4.0374,-3.9797,-3.8614,-3.4638,-3.4566,-3.4604,-3.4315,-3.4429,-3.4564,-3.4413,-3.5218,-3.5754,-3.6051,-3.6538,-3.6809,-3.709,-3.677,-3.6493,0.0,-3.6538,-3.6469,0.0,-3.6412,-3.6657,-3.6216,-3.6476,-3.6404,-3.5981,-3.5962,-3.5834,-3.543,-3.543,-3.5226,0.0,-3.568,-3.5878,-3.5633,-3.6617,-3.7201,-3.7441,-3.772,-3.8328,-3.8865,-3.9011,-3.9445,-3.9798,-4.0255,-4.0992,-4.1682,-4.2269,-4.2749,-4.3256,-4.3235,-4.3029,-4.274,-4.2112,-4.1407,-4.0392,-3.9651,-3.9425,-3.9366,-3.9255,-3.9126,-3.9111,-3.9085,-3.8911,-3.873,-3.8295,-3.8037,-3.7616,-3.6789,-3.6944,-3.7079,-3.6944,-3.6857,-3.6716,-3.6971,-3.6062,-3.527,-3.5514,-3.4792,-3.4358,-3.4282,-3.3496,-3.2875,-3.2747,-3.182,-3.1093,0.0,0.0,0.0,0.0,0.0,0.0,0.0,-3.0897,0.0,-3.2607,-3.3516,-3.3723,-3.3613,-3.3741,-3.4228,-3.5237,-3.6067,-3.6281,-3.6318,-3.6717,-3.7107,-3.7293,-3.8158,-3.8708,-3.9165,-4.0182,-4.0666,-4.0802,-4.0628,-3.9893,-3.9012,-3.6737,-3.6307,-3.6055,-3.5937,-3.584,-3.584,-3.5859,-3.6445,-3.6914,-3.7053,-3.7151,-3.7269,-3.7566,-3.7119,0.0,-3.6732,-3.6971,-3.6922,-3.6399,-3.6865,-3.7112,-3.6878,-3.6826,-3.6735,-3.6717,-3.6275,0.0,-3.6051,-3.6346,-3.6324,-3.6104,-3.6895,-3.7057,-3.6828,-3.7383,-3.7798,-3.7904,-3.8078,-3.8708,-3.9705,-3.9685,-4.0224,-4.1023,-4.1153,-4.1726,-4.233,-4.2503,-4.2984,-4.3615,-4.3615,-4.3428,-4.3159,-4.3206,-4.2658,-4.1841,-4.0599,-3.9818,-3.9327,-3.9235,-3.9246,-3.9353,-3.905,-3.9163,-3.9247,-3.8792,-3.8285,-3.7677,-3.7144,-3.7199,-3.7213,-3.6809,-3.6669,-3.6609,-3.6654,-3.5964,-3.5554,-3.574,-3.4995,-3.4586,-3.5067,-3.4238,-3.3676,-3.374,-3.3215,-3.2873,0.0,0.0,0.0,0.0,0.0,-2.9546,-3.0955,-3.2993,-3.4037,-3.4127,-3.5122,-3.5211,-3.4528,-3.4852,-3.5173,-3.5584,-3.6542,-3.6903,-3.6777,-3.7232,-3.7568,-3.7734,-3.8303,-3.8928,-3.9368,-3.9965,-4.0449,-4.0684,-4.0356,-3.9875,-3.928,-3.8566,-3.7859,-3.726,-3.7722,-3.7421,-3.728,-3.7722,-3.7908,-3.7927,-3.7927,-3.7291,-3.7053,-3.7445,-3.7073,-3.6818,-3.6877,0.0,0.0,-3.6922,-3.6885,-3.7163,-3.797,-3.7353,-3.6979,-3.7393,-3.6607,-3.646,-3.6796,-3.7671,-3.8009,-3.797,-3.8,-3.7949,-3.793,-3.7949,-3.7969,-3.7988,-3.8398,-3.9248,-4.0338,-4.0104,-4.0664,-4.1898,-4.1686,-4.1907,-4.2116,-4.2616,-4.3116,-4.3615,-4.3615,-4.3615,-4.3532,-4.2864,-4.3102,-4.3168,-4.1436,-3.9911,-3.8806,-3.9156,-3.9445,-3.9614,-3.9313,-3.9636,-4.0054,-3.9599,-3.8854,-3.8244,-3.7915,-3.7672,-3.7388,-3.6287,-3.5953,-3.5929,-3.5957,-3.5332,-3.523,-3.6268,-3.5112,-3.4485,-3.5205,-3.4764,-3.4378,-3.4127,-3.4358,-3.4178,0.0,0.0,0.0,0.0,0.0,-3.1642,-3.3922,-3.4716,-3.5387,-3.6022,-3.607,-3.5736,-3.4931,-3.5778,-3.6042,-3.58,-3.7028,-3.7249,-3.6979,-3.7378,-3.7715,-3.8047,-3.8432,-3.8903,-3.9238,-3.9668,-3.9863,-3.9902,-3.9902,-3.9562,-3.9182,0.0,0.0,-3.8153,-3.8324,-3.7883,-3.7743,-3.8205,-3.8628,-3.8768,-3.8768,-3.8688,-3.8668,-3.9051,-3.8087,-3.7886,-3.8829,-3.8141,-3.7969,-3.8543,-3.834,-3.8214,-3.8428,-3.7913,-3.7563,-3.7397,-3.7198,-3.7217,-3.727,-3.7824,-3.7836,-3.7509,-3.8175,-3.8242,-3.793,-3.8281,-3.8418,-3.8418,-3.8535,-3.907,-3.9915,-4.1065,-4.1494,-4.1671,-4.1861,-4.2159,-4.2596,-4.2829,-4.3063,-4.3615,-4.3615,-4.3615,-4.3532,-4.3056,-4.2575,-4.2097,-4.1334,-4.0983,-4.0841,-3.9714,-3.9798,-4.0065,-4.0041,-3.9811,-3.9578,-3.9123,-3.9123,-3.8904,-3.7901,-3.8098,-3.8024,-3.6598,-3.6574,-3.6689,-3.6132,-3.584,-3.5626,-3.5646,-3.5618,-3.5448,-3.5112,-3.5301,-3.5436,-3.522,-3.4819,-3.4505,0.0,0.0,-3.3277,-3.3847,-3.3629,-3.3733,-3.4492,-3.5807,-3.6922,-3.7685,-3.7702,-3.7371,-3.6697,-3.7222,-3.7475,-3.7352,-3.8039,-3.8273,-3.8127,-3.8243,-3.8428,-3.8448,-3.8545,-3.8779,-3.9219,-3.9316,-3.959,-3.9902,-3.9902,-3.9368,-3.8817,-3.9918,-3.9368,-3.8905,-3.9232,-3.8928,-3.8786,-3.9232,-3.9516,-3.9515,-3.9372,-3.9049,-3.8786,-3.8786,-3.8187,-3.8207,-3.9293,-3.8587,-3.8482,-3.9136,-3.903,-3.872,-3.8574,-3.8155,-3.8009,-3.799,-3.7549,-3.7568,-3.7715,-3.8155,-3.8166,-3.7933,-3.8457,-3.8457,-3.8223,-3.8476,-3.8574,-3.8574,-3.872,-3.9275,-4.0036,-4.1045,-4.1706,-4.1887,-4.2183,-4.2323,-4.2371,-4.2658,-4.2849,-4.2973,-4.2782,-4.2947,-4.318,-4.2518,-4.2122,-4.1809,-4.1151,-4.1049,-4.0904,-4.0227,-4.0146,-4.0412,-4.0734,-4.0277,-3.9744,-3.9924,-3.9779,-3.9413,-3.8753,-3.8548,-3.8228,-3.7285,-3.6929,-3.6809,-3.6539,-3.6287,-3.6035,-3.6191,-3.6008,-3.5958,-3.5964,-3.6102,-3.6032,-3.5992,-3.5551,-3.5191,-3.493,-3.43,0.0,-3.4854,-3.4912,-3.51,-3.567,-3.677,-3.7729,-3.8562,-3.86,-3.8267,-3.7305,-3.7877,-3.8073,-3.7949,-3.8379,-3.8574,-3.8574,-3.8574,-3.8574,-3.8574,-3.872,-3.8857,-3.8906,-3.9073,-3.9347,-3.957,-3.957,-3.9401,-3.9232,-4.0882,-4.0226,-3.9779,-4.0371,-3.9942,-3.98,-4.0392,-4.0453,-4.031,-3.9858,-3.9269,-3.8601,-3.8171,-3.8082,-3.8427,-3.9273,-3.8889,-3.8849,-3.9261,-3.9321,-3.903,-3.872,-3.8302,-3.8302,-3.8574,-3.799,-3.7715,-3.8155,-3.8428,-3.8574,-3.872,-3.872,-3.872,-3.872,-3.872,-3.872,-3.8865,-3.9156,-3.9645,-4.0424,-4.0837,-4.1604,-4.2163,-4.2479,-4.2311,-4.1826,-4.229,-4.2269,-4.2228,-4.2018,-4.2328,-4.2766,-4.1938,-4.173,-4.1812,-4.1028,-4.0658,-4.0391,-4.0884,-4.0679,-4.0617,-4.1331,-4.0933,-4.0521,-4.1263,-4.078,-4.0021,-3.9774,-3.9142,-3.8473,-3.8001,-3.7385,-3.6969,-3.7199,-3.6658,-3.6405,-3.6913,-3.6455,-3.6236,-3.6864,-3.6716,-3.639,-3.6479,-3.6142,-3.5771,-3.5524,-3.5093,-3.5008,-3.5329,-3.548,-3.5922,-3.6892,-3.7493,-3.8139,-3.887,-3.8983,-3.8608,-3.7642,-3.8157,-3.8458,-3.8171,-3.8543,-3.872,-3.872,-3.872,-3.872,-3.872,-3.903,-3.903,-3.872,-3.9176,-3.9248,-3.9249,-3.9249,-3.9504,-3.9798,-4.0882,-4.053,-4.0224,-4.0657,-4.0368,-4.0244,-4.0678,-4.0882,-4.0596,-4.031,-4.0105,-3.9921,-3.947,-3.9089,-3.9293,-4.0024,-3.9658,-3.9617,-4.0146,-3.961,-3.9176,-3.9176,-3.872,-3.8574,-3.8574,-3.8428,-3.8428,-3.8574,-3.8574,-3.872,-3.9176,-3.9176,-3.9301,-3.957,-3.957,-3.957,-3.957,-3.9385,-3.9734,-4.0309,-4.1254,-4.1731,-4.1752,-4.2124,-4.208,-4.1682,-4.1264,-4.1432,-4.185,-4.2207,-4.2538,-4.2828,-4.2311,-4.2145,-4.2021,-4.1172,-4.1233,-4.1594,-4.1046,-4.1046,-4.1331,-4.1473,-4.153,-4.1643,-4.1347,-4.1334,-4.1053,-4.0201,-4.0243,-4.0028,-3.8942,-3.8938,-3.8774,-3.7839,-3.7368,-3.6955,-3.6559,-3.6459,-3.64,-3.6455,-3.6515,-3.6594,-3.6519,-3.5894,-3.5505,-3.5751,-3.5488,-3.5389,-3.5766,-3.605,-3.6515,-3.7092,-3.7827,-3.8621,-3.9535,-3.9616,-3.9389,-3.8833,-3.8747,-3.8912,-3.947,-3.9136,-3.9301,-3.957,-3.9156,-3.9176,-3.9176,-3.9176,-3.9176,-3.9176,-3.9445,-3.961,-3.967,-3.967,-3.971,-3.983,-4.0882,-4.0574,-4.037,-4.0555,-4.0432,-4.037,-4.0576,-4.074,-4.074,-4.031,-4.0166,-3.9878,-3.9445,-3.9266,-3.9513,-4.0289,-4.0126,-4.0085,-4.0576,-3.9878,-3.9445,-3.9176,-3.8865,-3.8574,-3.8574,-3.8574,-3.872,-3.8885,-3.8885,-3.9156,-3.9445,-3.9445,-3.959,-3.9714,-3.9714,-3.9714,-3.9714,-4.0126,-4.0269,-4.031,-4.0987,-4.1214,-4.1214,-4.1441,-4.169,-4.171,-4.111,-4.109,-4.1317,-4.1503,-4.1897,-4.2311,-4.2251,-4.2647,-4.2794,-4.1955,-4.1599,-4.1452,-4.131,-4.1331,-4.1473,-4.1756,-4.1997,-4.2214,-4.1979,-4.1967,-4.1728,-4.1122,-4.1038,-4.0835,-4.0327,-3.982,-3.9592,-3.9384,-3.8519,-3.8004,-3.8153,-3.7582,-3.7169,-3.6836,-3.6889,-3.6769,-3.6519,-3.6206,-3.6107,-3.6509,-3.6176,-3.6157,-3.6757,-3.6777,-3.7011,-3.7616,-3.8446,-3.9224,-3.9637,-4.0167,-4.0022,-3.9176,-3.9445,-3.9445,-3.9445,-3.9445,-3.959,-3.9714,-3.959,-3.959,-3.9754,-3.9754,-3.9878,-4.0166,-4.031,-4.0289,-4.0289,-4.0166,-4.0022,-4.0043,-4.0882,-4.0596,-4.0453,-4.0453,-4.0453,-4.0453,-4.0453,-4.074,-4.074,-4.0166,-3.9858,-3.957,-3.9176,-3.903,-3.9321,-4.0043,-4.0166,-4.031,-4.074,-4.0146,-3.959,-3.9176,-3.8865,-3.8574,-3.872,-3.872,-3.8865,-3.9321,-3.9321,-3.9445,-3.9858,-3.9714,-3.9858,-4.0002,-3.9858,-3.9858,-4.0002,-4.0576,-4.0719,-4.0412,-4.0942,-4.1105,-4.1025,-4.0944,-4.115,-4.1498,-4.1007,-4.0924,-4.0841,-4.1025,-4.1276,-4.1669,-4.2242,-4.2826,-4.3478,-4.2814,-4.1904,-4.1167,-4.1473,-4.1615,-4.1756,-4.2018,-4.2419,-4.2538,-4.2538,-4.2376,-4.2236,-4.1792,-4.1678,-4.1604,-4.1465,-4.0772,-4.036,-4.0805,-3.982,-3.9204,-3.9612,-3.8774,-3.7903,-3.7648,-3.7541,-3.7219,-3.6829,-3.6754,-3.6909,-3.7233,-3.6924,-3.7059,-3.7616,-3.7482,-3.775,-3.8304,-3.8957,-3.9461,-3.9613,-4.0103,-4.0065,-3.947,-3.9881,-3.9921,-3.961,-3.9734,-3.9858,-4.0002,-3.9858,-4.0022,-4.031,-4.031,-4.0453,-4.074,-4.0882,-4.0882,-4.0882,-4.0596,-4.0453,-4.0453,-4.0882,-4.0882,-4.0882,-4.0882,-4.0882,-4.0882,-4.0882,-4.0882,-4.0576,-3.9858,-3.9714,-3.9425,-3.872,-3.8574,-3.8865,-3.9176,-3.959,-3.9858,-4.031,-4.0002,-3.959,-3.9176,-3.8865,-3.872,-3.9176,-3.9176,-3.9301,-3.9714,-3.9714,-3.9858,-4.031,-3.9858,-4.0146,-4.074,-4.0453,-4.0453,-4.0882,-4.0862,-4.1025,-4.1473,-4.1494,-4.1494,-4.1352,-4.0987,-4.0925,-4.0924,-4.0946,-4.0946,-4.0921,-4.1452,-4.1313,-4.1193,-4.2289,-4.2992,-4.3608,-4.3264,-4.2671,-4.1877,-4.2018,-4.2018,-4.2018,-4.2441,-4.2861,-4.3023,-4.2721,-4.2559,-4.2419,-4.1997,-4.2257,-4.2376,-4.1954,-4.2214,-4.2183,-4.1316,0.0,0.0,-4.0129,-3.933,-3.8932,-3.8835,-3.8539,-3.8275,-3.7779,-3.7773,-3.7657,-3.7522,-3.7482,-3.7482,-3.7616,-3.8283,-3.8549,-3.8681,-3.8782,-3.9123,-3.944,-3.9204,-3.9429,-4.0141,-3.9556,-3.976,-4.074,-4.0453,-4.0453,-4.074,-4.0453,-4.031,-4.031,-4.031,-4.031,-4.031,-4.074,-4.0882,-4.0882,-4.0882,-4.0882,-4.0882,-4.0882,-4.0882,-4.0882,-4.0882,-4.0882,-4.0882,-4.0882,-4.0882,-4.074,-4.0166,-3.9858,-3.957,-3.903,-3.903,-3.9176,-3.9445,-3.9878,-4.031,-4.0596,-4.0576,-4.0022,-3.9176,-3.8865,-3.8865,-3.9445,-3.9321,-3.9465,-4.0022,-4.0022,-4.031,-4.074,-4.0596,-4.0576,-4.0882,-4.074,-4.0698,-4.0942,-4.1431,-4.1551,-4.153,-4.2018,-4.2202,-4.1962,-4.1515,-4.1515,-4.182,-4.1599,-4.1536,-4.1714,-4.233,-4.2131,-4.1725,-4.2685,-4.2849,-4.2685,-4.3154,-4.2655,-4.2159,-4.2603,-4.2581,-4.2441,-4.2581,-4.2883,-4.3184,-4.3023,-4.3023,-4.2883,-4.2743,-4.2883,-4.2883,-4.2743,-4.2721,-4.2516,-4.2483,0.0,-4.1537,-4.1647,-4.078,-4.0194,-4.0125,-3.9612,-3.9048,-3.8924,-3.8978,-3.8821,-3.8726,-3.8862,-3.8862,-3.9135,-3.9269,-3.913,-3.8437,-3.8604,-3.8895,-3.9102,-3.9254,-3.9487,-3.9798,-3.9798,-3.988,-4.0044,-4.0473,-4.0595,-4.0489,-4.0616,-4.074,-4.1046,-4.074,-4.0882,-4.131,-4.131,-4.1452,-4.1594,-4.131,-4.1331,-4.123,-4.0882,-4.0882,-4.0882,-4.0882,-4.0882,-4.0882,-4.0882,-4.0882,-4.074,-4.031,-4.0022,-3.9734,-3.9321,-3.9321,-3.9445,-3.959,-4.0022,-4.0453,-4.074,-4.074,-4.031,-3.9445,-3.9156,-3.9136,-3.9714,-3.959,-3.9899,-4.0453,-4.0453,-4.0596,-4.0882,-4.0882,-4.1025,-4.1025,-4.1025,-4.1105,-4.1184,-4.1855,-4.1997,-4.1912,-4.2581,-4.2624,-4.2343,-4.2138,-4.218,-4.2407,-4.2202,-4.2159,-4.2159,-4.2797,-4.2698,-4.2535,-4.31,-4.2775,-4.2428,-4.3066,-4.2743,-4.2462,-4.3023,-4.3023,-4.2721,-4.2721,-4.3023,-4.3184,-4.3184,-4.3184,-4.3184,-4.3184,-4.3184,-4.3184,-4.3184,-4.3023,-4.2883,-4.3184,-4.2743,-4.2441,-4.2581,-4.189,-4.132,-4.1109,-4.0688,-4.0255,-3.982,-4.0046,-3.9962,-3.9654,-3.9675,-3.9929,-4.0225,-4.018,-3.9728,-3.903,-3.9122,-3.9134,-3.9061,-3.9102,-3.9275,-3.9713,-3.9873,-4.0018,-4.0003,-4.0595,-4.0717,-4.0448,-4.0737,-4.1025,-4.1331,-4.1025,-4.1167,-4.1594,-4.1452,-4.1452,-4.1594,-4.1473,-4.1414,-4.1561,-4.0882,-4.0882,-4.0882,-4.0882,-4.0882,-4.0862,-4.0862,-4.0862,-4.074,-4.031,-4.031,-4.0043,-3.9321,-3.9445,-3.957,-3.9176,-3.9899,-4.031,-4.031,-4.031,-4.0166,-3.9714,-3.9714,-3.9714,-3.9714,-4.0166,-4.0453,-4.0882,-4.0882,-4.0882,-4.0882,-4.0882,-4.1167,-4.1473,-4.1452,-4.1551,-4.163,-4.2202,-4.2343,-4.2376,-4.297,-4.2948,-4.2516,-4.297,-4.2873,-4.2407,-4.2407,-4.2484,-4.2398,-4.2364,-4.2808,-4.3206,-4.3143,-4.3143,-4.3154,-4.3206,-4.3184,-4.3184,-4.3184,-4.3184,-4.3184,-4.3184,-4.3184,-4.3184,-4.3184,-4.3184,-4.3184,-4.3184,-4.3184,-4.3184,-4.3184,-4.3184,-4.3184,-4.3184,-4.3184,-4.3023,-4.2721,-4.2635,-4.2333,-4.1573,-4.1813,-4.158,-4.0375,-4.0835,-4.0986,-4.0129,-4.0087,-4.0225,-4.0635,-4.0635,-4.0635,-4.0635,-4.0225,-3.995,-3.9537,-3.8647,-3.8916,-4.0087,-3.9675,-4.0013,-4.0862,-4.0882,-4.0862,-4.0862,-4.0882,-4.0882,-4.0882,-4.0882,-4.0882,-4.0882,-4.0882,-4.0882,-4.0882,-4.0882,-4.1172,-4.1503,-4.0882,-4.0882,-4.0882,-4.0882,-4.0634,-4.0427,-4.0427,-4.0427,-4.0286,-3.984,-4.0126,-4.0166,-3.959,-3.9878,-4.0022,-4.0022,-4.0453,-4.074,-4.074,-4.074,-4.0596,-4.0166,-4.0166,-4.031,-4.0576,-4.0596,-4.074,-4.0882,-4.1167,-4.1331,-4.1331,-4.1594,-4.1735,-4.1877,-4.1672,-4.1792,-4.2214,-4.2074,-4.2376,-4.3001,-4.3206,-4.3141,-4.3032,-4.3163,-4.3163,-4.2936,-4.3023,-4.2905,-4.3001,-4.2905,-4.284,-4.2613,-4.2603,-4.2926,-4.3066,-4.2883,-4.2721,-4.2861,-4.3163,-4.3163,-4.3163,-4.3184,-4.3184,-4.3184,-4.3184,-4.3184,-4.3184,-4.3184,-4.3184,-4.3184,-4.3184,-4.3184,-4.3184,-4.3184,-4.3184,-4.3184,-4.3023,-4.3001,-4.284,-4.2278,-4.2039,-4.1855,-4.1503,-4.1601,-4.1699,-4.1474,-4.1732,-4.1583,-4.1124,-4.1654,-4.164,-4.1044,-4.0908,-4.0635,-3.995,-3.9405,-3.9433,-4.0153,-4.0292,-4.0578,-4.085,-4.1184,-4.1142,-4.085,-4.088,-4.0882,-4.0882,-4.1188,-4.1167,-4.0882,-4.1167,-4.1167,-4.0882,-4.0882,-4.0965,-4.111,-4.0882,-4.0882,-4.0882,-4.0882,-4.0655,-4.0489,-4.0489,-4.0489,-4.0348,-4.0185,-4.0432,-4.0453,-4.0022,-4.031,-4.0453,-4.031,-4.074,-4.1167,-4.1167,-4.1167,-4.1025,-4.076,-4.0882,-4.0882,-4.0882,-4.1025,-4.131,-4.1573,-4.1877,-4.2018,-4.2159,-4.2441,-4.2721,-4.2721,-4.2495,-4.257,-4.2688,-4.2688,-4.3053,-4.358,-4.3558,-4.3492,-4.3448,-4.3419,-4.3419,-4.3514,-4.3302,-4.3184,-4.3184,-4.3023,-4.2818,-4.2473,-4.2678,-4.2731,-4.2879,-4.2579,-4.2579,-4.2579,-4.3017,-4.3288,-4.3441,-4.358,-4.3603,-4.3463,-4.3441,-4.3302,-4.3324,-4.358,-4.3441,-4.3184,-4.3302,-4.3324,-4.3184,-4.3184,-4.3184,-4.3184,-4.3184,-4.3184,-4.3023,-4.2441,-4.2343,-4.2082,-4.1898,-4.2116,-4.2257,-4.23,-4.2581,-4.2591,-4.1872,-4.2289,-4.2159,-4.1602,-4.1327,-4.105,-4.0473,-4.0215,-4.0116,-4.05,-4.078,-4.1144,-4.1334,-4.163,-4.1587,-4.1334,-4.1326,-4.131,-4.131,-4.1594,-4.1473,-4.1167,-4.1473,-4.1331,-4.1167,-4.1025,-4.1129,-4.1459,-4.1025,-4.0882,-4.0882,-4.0882,-4.0841,-4.082,-4.082,-4.082,-4.082,-4.082,-4.0841,-4.074,-4.0453,-4.074,-4.074,-4.0453,-4.1046,-4.1473,-4.1473,-4.1473,-4.1473,-4.1473,-4.1735,-4.1735,-4.1025,-4.1473,-4.1898,-4.27,-4.2559,-4.284,-4.3097,-4.3558,-4.3697,-4.3697,-4.3907,-4.3658,-4.3272,-4.3841,-4.4068,-4.4273,-4.4068,-4.4023,-4.4001,-4.4019,-4.3902,-4.3742,-4.3463,-4.3184,-4.3163,-4.2721,-4.2721,-4.27,-4.2979,-4.2813,-4.242,-4.2376,-4.2376,-4.242,-4.2831,-4.3343,-4.3858,-4.4135,-4.4179,-4.3925,-4.3719,-4.3441,-4.3441,-4.4135,-4.3719,-4.3302,-4.358,-4.3441,-4.3184,-4.3184,-4.3184,-4.3184,-4.3184,-4.3184,-4.2883,-4.2159,-4.23,-4.23,-4.1615,-4.2159,-4.2559,-4.2516,-4.2861,-4.3001,-4.2516,-4.2538,-4.2441,-4.2018,-4.1756,-4.1331,-4.1025,-4.1025,-4.0959,-4.0843,-4.1101,-4.1592,-4.2018,-4.2018,-4.2018,-4.2018,-4.2018,-4.2018,-4.2018,-4.2018,-4.1877,-4.1473,-4.1473,-4.1473,-4.1473,-4.1167,-4.1438,-4.2039,-4.1331,-4.1167,-4.0882,-4.0882,-4.0593,-4.0365,-4.0365,-4.0365,-4.0365,-4.0365,-4.0655,-4.0882,-4.074,-4.0882,-4.0882,-4.074,-4.0882,-4.1025,-4.1025,-4.1025,-4.1025,-4.1025,-4.1473,-4.1735,-4.2159,-4.23,-4.2559,-4.2979,-4.3001,-4.3141,-4.3558,-4.3997,-4.4135,-4.4135,-4.4295,-4.4273,-4.4068,-4.4844,-4.4844,-4.4295,-4.4867,-4.4754,-4.4276,-4.4867,-4.434,-4.3338,-4.3697,-4.3463,-4.3184,-4.3023,-4.3023,-4.2958,-4.231,-4.2617,-4.2782,-4.1733,-4.182,-4.2239,-4.2557,-4.3046,-4.3719,-4.3441,-4.4291,-4.4796,-4.388,-4.3858,-4.3997,-4.358,-4.358,-4.358,-4.3302,-4.3324,-4.3184,-4.3184,-4.3184,-4.3184,-4.3184,-4.3184,-4.2883,-4.2159,-4.23,-4.2441,-4.1877,-4.2603,-4.2731,-4.2064,-4.2505,-4.2408,-4.1604,-4.1946,-4.2159,-4.2018,-4.1877,-4.1735,-4.1331,-4.1594,-4.1389,-4.088,-4.1305,-4.1651,-4.2018,-4.2018,-4.2159,-4.2441,-4.2159,-4.2018,-4.2018,-4.2018,-4.2018,-4.1877,-4.1877,-4.1877,-4.1877,-4.1735,-4.194,-4.2004,-4.1473,-4.1167,-4.0882,-4.0882,-4.0696,-4.053,-4.053,-4.053,-4.053,-4.053,-4.0737,-4.1025,-4.1188,-4.1025,-4.0882,-4.0882,-4.1025,-4.1188,-4.1188,-4.1188,-4.131,-4.1452,-4.1524,-4.2204,-4.3397,-4.29,-4.3156,-4.3952,-4.3558,-4.3697,-4.4526,-4.4526,-4.4663,-4.4823,-4.4983,-4.5005,-4.5119,-4.5371,-4.5348,-4.5119,-4.5371,-4.5165,-4.4869,-4.5074,-4.4571,-4.3956,-4.3836,-4.3603,-4.3141,-4.29,-4.3105,-4.3214,-4.2457,-4.2513,-4.2768,-4.1673,-4.1537,-4.1847,-4.2206,-4.3166,-4.3997,-4.3997,-4.4638,-4.5119,-4.4157,-4.4157,-4.4295,-4.3997,-4.3858,-4.3719,-4.3441,-4.3302,-4.3184,-4.3184,-4.3184,-4.3184,-4.3184,-4.3184,-4.3023,-4.23,-4.2441,-4.2581,-4.23,-4.2883,-4.2936,-4.2236,-4.243,-4.2333,-4.1656,-4.1749,-4.1735,-4.1735,-4.1594,-4.1452,-4.1188,-4.1452,-4.1452,-4.1167,-4.1735,-4.2159,-4.2603,-4.2721,-4.2861,-4.3141,-4.2861,-4.2861,-4.2861,-4.2581,-4.2441,-4.23,-4.23,-4.23,-4.2278,-4.2018,-4.2159,-4.2441,-4.1615,-4.131,-4.0882,-4.1025,-4.1025,-4.0882,-4.1025,-4.0882,-4.0882,-4.0882,-4.1025,-4.1167,-4.1473,-4.131,-4.1167,-4.1167,-4.1331,-4.1615,-4.1615,-4.1473,-4.1573,-4.189,-4.1872,-4.25,-4.3844,-4.3325,-4.3688,-4.4937,-4.4112,-4.425,-4.537,-4.4937,-4.5074,-4.537,-4.5483,-4.5642,-4.5936,-4.5642,-4.5777,-4.6071,-4.5642,-4.5347,-4.5324,-4.5074,-4.48,-4.464,-4.4112,-4.3719,-4.3397,-4.282,-4.3161,-4.3498,-4.2716,-4.268,-4.2839,-4.2037,-4.179,-4.1743,-4.237,-4.3442,-4.4411,-4.4663,-4.4937,-4.5074,-4.4526,-4.4433,-4.4593,-4.4663,-4.4112,-4.3697,-4.3697,-4.3441,-4.3324,-4.3184,-4.3324,-4.3324,-4.3184,-4.3184,-4.3023,-4.2721,-4.2581,-4.2581,-4.2721,-4.3023,-4.3001,-4.2591,-4.2516,-4.2214,-4.1784,-4.1446,-4.1184,-4.1101,-4.0796,-4.0675,-4.0758,-4.0758,-4.1105,-4.1615,-4.2159,-4.2721,-4.3163,-4.3353,-4.3492,-4.358,-4.358,-4.358,-4.358,-4.3302,-4.2883,-4.2721,-4.2581,-4.2581,-4.2721,-4.23,-4.2581,-4.3163,-4.2441,-4.1573,-4.1167,-4.1735,-4.131,-4.1025,-4.1331,-4.1167,-4.0882,-4.0882,-4.1188,-4.1473,-4.1473,-4.1735,-4.1877,-4.1877,-4.1877,-4.1877,-4.1877,-4.1615,-4.1425,-4.1422,-4.1741,-4.2128,-4.2458,-4.3211,-4.4321,-4.5754,-4.4388,-4.425,-4.537,-4.4937,-4.5074,-4.5347,-4.5754,-4.5754,-4.5506,-4.58,-4.5936,-4.589,-4.5483,-4.5437,-4.5344,-4.5324,-4.5051,-4.4618,-4.464,-4.4388,-4.4112,-4.4045,-4.38,-4.342,-4.2906,-4.2996,-4.2973,-4.2324,-4.2728,-4.3465,-4.3308,-4.3825,-4.4273,-4.4411,-4.4503,-4.4755,-4.48,-4.48,-4.4686,-4.4411,-4.3997,-4.3697,-4.3697,-4.3719,-4.358,-4.3324,-4.3441,-4.358,-4.3184,-4.3184,-4.3023,-4.2721,-4.2581,-4.2721,-4.3023,-4.3184,-4.2988,-4.2413,-4.2204,-4.1656,-4.0869,-4.0515,-4.0137,-3.9744,-3.9723,-3.9909,-4.0323,-4.0323,-4.0792,-4.1877,-4.2018,-4.23,-4.27,-4.231,-4.2492,-4.3324,-4.3324,-4.3324,-4.3163,-4.2861,-4.2861,-4.3023,-4.2721,-4.2861,-4.3163,-4.3023,-4.3023,-4.3163,-4.2581,-4.1997,-4.1509,-4.1656,-4.1193,-4.0933,-4.1074,-4.0771,-4.0734,-4.1147,-4.1331,-4.1615,-4.2018,-4.23,-4.23,-4.2018,-4.2018,-4.2018,-4.2018,-4.1756,-4.1686,-4.1869,-4.2064,-4.2535,-4.3038,-4.3602,-4.4233,-4.503,-4.4392,-4.4526,-4.5347,-4.4664,-4.4823,-4.5347,-4.5183,-4.5364,-4.58,-4.58,-4.58,-4.6071,-4.587,-4.5688,-4.5414,-4.5324,-4.521,-4.5051,-4.48,-4.4526,-4.4228,-4.3937,-4.4006,-4.412,-4.3467,-4.3534,-4.3691,-4.3085,-4.3579,-4.4188,-4.3691,-4.4006,-4.4526,-4.4526,-4.4778,-4.5051,-4.5074,-4.4937,-4.48,-4.4663,-4.4366,-4.4228,-4.4112,-4.3653,-4.3492,-4.3397,-4.3441,-4.3302,-4.3184,-4.3184,-4.3163,-4.3141,-4.3039,-4.2995,-4.3419,-4.3061,-4.2522,-4.1869,-4.1625,-4.1198,-3.9992,-3.9862,-3.9744,-3.9537,-3.9537,-3.964,-3.9847,-3.9986,-4.0486,-4.1231,-4.1092,-4.1805,-4.2861,-4.2944,-4.3105,-4.3441,-4.3441,-4.3441,-4.3441,-4.3163,-4.3023,-4.3184,-4.3023,-4.3023,-4.3184,-4.3441,-4.3441,-4.358]},{"header":{"parameterUnit":"m.s-1","parameterCategory":1,"la1":30.6,"la2":28.766,"lo1":-90.7593,"lo2":-88.6598,"dy":0.0162,"dx":0.0183,"nx":116,"ny":114,"refTime":"2023-07-10T00:00:00:Z","depth":0,"parameterNumber":3,"parameterNumberName":"V-component_of_WINDS"},"data":[0.0,0.0,0.0,0.0,0.0,0.0,0.0,0.0,0.0,0.0,0.0,0.0,0.0,0.0,0.0,0.0,0.0,0.0,0.0,0.0,0.0,0.0,0.0,0.0,0.0,0.0,0.0,0.0,0.0,0.0,0.0,0.0,0.0,0.0,0.0,0.0,0.0,0.0,0.0,0.0,0.0,0.0,0.0,0.0,0.0,0.0,0.0,0.0,0.0,0.0,0.0,0.0,0.0,0.0,0.0,0.0,0.0,0.0,0.0,0.0,0.0,0.0,0.0,0.0,0.0,0.0,0.0,0.0,0.0,0.0,0.0,0.0,0.0,0.0,0.0,0.0,0.0,0.0,0.0,0.0,0.0,0.0,0.0,0.0,0.0,0.0,0.0,0.0,0.0,0.0,0.0,0.0,0.0,0.0,0.0,0.0,0.0,0.0,0.0,0.0,0.0,0.0,0.0,0.0,0.0,0.0,0.0,0.0,0.0,0.0,0.0,0.0,0.0,0.0,0.0,0.0,0.0,0.0,0.0,0.0,0.0,0.0,0.0,0.0,0.0,0.0,0.0,0.0,0.0,0.0,0.0,0.0,0.0,0.0,0.0,0.0,0.0,0.0,0.0,0.0,0.0,0.0,0.0,0.0,0.0,0.0,0.0,0.0,0.0,0.0,0.0,0.0,0.0,0.0,0.0,0.0,0.0,0.0,0.0,0.0,0.0,0.0,0.0,0.0,0.0,0.0,0.0,0.0,0.0,0.0,0.0,0.0,0.0,0.0,0.0,0.0,0.0,0.0,0.0,0.0,0.0,0.0,0.0,0.0,0.0,0.0,0.0,0.0,0.0,0.0,0.0,0.0,0.0,0.0,0.0,0.0,0.0,0.0,0.0,0.0,0.0,0.0,0.0,0.0,0.0,0.0,0.0,0.0,0.0,0.0,0.0,0.0,0.0,0.0,0.0,0.0,0.0,0.0,0.0,0.0,0.0,0.0,0.0,0.0,0.0,0.0,0.0,0.0,0.0,0.0,0.0,0.0,0.0,0.0,0.0,0.0,0.0,0.0,0.0,0.0,0.0,0.0,0.0,0.0,0.0,0.0,0.0,0.0,0.0,0.0,0.0,0.0,0.0,0.0,0.0,0.0,0.0,0.0,0.0,0.0,0.0,0.0,0.0,0.0,0.0,0.0,0.0,0.0,0.0,0.0,0.0,0.0,0.0,0.0,0.0,0.0,0.0,0.0,0.0,0.0,0.0,0.0,0.0,0.0,0.0,0.0,0.0,0.0,0.0,0.0,0.0,0.0,0.0,0.0,0.0,0.0,0.0,0.0,0.0,0.0,0.0,0.0,0.0,0.0,0.0,0.0,0.0,0.0,0.0,0.0,0.0,0.0,0.0,0.0,0.0,0.0,0.0,0.0,0.0,0.0,0.0,0.0,0.0,0.0,0.0,0.0,0.0,0.0,0.0,0.0,0.0,0.0,0.0,0.0,0.0,0.0,0.0,0.0,0.0,0.0,0.0,0.0,0.0,0.0,0.0,0.0,0.0,0.0,0.0,0.0,0.0,0.0,0.0,0.0,0.0,0.0,0.0,0.0,0.0,0.0,0.0,0.0,0.0,0.0,0.0,0.0,0.0,0.0,0.0,0.0,0.0,0.0,0.0,0.0,0.0,0.0,0.0,0.0,0.0,0.0,0.0,0.0,0.0,0.0,0.0,0.0,0.0,0.0,0.0,0.0,0.0,0.0,0.0,0.0,0.0,0.0,0.0,0.0,0.0,0.0,0.0,0.0,0.0,0.0,0.0,0.0,0.0,0.0,0.0,0.0,0.0,0.0,0.0,0.0,0.0,0.0,0.0,0.0,0.0,0.0,0.0,0.0,0.0,0.0,0.0,0.0,0.0,0.0,0.0,0.0,0.0,0.0,0.0,0.0,0.0,0.0,0.0,0.0,0.0,0.0,0.0,0.0,0.0,0.0,0.0,0.0,0.0,0.0,0.0,0.0,0.0,0.0,0.0,0.0,0.0,0.0,0.0,0.0,0.0,0.0,0.0,0.0,0.0,0.0,0.0,0.0,0.0,0.0,0.0,0.0,0.0,0.0,0.0,0.0,0.0,0.0,0.0,0.0,0.0,0.0,0.0,0.0,0.0,0.0,0.0,0.0,0.0,0.0,0.0,0.0,0.0,0.0,0.0,0.0,0.0,0.0,0.0,0.0,0.0,0.0,0.0,0.0,0.0,0.0,0.0,0.0,0.0,0.0,0.0,0.0,0.0,0.0,0.0,0.0,0.0,0.0,0.0,0.0,0.0,0.0,0.0,0.0,0.0,0.0,0.0,0.0,0.0,0.0,0.0,0.0,0.0,0.0,0.0,0.0,0.0,0.0,0.0,0.0,0.0,0.0,0.0,0.0,0.0,0.0,0.0,0.0,0.0,0.0,0.0,0.0,0.0,0.0,0.0,0.0,0.0,0.0,0.0,0.0,0.0,0.0,0.0,0.0,0.0,0.0,0.0,0.0,0.0,0.0,0.0,0.0,0.0,0.0,0.0,0.0,0.0,0.0,0.0,0.0,0.0,0.0,0.0,0.0,0.0,0.0,0.0,0.0,0.0,0.0,0.0,0.0,0.0,0.0,0.0,0.0,0.0,0.0,0.0,0.0,0.0,0.0,0.0,0.0,0.0,0.0,0.0,0.0,0.0,0.0,0.0,0.0,0.0,0.0,0.0,0.0,0.0,0.0,0.0,0.0,0.0,0.0,0.0,0.0,0.0,0.0,0.0,0.0,0.0,0.0,0.0,0.0,0.0,0.0,0.0,0.0,0.0,0.0,0.0,0.0,0.0,0.0,0.0,0.0,0.0,0.0,0.0,0.0,0.0,0.0,0.0,0.0,0.0,0.0,0.0,0.0,0.0,0.0,0.0,0.0,0.0,0.0,0.0,0.0,0.0,0.0,0.0,0.0,0.0,0.0,0.0,0.0,0.0,0.0,0.0,0.0,0.0,0.0,0.0,0.0,0.0,0.0,0.0,0.0,0.0,0.0,0.0,0.0,0.0,0.0,0.0,0.0,0.0,0.0,0.0,0.0,0.0,0.0,0.0,0.0,0.0,0.0,0.0,0.0,0.0,0.0,0.0,0.0,0.0,0.0,0.0,0.0,0.0,0.0,0.0,0.0,0.0,0.0,0.0,0.0,0.0,0.0,0.0,0.0,0.0,0.0,0.0,0.0,0.0,0.0,0.0,0.0,0.0,0.0,0.0,0.0,0.0,0.0,0.0,0.0,0.0,0.0,0.0,0.0,0.0,0.0,0.0,0.0,0.0,0.0,0.0,0.0,0.0,0.0,0.0,0.0,0.0,0.0,0.0,0.0,0.0,0.0,0.0,0.0,0.0,0.0,0.0,0.0,0.0,0.0,0.0,0.0,0.0,0.0,0.0,0.0,0.0,0.0,0.0,0.0,0.0,0.0,0.0,0.0,0.0,0.0,0.0,0.0,0.0,0.0,0.0,0.0,0.0,0.0,0.0,0.0,0.0,0.0,0.0,0.0,0.0,0.0,0.0,0.0,0.0,0.0,0.0,0.0,0.0,0.0,0.0,0.0,0.0,0.0,0.0,0.0,0.0,0.0,0.0,0.0,0.0,0.0,0.0,0.0,0.0,0.0,0.0,0.0,0.0,0.0,0.0,0.0,0.0,0.0,0.0,0.0,0.0,0.0,0.0,0.0,0.0,0.0,0.0,0.0,0.0,0.0,0.0,0.0,0.0,0.0,0.0,0.0,0.0,0.0,0.0,0.0,0.0,0.0,0.0,0.0,0.0,0.0,0.0,0.0,0.0,0.0,0.0,0.0,0.0,0.0,0.0,0.0,0.0,0.0,0.0,0.0,0.0,0.0,0.0,0.0,0.0,0.0,0.0,0.0,0.0,0.0,0.0,0.0,0.0,0.0,0.0,0.0,0.0,0.0,0.0,0.0,0.0,0.0,0.0,0.0,0.0,0.0,0.0,0.0,0.0,0.0,0.0,0.0,0.0,0.0,0.0,0.0,0.0,0.0,0.0,0.0,0.0,0.0,0.0,0.0,0.0,0.0,0.0,0.0,0.0,0.0,0.0,0.0,0.0,0.0,0.0,0.0,0.0,0.0,0.0,0.0,0.0,0.0,0.0,0.0,0.0,0.0,0.0,0.0,0.0,0.0,0.0,0.0,0.0,0.0,0.0,0.0,0.0,0.0,0.0,0.0,0.0,0.0,0.0,0.0,0.0,0.0,0.0,0.0,0.0,0.0,0.0,0.0,0.0,0.0,0.0,0.0,0.0,0.0,0.0,0.0,0.0,0.0,0.0,0.0,0.0,0.0,0.0,0.0,0.0,0.0,0.0,0.0,0.0,0.0,0.0,0.0,0.0,0.0,0.0,0.0,0.0,0.0,0.0,0.0,0.0,0.0,0.0,0.0,0.0,0.0,0.0,0.0,0.0,0.0,0.0,0.0,0.0,0.0,0.0,0.0,0.0,0.0,0.0,0.0,0.0,0.0,0.0,0.0,0.0,0.0,0.0,0.0,0.0,0.0,0.0,0.0,0.0,0.0,0.0,0.0,0.0,0.0,0.0,0.0,0.0,0.0,0.0,0.0,0.0,0.0,0.0,0.0,0.0,0.0,0.0,0.0,0.0,0.0,0.0,0.0,0.0,0.0,0.0,0.0,0.0,0.0,0.0,0.0,0.0,0.0,0.0,0.0,0.0,0.0,0.0,0.0,0.0,0.0,0.0,0.0,0.0,0.0,0.0,0.0,0.0,0.0,0.0,0.0,0.0,0.0,0.0,0.0,0.0,0.0,0.0,0.0,0.0,0.0,0.0,0.0,0.0,0.0,0.0,0.0,0.0,0.0,0.0,0.0,0.0,0.0,0.0,0.0,0.0,0.0,0.0,0.0,0.0,0.0,0.0,0.0,0.0,0.0,0.0,0.0,0.0,0.0,0.0,0.0,0.0,0.0,0.0,0.0,0.0,0.0,0.0,0.0,0.0,0.0,0.0,0.0,0.0,0.0,0.0,0.0,0.0,0.0,0.0,0.0,0.0,0.0,0.0,0.0,0.0,0.0,0.0,0.0,0.0,0.0,0.0,0.0,0.0,0.0,0.0,0.0,0.0,0.0,0.0,0.0,0.0,0.0,0.0,0.0,0.0,0.0,0.0,0.0,0.0,0.0,0.0,0.0,0.0,0.0,0.0,0.0,0.0,0.0,0.0,0.0,0.0,0.0,0.0,0.0,0.0,0.0,0.0,0.0,0.0,0.0,0.0,0.0,0.0,0.0,0.0,0.0,0.0,0.0,0.0,0.0,0.0,0.0,0.0,0.0,0.0,0.0,0.0,0.0,0.0,0.0,0.0,0.0,0.0,0.0,0.0,0.0,0.0,0.0,0.0,0.0,0.0,0.0,0.0,0.0,0.0,0.0,0.0,0.0,0.0,0.0,0.0,0.0,0.0,0.0,0.0,0.0,0.0,0.0,0.0,0.0,0.0,0.0,0.0,0.0,0.0,0.0,0.0,0.0,0.0,0.0,0.0,0.0,0.0,0.0,0.0,0.0,0.0,0.0,0.0,0.0,0.0,0.0,0.0,0.0,0.0,0.0,0.0,0.0,0.0,0.0,0.0,0.0,0.0,0.0,0.0,0.0,0.0,0.0,0.0,0.0,0.0,0.0,0.0,0.0,0.0,0.0,0.0,0.0,0.0,0.0,0.0,0.0,0.0,0.0,0.0,0.0,0.0,0.0,0.0,0.0,0.0,0.0,0.0,0.0,0.0,0.0,0.0,0.0,0.0,0.0,0.0,0.0,0.0,0.0,0.0,0.0,0.0,0.0,0.0,0.0,0.0,0.0,0.0,0.0,0.0,0.0,0.0,0.0,0.0,0.0,0.0,0.0,0.0,0.0,0.0,0.0,0.0,0.0,0.0,0.0,0.0,0.0,0.0,0.0,0.0,0.0,0.0,0.0,0.0,0.0,0.0,0.0,0.0,0.0,0.0,0.0,0.0,0.0,0.0,0.0,0.0,0.0,0.0,0.0,0.0,0.0,0.0,0.0,0.0,0.0,0.0,0.0,0.0,0.0,0.0,0.0,0.0,0.0,-3.6011,0.0,0.0,0.0,0.0,0.0,0.0,0.0,0.0,0.0,0.0,0.0,0.0,0.0,0.0,0.0,0.0,0.0,0.0,0.0,0.0,0.0,0.0,0.0,0.0,0.0,0.0,0.0,0.0,0.0,0.0,0.0,0.0,0.0,0.0,0.0,0.0,0.0,0.0,0.0,0.0,0.0,0.0,0.0,0.0,0.0,0.0,0.0,0.0,0.0,0.0,0.0,0.0,0.0,0.0,0.0,0.0,0.0,0.0,0.0,0.0,0.0,0.0,0.0,0.0,0.0,0.0,0.0,0.0,0.0,0.0,0.0,0.0,0.0,0.0,0.0,0.0,0.0,0.0,0.0,0.0,0.0,0.0,0.0,0.0,0.0,0.0,0.0,0.0,0.0,0.0,0.0,0.0,0.0,0.0,0.0,0.0,0.0,0.0,0.0,0.0,0.0,0.0,0.0,0.0,0.0,0.0,0.0,0.0,0.0,0.0,0.0,0.0,0.0,0.0,0.0,0.0,-4.1338,0.0,0.0,0.0,0.0,0.0,0.0,0.0,0.0,0.0,0.0,0.0,0.0,0.0,0.0,0.0,0.0,0.0,0.0,0.0,0.0,0.0,0.0,0.0,0.0,0.0,0.0,0.0,0.0,0.0,0.0,0.0,0.0,0.0,0.0,0.0,0.0,0.0,0.0,0.0,0.0,0.0,0.0,0.0,0.0,0.0,0.0,0.0,0.0,0.0,0.0,0.0,0.0,0.0,0.0,0.0,0.0,0.0,0.0,0.0,0.0,0.0,0.0,0.0,0.0,0.0,0.0,0.0,0.0,0.0,0.0,0.0,0.0,0.0,0.0,0.0,0.0,0.0,0.0,0.0,0.0,0.0,0.0,0.0,0.0,0.0,0.0,0.0,0.0,0.0,0.0,0.0,0.0,0.0,0.0,0.0,0.0,0.0,0.0,0.0,0.0,0.0,0.0,0.0,0.0,0.0,0.0,0.0,0.0,-4.8973,-5.1415,-5.4705,-5.4646,-5.5454,-5.6671,-5.1488,-4.8436,-4.7015,-4.4992,0.0,0.0,0.0,0.0,0.0,0.0,0.0,0.0,0.0,0.0,0.0,0.0,0.0,0.0,0.0,0.0,0.0,0.0,0.0,0.0,0.0,0.0,0.0,0.0,0.0,0.0,0.0,0.0,0.0,0.0,0.0,0.0,0.0,0.0,0.0,0.0,0.0,0.0,0.0,0.0,0.0,0.0,0.0,0.0,0.0,0.0,0.0,0.0,0.0,0.0,0.0,0.0,0.0,0.0,0.0,0.0,0.0,0.0,0.0,0.0,0.0,0.0,0.0,0.0,0.0,0.0,0.0,0.0,0.0,0.0,0.0,0.0,0.0,0.0,0.0,0.0,0.0,0.0,0.0,0.0,0.0,0.0,0.0,0.0,0.0,0.0,-3.0808,-3.3363,0.0,0.0,0.0,0.0,0.0,0.0,0.0,0.0,0.0,0.0,0.0,0.0,0.0,-4.7905,-4.937,-5.1705,-5.4142,-5.6541,-5.6732,-5.7962,-5.998,-6.0047,-5.988,-5.9475,-5.8783,0.0,-5.2311,-4.9257,0.0,0.0,0.0,0.0,0.0,0.0,0.0,0.0,0.0,0.0,0.0,0.0,0.0,0.0,0.0,0.0,0.0,0.0,0.0,0.0,0.0,0.0,0.0,0.0,0.0,0.0,0.0,0.0,0.0,0.0,0.0,0.0,0.0,0.0,0.0,0.0,0.0,0.0,0.0,0.0,0.0,0.0,0.0,0.0,0.0,0.0,0.0,0.0,0.0,0.0,0.0,0.0,0.0,0.0,0.0,0.0,0.0,0.0,0.0,0.0,0.0,0.0,0.0,0.0,0.0,0.0,0.0,0.0,0.0,0.0,0.0,0.0,0.0,0.0,0.0,0.0,0.0,0.0,0.0,0.0,0.0,0.0,0.0,0.0,0.0,-3.0682,-3.3798,-3.7623,-3.7642,-3.7791,0.0,0.0,0.0,0.0,0.0,0.0,0.0,0.0,0.0,-4.9512,-5.236,-5.3983,-5.418,-5.6101,-5.7452,-5.8089,-5.9101,-6.0563,-6.24,-6.2959,-6.28,-6.2037,-6.2601,-6.0871,-5.7418,-5.4238,-5.3299,-5.3414,0.0,0.0,0.0,0.0,-4.6506,-4.7591,0.0,0.0,0.0,0.0,0.0,0.0,0.0,0.0,0.0,0.0,0.0,0.0,0.0,0.0,0.0,0.0,0.0,0.0,0.0,0.0,0.0,0.0,0.0,0.0,0.0,0.0,0.0,0.0,0.0,0.0,0.0,0.0,0.0,0.0,0.0,0.0,0.0,0.0,0.0,0.0,0.0,0.0,0.0,0.0,0.0,0.0,0.0,0.0,0.0,0.0,0.0,0.0,0.0,0.0,0.0,0.0,0.0,0.0,0.0,0.0,0.0,0.0,0.0,0.0,0.0,0.0,0.0,0.0,0.0,0.0,0.0,0.0,0.0,0.0,0.0,0.0,0.0,-3.3582,-3.6588,-4.0822,-4.1727,-4.2397,0.0,0.0,0.0,0.0,0.0,0.0,-4.9031,-5.2046,-5.4194,-5.5276,-5.7887,-5.8986,-5.8537,-5.9628,-6.0379,-6.0642,-6.1694,-6.3465,-6.5803,-6.6518,-6.6365,-6.5568,-6.5796,-6.459,-6.218,-5.8835,-5.7308,-5.686,-5.4448,-5.3812,-5.4057,-5.2677,-5.2927,-5.4352,0.0,0.0,0.0,0.0,0.0,0.0,0.0,0.0,0.0,0.0,0.0,0.0,0.0,0.0,0.0,0.0,0.0,0.0,0.0,0.0,0.0,0.0,0.0,0.0,0.0,0.0,0.0,0.0,0.0,0.0,0.0,0.0,0.0,0.0,0.0,0.0,0.0,0.0,0.0,0.0,0.0,0.0,0.0,0.0,0.0,0.0,0.0,0.0,0.0,0.0,0.0,0.0,0.0,0.0,0.0,0.0,0.0,0.0,0.0,0.0,0.0,0.0,0.0,0.0,0.0,0.0,0.0,0.0,0.0,0.0,0.0,0.0,0.0,0.0,0.0,0.0,0.0,0.0,0.0,-4.1093,-4.4638,0.0,0.0,0.0,0.0,-5.135,-5.2365,-5.4213,-5.7338,-5.7676,-5.8539,-6.0191,-6.1281,-6.2184,-6.2861,-6.2936,-6.4632,-6.7764,-6.6967,-6.8485,-7.1938,-7.1976,-7.1636,-7.0839,-6.9207,-6.7883,-6.6522,-6.2331,-6.0214,-5.9597,-5.9446,-5.9403,-5.9614,-6.0387,-6.1286,-6.2376,0.0,0.0,0.0,0.0,0.0,0.0,0.0,0.0,0.0,0.0,0.0,0.0,0.0,0.0,0.0,0.0,0.0,0.0,0.0,0.0,0.0,0.0,0.0,0.0,0.0,0.0,0.0,0.0,0.0,0.0,0.0,0.0,0.0,0.0,0.0,0.0,0.0,0.0,0.0,0.0,0.0,0.0,0.0,0.0,0.0,0.0,0.0,0.0,0.0,0.0,0.0,0.0,0.0,0.0,0.0,0.0,0.0,0.0,0.0,0.0,0.0,0.0,0.0,0.0,0.0,0.0,0.0,0.0,0.0,0.0,0.0,0.0,0.0,0.0,0.0,0.0,0.0,0.0,0.0,-4.5618,-4.8196,0.0,-5.2604,-5.361,-5.4635,-5.5898,-5.7291,-5.8798,-6.0529,-6.1582,-6.2711,-6.3917,-6.4706,-6.5045,-6.4819,-6.5793,-6.6921,-6.8128,-6.9005,-7.0369,-7.2154,-7.2844,-7.2431,-7.1103,-7.099,-6.9853,-6.7884,-6.6257,-6.4595,-6.2967,-6.3107,-6.3141,-6.3255,-6.4253,-6.4508,-6.447,0.0,0.0,0.0,0.0,0.0,0.0,0.0,0.0,0.0,0.0,0.0,0.0,0.0,0.0,0.0,0.0,0.0,0.0,0.0,0.0,0.0,0.0,0.0,0.0,0.0,0.0,0.0,0.0,0.0,0.0,0.0,0.0,0.0,0.0,0.0,0.0,0.0,0.0,0.0,0.0,0.0,0.0,-3.9948,0.0,0.0,0.0,0.0,0.0,0.0,0.0,0.0,0.0,0.0,0.0,0.0,0.0,0.0,0.0,0.0,0.0,0.0,0.0,0.0,0.0,0.0,0.0,0.0,0.0,0.0,0.0,0.0,0.0,0.0,0.0,0.0,0.0,0.0,0.0,-4.5293,-4.8521,-5.163,-5.4365,-5.6493,-5.8257,-5.9578,-6.0228,-6.1507,-6.2672,-6.3458,-6.455,-6.5417,-6.6061,-6.6585,-6.6886,-6.6886,-6.7631,-6.8565,-6.9697,-7.0696,-7.1761,-7.2859,-7.3552,-7.3446,-7.2649,-7.2872,-7.193,-7.0153,-7.0073,-6.8711,-6.6636,-6.5454,-6.5027,-6.5061,-6.5595,-6.5772,-6.6008,0.0,0.0,0.0,0.0,0.0,0.0,0.0,0.0,0.0,0.0,0.0,0.0,0.0,0.0,0.0,0.0,0.0,0.0,0.0,0.0,0.0,0.0,0.0,0.0,0.0,0.0,0.0,0.0,0.0,0.0,0.0,0.0,0.0,0.0,0.0,0.0,0.0,0.0,0.0,0.0,0.0,0.0,-4.5061,0.0,0.0,0.0,0.0,0.0,0.0,0.0,0.0,0.0,0.0,0.0,0.0,0.0,0.0,0.0,0.0,0.0,0.0,0.0,0.0,0.0,0.0,0.0,0.0,0.0,0.0,0.0,0.0,0.0,0.0,0.0,0.0,0.0,-4.1245,-4.4777,-4.7974,-4.9537,-5.4852,-5.8388,-5.842,-6.1504,-6.3729,-6.4284,-6.511,-6.5816,-6.6381,-6.6587,-6.663,-6.663,-6.6833,-6.7626,-6.9203,-6.8527,-6.981,-7.31,-7.231,-7.2849,-7.4519,-7.4519,-7.5021,-7.5863,-7.4984,-7.419,-7.3519,-7.3393,-7.2331,-7.0486,-6.667,-6.5285,-6.5296,-6.4717,-6.5541,-6.7454,0.0,0.0,0.0,0.0,0.0,0.0,0.0,0.0,0.0,0.0,0.0,0.0,0.0,0.0,0.0,0.0,0.0,0.0,0.0,0.0,0.0,0.0,0.0,0.0,0.0,0.0,0.0,0.0,0.0,0.0,0.0,0.0,0.0,0.0,0.0,0.0,0.0,0.0,0.0,0.0,0.0,0.0,-4.7815,0.0,0.0,0.0,0.0,0.0,0.0,0.0,0.0,0.0,0.0,0.0,0.0,0.0,0.0,0.0,0.0,0.0,0.0,0.0,0.0,0.0,0.0,0.0,0.0,0.0,0.0,0.0,0.0,0.0,0.0,0.0,0.0,-4.6414,-4.6388,-4.9353,-5.2548,-5.524,-5.8234,-6.0453,-6.1581,-6.3879,-6.5238,-6.5148,-6.6018,-6.6721,-6.724,-6.7322,-6.7366,-6.7492,-6.8608,-6.917,-6.9072,-7.0646,-7.1929,-7.2928,-7.2918,-7.3501,-7.4649,-7.4771,-7.5229,-7.6066,-7.644,-7.5759,-7.4475,-7.4351,-7.3284,-7.1576,-7.0607,-6.9891,-6.9399,-6.9391,-7.0106,-7.1204,0.0,0.0,0.0,0.0,0.0,0.0,0.0,0.0,0.0,0.0,0.0,0.0,0.0,0.0,0.0,0.0,0.0,0.0,0.0,0.0,0.0,0.0,0.0,0.0,0.0,0.0,0.0,0.0,0.0,0.0,0.0,0.0,0.0,0.0,0.0,0.0,0.0,0.0,0.0,0.0,0.0,0.0,-5.1009,-4.9305,-4.7258,-4.5197,-4.3819,-4.2235,-4.0481,-3.8404,0.0,0.0,0.0,0.0,0.0,0.0,0.0,0.0,0.0,0.0,0.0,0.0,0.0,0.0,0.0,0.0,0.0,0.0,0.0,0.0,0.0,0.0,0.0,0.0,-4.7446,-5.053,-5.214,-5.3992,-5.5951,-5.8128,-6.0604,-6.2598,-6.3499,-6.5652,-6.6972,-6.7025,-6.7856,-6.8597,-6.9062,-6.9099,-6.9042,-6.8788,-6.9593,-7.0088,-7.0076,-7.1453,-7.2548,-7.3354,-7.3575,-7.4168,-7.5091,-7.5216,-7.5755,-7.6511,-7.7041,-7.6284,-7.4691,-7.4984,-7.4029,0.0,0.0,0.0,0.0,0.0,-7.1441,-7.2353,0.0,0.0,0.0,0.0,0.0,0.0,0.0,0.0,0.0,0.0,0.0,0.0,0.0,0.0,0.0,0.0,0.0,0.0,0.0,0.0,0.0,0.0,0.0,0.0,0.0,0.0,0.0,0.0,0.0,0.0,0.0,0.0,0.0,0.0,0.0,0.0,0.0,0.0,0.0,0.0,0.0,0.0,-5.4218,-5.2614,-5.0971,-4.9389,-4.8449,-4.7073,-4.5354,-4.2962,0.0,0.0,0.0,0.0,0.0,0.0,0.0,0.0,0.0,0.0,0.0,0.0,0.0,0.0,0.0,0.0,0.0,0.0,0.0,0.0,0.0,0.0,0.0,0.0,-5.1058,-5.4021,-5.7641,-5.8315,-5.8689,-5.9433,-6.2363,-6.4399,-6.4629,-6.6857,-6.8553,-6.9128,-6.991,-7.06,-7.1044,0.0,0.0,0.0,0.0,-7.0714,-7.1453,-7.1546,-7.2368,-7.4009,-7.4151,-7.4703,-7.563,-7.5833,-7.6331,-7.701,-7.7085,-7.6135,-7.4664,-7.5329,-7.4644,-7.3069,-7.1023,-7.0232,-7.027,-7.0416,-7.1058,-7.22,0.0,0.0,0.0,0.0,0.0,0.0,0.0,0.0,0.0,0.0,0.0,0.0,0.0,0.0,0.0,0.0,0.0,0.0,0.0,0.0,0.0,0.0,0.0,0.0,0.0,0.0,0.0,0.0,0.0,0.0,0.0,0.0,0.0,0.0,0.0,0.0,0.0,0.0,0.0,0.0,0.0,0.0,-5.5935,-5.5008,-5.3604,-5.1959,-5.0428,-4.9242,-4.8171,-4.6959,-4.554,-4.4107,-4.3416,0.0,0.0,0.0,0.0,0.0,0.0,0.0,0.0,0.0,0.0,0.0,0.0,0.0,0.0,0.0,0.0,0.0,0.0,0.0,0.0,-5.0847,-5.4371,-5.7492,-5.939,-6.0886,-6.2048,-6.2832,-6.3742,-6.4841,-6.6165,-6.7495,-6.8512,-6.8997,-6.9859,-7.0499,-7.0933,-7.0971,-7.0648,-6.9927,-7.1181,-7.1591,-7.1168,-7.251,-7.3429,-7.4009,0.0,0.0,-7.5758,-7.6482,-7.6859,-7.701,-7.7635,-7.6864,-7.5267,-7.5371,-7.4937,-7.4099,-7.3053,-7.2724,-7.281,-7.2205,-7.2926,-7.433,0.0,0.0,0.0,0.0,0.0,0.0,0.0,0.0,0.0,0.0,0.0,0.0,0.0,0.0,0.0,0.0,0.0,0.0,0.0,0.0,0.0,0.0,0.0,0.0,0.0,0.0,0.0,0.0,0.0,0.0,0.0,0.0,0.0,0.0,0.0,0.0,0.0,0.0,0.0,0.0,0.0,0.0,-5.6349,-5.567,-5.4587,-5.3301,-5.205,-5.1056,-5.0153,-4.8846,-4.7808,-4.6946,-4.6091,-4.4287,-4.2009,0.0,0.0,0.0,0.0,0.0,0.0,0.0,0.0,0.0,0.0,0.0,0.0,0.0,0.0,-4.4346,0.0,0.0,-5.236,-5.516,-5.7603,-5.9663,-6.1097,-6.2407,-6.3425,-6.3792,-6.4823,-6.5881,-6.7128,-6.849,-6.9246,-6.9203,-7.0563,-7.1359,-7.1216,-7.1852,-7.1876,-7.1193,-7.2248,-7.242,-7.1752,-7.2931,-7.3578,-7.3815,-7.4383,-7.5164,-7.6132,-7.7099,-7.7476,-7.7429,-7.7382,-7.6611,-7.5399,-7.5399,-7.5229,-7.4945,-7.5028,-7.4984,-7.4743,-7.3947,-7.4705,-7.6145,0.0,0.0,0.0,0.0,0.0,0.0,0.0,0.0,0.0,0.0,0.0,0.0,0.0,0.0,0.0,0.0,0.0,0.0,0.0,0.0,0.0,0.0,0.0,0.0,0.0,0.0,0.0,0.0,0.0,0.0,0.0,0.0,0.0,0.0,0.0,0.0,0.0,0.0,0.0,0.0,0.0,0.0,-5.6045,-5.55,-5.4676,-5.3632,-5.2959,-5.1915,-5.0593,-4.9363,-4.8729,-4.8234,-4.7038,-4.5864,-4.4402,-4.1358,-3.9905,0.0,0.0,0.0,0.0,0.0,0.0,0.0,0.0,0.0,-4.2677,-4.5209,-4.7078,-4.937,-5.2982,-5.448,-5.6061,-5.8914,-6.0226,-6.1347,-6.255,-6.3333,-6.3817,-6.4003,-6.5484,-6.6924,-6.7941,-6.9439,-7.0121,-6.9853,-7.1499,-7.2368,-7.193,-7.292,-7.3266,-7.2646,-7.309,-7.3127,-7.2596,-7.3127,-7.3476,-7.3615,-7.4786,-7.572,-7.6406,-7.7614,-7.7963,-7.7528,-7.6654,-7.5904,-7.5304,-7.5502,-7.5577,-7.5699,-7.6479,-7.667,-7.6365,-7.546,-7.5952,-7.7126,0.0,0.0,0.0,0.0,0.0,0.0,0.0,0.0,0.0,0.0,0.0,0.0,0.0,0.0,0.0,0.0,0.0,0.0,0.0,0.0,0.0,0.0,0.0,0.0,0.0,0.0,0.0,0.0,0.0,0.0,0.0,0.0,0.0,0.0,0.0,0.0,0.0,0.0,0.0,0.0,0.0,0.0,-5.4881,-5.4979,-5.4096,-5.2715,-5.2585,-5.0544,-4.7973,-4.8606,-4.7783,-4.6605,-4.7272,-4.6335,-4.4607,-4.2692,0.0,-4.0967,-3.7652,-3.7169,-3.8137,-4.0272,-4.0328,-4.0877,0.0,0.0,-4.6862,-4.9551,-5.1298,-5.2922,-5.487,-5.6407,-5.7976,-5.9723,-6.1288,-6.2588,-6.3386,-6.3565,-6.3907,-6.4584,-6.5605,-6.6971,-6.8683,-6.9739,-7.0563,-7.1246,-7.2042,-7.2806,-7.3516,-7.335,-7.332,-7.3466,-7.332,-7.3268,-7.3313,-7.3335,-7.3476,-7.3615,-7.5194,-7.6028,-7.6293,-7.8003,-7.7891,-7.6368,-7.5394,-7.5034,-7.5135,-7.5845,-7.6256,-7.6488,-7.6742,-7.7296,-7.781,-7.6312,-7.5901,-7.6166,0.0,0.0,0.0,0.0,0.0,0.0,0.0,0.0,0.0,0.0,0.0,0.0,0.0,0.0,0.0,0.0,0.0,0.0,0.0,0.0,0.0,0.0,0.0,0.0,0.0,0.0,0.0,0.0,0.0,0.0,0.0,0.0,0.0,0.0,0.0,0.0,0.0,0.0,0.0,0.0,0.0,0.0,-5.4698,-5.4201,-5.2991,-5.1499,-5.1036,-4.9597,0.0,0.0,-4.6016,-4.5817,-4.5783,-4.4926,-4.3705,-4.2448,-4.1694,0.0,-4.005,-3.9981,-4.0756,0.0,-4.393,-4.4972,-4.8684,-4.9542,-5.0284,-5.2888,-5.431,-5.5472,-5.6668,-5.824,-5.9698,0.0,-6.1852,-6.2768,-6.358,-6.3511,-6.3725,-6.4679,-6.4733,-6.5605,-6.7812,-6.9378,-7.0226,-7.0076,-7.2032,-7.2993,-7.2491,-7.3093,-7.3461,-7.3476,-7.3461,-7.341,-7.3305,-7.332,-7.3632,-7.4063,-7.5388,-7.6312,-7.6924,-7.8289,-7.8177,-7.6952,-7.663,-7.6168,-7.5757,-7.6616,-7.7054,-7.7291,-7.7828,-7.8339,-7.8558,-7.7085,-7.6872,-7.7414,0.0,0.0,0.0,0.0,0.0,0.0,0.0,0.0,0.0,0.0,0.0,0.0,0.0,0.0,0.0,0.0,0.0,0.0,0.0,0.0,0.0,0.0,0.0,0.0,0.0,0.0,0.0,0.0,0.0,0.0,0.0,0.0,0.0,0.0,0.0,0.0,0.0,0.0,0.0,0.0,0.0,0.0,-5.4258,-5.3333,-5.1764,-4.9934,-4.9386,-4.8031,0.0,0.0,-4.3473,-4.3352,-4.3007,-4.2548,-4.1958,-4.1268,-4.0616,-4.0384,-4.1622,0.0,0.0,-4.5356,-4.6987,-4.8661,-5.156,-5.238,-5.3162,-5.5511,-5.6444,-5.7154,-5.8015,-5.9362,-6.0596,-6.1459,-6.2076,-6.2761,-6.3691,-6.3271,-6.3178,-6.3993,-6.3424,-6.3907,-6.6245,-6.8381,-6.9507,-6.9228,-7.1787,-7.2869,-7.1808,-7.2833,-7.3476,-7.3424,-7.3476,-7.3461,-7.3199,-7.332,-7.3766,-7.4421,-7.5469,-7.6393,-7.734,-7.8162,-7.8139,-7.7564,-7.7615,-7.7191,-7.6565,-7.7371,-7.7849,-7.8041,-7.8639,-7.8966,-7.8966,-7.7956,-7.7915,-7.8353,0.0,0.0,0.0,0.0,0.0,0.0,0.0,0.0,0.0,0.0,0.0,0.0,0.0,0.0,0.0,0.0,0.0,0.0,0.0,0.0,0.0,0.0,0.0,0.0,0.0,0.0,0.0,0.0,0.0,0.0,0.0,0.0,0.0,0.0,0.0,0.0,0.0,0.0,0.0,0.0,0.0,0.0,-5.3165,-5.2403,-5.0429,-4.8065,-4.8002,0.0,0.0,0.0,-3.9954,-3.8081,-3.8897,-3.9239,0.0,-3.9073,-3.8929,0.0,0.0,0.0,-4.435,-4.6895,-4.9412,-5.1713,-5.3535,-5.4541,-5.5585,-5.734,-5.7637,-5.7859,-5.8798,-5.9577,-6.0431,-6.1375,-6.1949,-6.2666,-6.3641,-6.2761,-6.2096,-6.2271,-6.1619,-6.2019,0.0,-6.6444,-6.8361,-6.9595,-7.118,-7.2248,-7.2348,-7.2838,-7.3231,-7.3578,-7.3476,-7.3357,-7.3199,-7.332,-7.3766,-7.4421,-7.5362,-7.634,-7.7303,-7.7498,-7.7564,-7.7679,-7.7409,-7.7303,-7.734,-7.796,-7.8404,-7.8671,-7.8708,-7.8864,-7.9079,-7.9041,-7.8661,-7.8217,0.0,0.0,0.0,0.0,0.0,0.0,0.0,0.0,0.0,0.0,0.0,0.0,0.0,0.0,0.0,0.0,0.0,0.0,0.0,0.0,0.0,0.0,0.0,0.0,0.0,0.0,0.0,0.0,0.0,0.0,0.0,0.0,0.0,0.0,0.0,0.0,0.0,0.0,0.0,0.0,0.0,0.0,-5.1274,-5.0483,-4.8754,-4.6557,0.0,0.0,0.0,0.0,0.0,0.0,-3.7198,0.0,0.0,-3.8345,-3.9328,-4.0785,0.0,0.0,-4.6942,-5.001,-5.1899,-5.3571,-5.5802,-5.6509,-5.7069,-5.8306,-5.7925,-5.7509,-5.8008,-5.8148,-5.8549,-5.9492,-6.0667,-6.1575,-6.1863,-6.2345,-6.2509,-6.2096,-6.1855,0.0,0.0,0.0,0.0,-6.8593,-6.9446,-7.0276,-7.1355,-7.1969,-7.2569,-7.3162,-7.3215,-7.3162,-7.3091,-7.3162,-7.3882,-7.5199,-7.6844,-7.7825,-7.8192,-7.8245,-7.8297,-7.8245,-7.8139,-7.8031,-7.796,-7.8072,-7.8349,-7.8708,-7.8602,-7.8812,-7.9116,-7.9116,-7.9026,-7.8907,0.0,0.0,0.0,0.0,0.0,0.0,0.0,0.0,0.0,0.0,0.0,0.0,0.0,0.0,0.0,0.0,0.0,0.0,0.0,0.0,0.0,0.0,0.0,0.0,0.0,0.0,0.0,0.0,0.0,0.0,0.0,0.0,0.0,0.0,0.0,0.0,0.0,0.0,0.0,0.0,0.0,0.0,-4.887,-4.7751,-4.5885,0.0,0.0,0.0,0.0,0.0,0.0,0.0,0.0,-3.6698,-3.7885,-3.8782,-4.0372,-4.2368,-4.4748,-4.7022,-4.9381,-5.2195,-5.4014,-5.554,-5.7097,-5.7691,-5.7992,-5.8293,-5.758,-5.6911,-5.6774,-5.658,-5.6911,-5.8148,-5.9361,-6.0307,-6.0988,-6.1726,-6.214,-6.1966,-6.2022,-6.2936,0.0,0.0,0.0,-6.7797,-6.8222,-6.8976,-7.0554,-7.1353,-7.215,-7.2945,-7.3108,-7.3071,-7.2982,-7.3404,-7.4421,-7.6198,-7.7717,-7.8549,-7.8655,-7.8708,-7.8655,-7.8495,-7.8549,-7.8441,-7.8221,-7.8071,-7.8183,-7.8458,-7.8495,-7.8655,-7.8915,-7.9016,-7.9116,-7.9165,0.0,0.0,0.0,0.0,0.0,0.0,0.0,0.0,0.0,0.0,0.0,0.0,0.0,0.0,0.0,0.0,0.0,0.0,0.0,0.0,0.0,0.0,0.0,0.0,0.0,0.0,0.0,0.0,0.0,0.0,0.0,0.0,0.0,0.0,0.0,0.0,0.0,0.0,0.0,0.0,0.0,0.0,-4.5988,-4.4294,0.0,0.0,0.0,0.0,0.0,0.0,0.0,0.0,0.0,0.0,-3.874,-4.031,-4.2085,-4.4124,-4.6543,-4.9156,-5.1637,-5.3458,-5.5686,-5.7468,-5.7381,-5.8021,-5.8359,-5.746,-5.6685,-5.5912,0.0,0.0,-5.5393,-5.7186,-5.7992,-5.9017,-6.0815,-6.0929,-6.108,0.0,0.0,0.0,0.0,0.0,0.0,-6.725,0.0,-6.8311,-6.9889,-7.0974,-7.1932,-7.2945,-7.3054,-7.3054,-7.2982,-7.3959,-7.5345,-7.7087,-7.7994,-7.8458,-7.8495,-7.876,-7.876,-7.8495,-7.8602,-7.8404,-7.8014,-7.8014,-7.8014,-7.8014,-7.8349,-7.8495,-7.8549,-7.8812,-7.8915,-7.8915,0.0,0.0,0.0,0.0,0.0,0.0,0.0,0.0,0.0,0.0,0.0,0.0,0.0,0.0,0.0,0.0,0.0,0.0,0.0,0.0,0.0,0.0,0.0,0.0,0.0,0.0,0.0,0.0,0.0,0.0,0.0,0.0,0.0,0.0,0.0,0.0,0.0,0.0,0.0,0.0,0.0,0.0,-4.152,0.0,0.0,0.0,0.0,0.0,0.0,0.0,0.0,0.0,0.0,0.0,-4.087,-4.3651,-4.5333,-4.6801,-4.9072,-5.1173,-5.3179,-5.488,-5.6256,-5.7371,-5.8048,-5.7899,-5.7423,-5.6689,-5.531,-5.3783,0.0,0.0,0.0,-5.4223,-5.5825,0.0,-5.8894,-6.0707,0.0,-6.0977,0.0,-6.4057,-6.5191,-6.4846,0.0,0.0,-6.6938,-6.7263,-6.8505,-7.0386,-7.1745,-7.261,-7.2667,-7.2779,-7.2982,-7.403,-7.5453,-7.7087,-7.7328,-7.7737,-7.8332,-7.8441,-7.8386,-7.8332,-7.8386,-7.8221,-7.7842,-7.7842,-7.7842,-7.7842,-7.7994,-7.8183,-7.8495,-7.8602,-7.8655,-7.876,0.0,0.0,0.0,0.0,0.0,0.0,0.0,0.0,0.0,0.0,0.0,0.0,0.0,0.0,0.0,0.0,0.0,0.0,0.0,0.0,0.0,0.0,0.0,0.0,0.0,0.0,0.0,0.0,0.0,0.0,0.0,0.0,0.0,0.0,0.0,0.0,0.0,0.0,0.0,0.0,0.0,0.0,0.0,0.0,0.0,0.0,0.0,0.0,0.0,0.0,0.0,-3.8891,-4.0873,-4.2356,-4.3818,-4.6177,0.0,-4.9269,-5.0721,-5.2495,-5.4248,-5.5623,-5.6293,-5.6779,-5.7344,-5.6784,-5.5747,-5.4229,-5.2779,0.0,0.0,0.0,0.0,0.0,0.0,0.0,-5.7691,-5.9944,-6.1412,0.0,-6.2867,0.0,-6.5705,-6.4961,-6.5075,0.0,-6.6427,-6.6921,-6.8587,-6.9811,-7.1055,-7.2343,-7.238,-7.2737,-7.3499,-7.4269,-7.5416,-7.7087,-7.6995,-7.7385,-7.8165,-7.8165,-7.8221,-7.8276,0.0,-7.8276,-7.8071,-7.8051,-7.8014,-7.7957,-7.79,-7.8071,-7.8294,-7.8294,-7.8294,-7.8349,0.0,0.0,0.0,0.0,0.0,0.0,0.0,0.0,0.0,0.0,0.0,0.0,0.0,0.0,0.0,0.0,0.0,0.0,0.0,0.0,0.0,0.0,0.0,0.0,0.0,0.0,0.0,0.0,0.0,0.0,0.0,0.0,0.0,0.0,0.0,0.0,0.0,0.0,0.0,0.0,0.0,0.0,0.0,0.0,0.0,0.0,0.0,0.0,0.0,0.0,-3.7971,-4.0848,-4.2182,-4.4328,-4.6609,-4.8122,-4.9743,-5.1187,-5.1825,-5.3272,-5.4847,-5.5673,-5.5858,-5.5858,-5.5895,-5.504,-5.3514,-5.1182,0.0,-4.8748,-4.7095,-4.8049,-4.941,-5.0446,0.0,-5.5423,-5.6694,-5.8747,-6.0461,-6.1371,-6.2755,-6.4354,-6.5983,-6.4709,-6.4473,-6.6186,-6.6007,-6.6837,-6.915,-6.9477,-7.0492,-7.2285,-7.2358,-7.2957,-7.4164,-7.4327,-7.5341,-7.7087,-7.6662,-7.6977,-7.7886,-7.7774,-7.7794,-7.7942,-7.8218,-7.8197,-7.7957,-7.8183,-7.8128,-7.7849,-7.7903,-7.7957,-7.7957,-7.7957,-7.7957,-7.7957,0.0,0.0,0.0,0.0,0.0,0.0,0.0,0.0,0.0,0.0,0.0,0.0,0.0,0.0,0.0,0.0,0.0,0.0,0.0,0.0,0.0,0.0,0.0,0.0,0.0,0.0,0.0,0.0,0.0,0.0,0.0,0.0,0.0,0.0,0.0,0.0,0.0,0.0,0.0,0.0,0.0,0.0,0.0,0.0,0.0,0.0,0.0,0.0,0.0,0.0,-3.7825,-4.0709,-4.3178,-4.4894,-4.6544,-4.9561,-5.0588,-5.1099,-5.2564,-5.3713,-5.4575,-5.4723,-5.4759,-5.4801,-5.4921,-5.3142,0.0,0.0,0.0,-4.6983,-4.5334,-4.581,0.0,-4.8642,0.0,0.0,0.0,0.0,-5.826,0.0,0.0,0.0,0.0,0.0,0.0,0.0,0.0,-6.6697,-6.8637,-7.0047,-7.1311,-7.2438,-7.2553,-7.3128,-7.4164,-7.3591,-7.4569,-7.705,-7.5513,-7.5661,-7.7273,-7.6476,-7.6233,-7.627,-7.7138,0.0,-7.5416,-7.7459,-7.7441,-7.6162,-7.7382,-7.7842,-7.7842,-7.7842,-7.7842,-7.7842,0.0,0.0,0.0,0.0,0.0,0.0,0.0,0.0,0.0,0.0,-1.7458,-1.8328,0.0,0.0,0.0,0.0,0.0,0.0,0.0,0.0,0.0,0.0,0.0,0.0,0.0,0.0,0.0,0.0,0.0,0.0,0.0,0.0,0.0,0.0,0.0,0.0,0.0,0.0,0.0,0.0,0.0,0.0,0.0,0.0,0.0,0.0,0.0,0.0,0.0,0.0,-3.546,-3.8611,-4.2995,-4.5626,-4.7573,-4.9634,-5.0438,-5.0945,-5.2279,-5.2909,-5.347,-5.4519,-5.4035,-5.3293,-5.3047,0.0,0.0,0.0,0.0,-4.4526,-4.3324,0.0,0.0,0.0,0.0,0.0,0.0,0.0,0.0,0.0,0.0,0.0,0.0,0.0,0.0,0.0,0.0,-6.6445,-6.8888,-7.0741,-7.1955,-7.238,-7.261,-7.3185,-7.4164,-7.3905,-7.4643,-7.6382,-7.5439,-7.5513,-7.631,-7.5792,-7.5884,-7.6419,-7.6473,-7.6356,-7.6148,-7.684,-7.6638,-7.6027,-7.694,-7.7328,-7.7422,-7.7614,-7.7445,-7.7076,0.0,0.0,0.0,0.0,0.0,0.0,0.0,-1.5246,-1.575,-1.6054,-1.7472,-1.8487,-1.8678,-1.877,0.0,0.0,0.0,0.0,0.0,0.0,0.0,0.0,0.0,0.0,0.0,0.0,0.0,0.0,0.0,0.0,0.0,0.0,0.0,0.0,0.0,0.0,0.0,0.0,0.0,0.0,0.0,0.0,0.0,0.0,0.0,0.0,0.0,0.0,0.0,0.0,-3.2942,-3.603,-4.107,-4.4526,-4.7015,-4.83,-4.9175,-5.0017,-5.1132,-5.1768,-5.2518,-5.4049,-5.3232,-5.1896,-5.1158,-4.9159,0.0,0.0,-4.2777,-4.2194,-4.1579,0.0,0.0,0.0,0.0,0.0,0.0,0.0,0.0,0.0,0.0,0.0,0.0,0.0,0.0,0.0,0.0,0.0,-6.9413,-7.118,-7.2307,-7.2695,-7.2924,-7.3499,-7.4478,-7.4571,-7.5031,-7.5787,-7.5661,-7.5606,-7.5661,-7.5551,-7.594,-7.6716,-7.6324,-7.6393,-7.6901,-7.6461,-7.6163,-7.6042,-7.6456,-7.6699,-7.6977,-7.7282,-7.7031,-7.6567,0.0,0.0,0.0,0.0,0.0,0.0,0.0,-1.5719,-1.6144,-1.6985,-1.7918,-1.8526,-1.8678,-1.8715,0.0,0.0,0.0,0.0,0.0,0.0,0.0,0.0,0.0,0.0,0.0,0.0,0.0,0.0,0.0,0.0,0.0,0.0,0.0,0.0,0.0,0.0,0.0,0.0,0.0,0.0,0.0,0.0,0.0,0.0,0.0,0.0,0.0,0.0,0.0,0.0,0.0,-3.3838,-3.6146,-3.9111,-4.2243,-4.4623,0.0,0.0,-4.8857,-5.0762,-5.2336,-5.2564,-5.1972,-5.1046,-5.0082,0.0,0.0,0.0,-4.1833,-4.0745,-4.078,0.0,0.0,0.0,0.0,0.0,0.0,0.0,0.0,0.0,0.0,0.0,0.0,0.0,0.0,0.0,0.0,0.0,-6.9981,-7.0973,-7.2318,-7.396,-7.409,-7.4515,-7.5495,-7.5384,-7.5477,-7.5787,-7.5661,-7.5661,-7.5787,-7.5787,-7.5824,-7.5936,-7.684,-7.6372,0.0,-7.6595,-7.6297,-7.4993,-7.5655,-7.6217,-7.6659,-7.6675,-7.6884,-7.7255,0.0,0.0,0.0,0.0,0.0,0.0,0.0,-1.4968,-1.5645,-1.6429,-1.7345,-1.7859,-1.7803,-1.7932,-1.795,0.0,0.0,0.0,0.0,0.0,0.0,0.0,0.0,0.0,0.0,0.0,0.0,-2.0451,-2.0149,0.0,0.0,0.0,0.0,0.0,0.0,-2.3789,0.0,0.0,0.0,0.0,0.0,0.0,0.0,0.0,0.0,0.0,0.0,0.0,0.0,0.0,0.0,0.0,-3.3245,-3.5254,0.0,0.0,-4.4002,-4.55,-4.7417,-4.9084,-5.0527,-5.164,-5.0896,-4.9598,-4.864,0.0,0.0,-4.1977,-4.0707,-3.991,-3.9979,0.0,0.0,0.0,0.0,0.0,0.0,0.0,0.0,0.0,0.0,0.0,0.0,0.0,0.0,0.0,0.0,0.0,-7.0901,-7.2188,-7.3239,-7.4015,-7.3938,-7.4143,-7.4756,-7.4625,-7.4903,-7.5551,-7.5495,-7.5551,-7.5716,-7.5716,-7.603,-7.6567,-7.6436,-7.5692,0.0,-7.5878,-7.5288,-7.372,-7.5551,-7.6363,-7.6464,-7.6884,-7.6838,-7.657,0.0,0.0,0.0,0.0,0.0,0.0,-1.3682,-1.4422,-1.5188,-1.5731,-1.6554,-1.7047,-1.692,-1.6905,-1.6915,-1.6964,0.0,0.0,0.0,0.0,0.0,0.0,0.0,0.0,0.0,0.0,0.0,-1.9649,-1.9704,-2.0047,0.0,0.0,-2.1078,-2.204,0.0,0.0,0.0,0.0,0.0,0.0,0.0,0.0,0.0,0.0,0.0,0.0,0.0,0.0,0.0,0.0,0.0,0.0,0.0,0.0,0.0,0.0,-4.1505,-4.3139,-4.5407,-4.702,-4.8524,-5.0302,-4.9668,-4.833,0.0,0.0,0.0,-4.0737,-3.9722,-3.9176,-3.9176,0.0,0.0,0.0,0.0,0.0,0.0,0.0,0.0,0.0,0.0,0.0,0.0,0.0,0.0,0.0,0.0,0.0,-7.1434,-7.3111,-7.3995,-7.3995,-7.3881,-7.4049,-7.4533,-7.4679,-7.4974,-7.542,-7.59,-7.6031,-7.5921,-7.6143,-7.6533,-7.694,-7.6569,-7.5624,0.0,-7.5495,-7.4811,-7.3275,-7.5285,-7.6148,-7.6287,-7.6778,-7.6754,-7.646,0.0,0.0,0.0,0.0,0.0,0.0,0.0,-1.4422,-1.4995,-1.4995,-1.571,-1.622,-1.622,-1.5664,-1.5294,-1.5228,0.0,0.0,0.0,0.0,0.0,0.0,0.0,0.0,0.0,0.0,0.0,-1.8913,-1.8984,-1.9053,-1.9153,-2.0735,-2.1061,-2.0426,0.0,0.0,0.0,0.0,0.0,0.0,0.0,0.0,0.0,0.0,0.0,0.0,0.0,0.0,0.0,0.0,0.0,0.0,0.0,0.0,0.0,0.0,-3.8221,-3.9769,-4.2267,-4.4565,-4.6611,-4.8199,-4.8157,-4.7376,0.0,0.0,0.0,-3.9999,-3.8948,-3.8401,-3.8401,0.0,0.0,0.0,0.0,0.0,0.0,0.0,0.0,0.0,0.0,0.0,0.0,0.0,0.0,0.0,0.0,0.0,-7.1471,-7.3204,-7.4201,-7.4201,-7.4201,-7.457,-7.5346,-7.6195,-7.6195,-7.542,-7.7008,-7.7377,-7.6639,-7.7414,-7.734,-7.6639,-7.7451,-7.6417,0.0,-7.5727,-7.5338,-7.3975,-7.4647,-7.5395,-7.6093,-7.6093,-7.6607,-7.7304,0.0,0.0,0.0,0.0,0.0,0.0,0.0,-1.4088,-1.446,-1.4988,-1.5333,-1.5506,-1.5462,-1.5356,-1.5053,-1.448,0.0,0.0,0.0,0.0,0.0,0.0,0.0,0.0,0.0,0.0,0.0,-1.9053,-1.9051,-1.9338,-1.9917,-2.0479,-2.0898,-2.117,-2.2478,0.0,0.0,0.0,0.0,0.0,0.0,0.0,0.0,0.0,0.0,0.0,0.0,0.0,0.0,0.0,0.0,0.0,0.0,0.0,0.0,0.0,0.0,0.0,-3.9358,-4.0859,-4.229,-4.3347,-4.3489,-4.3272,-4.2754,0.0,0.0,0.0,0.0,0.0,0.0,0.0,0.0,0.0,0.0,0.0,0.0,0.0,0.0,0.0,0.0,0.0,0.0,0.0,0.0,0.0,0.0,0.0,-7.2149,-7.2606,-7.3272,-7.3958,-7.3938,-7.4049,-7.4364,-7.4564,-7.5058,-7.5845,-7.642,-7.6824,-7.7275,-7.7533,-7.7555,-7.7451,-7.771,-7.6027,-7.3369,-7.6074,-7.5382,-7.2825,-7.5274,-7.6282,-7.6473,-7.6564,-7.671,-7.6993,0.0,0.0,0.0,0.0,0.0,0.0,0.0,-1.3912,-1.4088,-1.4566,-1.4727,-1.4707,-1.4652,-1.4787,-1.4659,-1.4096,0.0,0.0,0.0,0.0,0.0,0.0,0.0,0.0,0.0,0.0,0.0,0.0,0.0,-1.955,-2.0386,-2.0714,-2.1079,-2.157,-2.2352,0.0,0.0,0.0,0.0,0.0,0.0,0.0,-2.3309,0.0,0.0,0.0,0.0,0.0,0.0,0.0,0.0,0.0,0.0,0.0,0.0,0.0,0.0,0.0,0.0,-3.8517,-3.9386,-4.0503,-4.0614,0.0,0.0,0.0,0.0,0.0,0.0,0.0,0.0,0.0,0.0,0.0,0.0,0.0,0.0,0.0,0.0,0.0,0.0,0.0,0.0,0.0,0.0,0.0,0.0,0.0,-7.2285,-7.2321,-7.2695,-7.3288,-7.3523,-7.3765,-7.3787,-7.4353,-7.5102,-7.6093,-7.6423,-7.6888,-7.7463,-7.7463,-7.734,-7.7164,-7.7436,-7.5831,0.0,-7.6008,-7.5432,-7.3068,-7.5524,-7.6541,-7.6708,-7.6737,-7.6866,-7.6993,0.0,0.0,0.0,0.0,0.0,0.0,0.0,0.0,0.0,0.0,-1.3927,-1.3955,-1.3918,-1.4062,-1.4131,0.0,0.0,0.0,0.0,0.0,0.0,0.0,0.0,0.0,0.0,0.0,0.0,-1.9081,-1.9153,-1.9656,-2.0596,0.0,-2.1735,-2.1717,-2.2463,0.0,0.0,0.0,0.0,0.0,0.0,0.0,0.0,0.0,0.0,0.0,0.0,0.0,0.0,0.0,0.0,0.0,0.0,0.0,0.0,0.0,0.0,0.0,0.0,0.0,0.0,0.0,0.0,0.0,0.0,0.0,0.0,0.0,0.0,0.0,0.0,0.0,0.0,0.0,0.0,0.0,0.0,0.0,0.0,0.0,0.0,0.0,0.0,0.0,0.0,0.0,0.0,0.0,-7.1988,-7.2321,-7.238,-7.2299,-7.3208,-7.3707,-7.378,-7.5322,-7.6093,-7.6093,-7.6937,-7.7304,-7.7231,-7.7304,-7.69,0.0,-7.6716,-7.5665,-7.3702,-7.5386,-7.5327,-7.4296,-7.5525,-7.6342,-7.6737,-7.6801,-7.6993,-7.7279,0.0,0.0,0.0,0.0,0.0,0.0,0.0,0.0,0.0,0.0,0.0,-1.3962,-1.4026,-1.4062,0.0,0.0,0.0,0.0,0.0,0.0,0.0,0.0,0.0,0.0,0.0,0.0,0.0,-1.9104,-1.9701,-2.0462,-2.1298,-2.2756,0.0,0.0,0.0,0.0,0.0,0.0,0.0,0.0,0.0,0.0,0.0,0.0,0.0,0.0,-2.2799,-2.385,0.0,0.0,0.0,0.0,0.0,0.0,0.0,0.0,-3.161,-3.2474,-3.3415,0.0,-3.4678,-3.5015,0.0,0.0,0.0,0.0,0.0,0.0,0.0,0.0,0.0,0.0,0.0,0.0,0.0,0.0,0.0,0.0,0.0,0.0,0.0,0.0,0.0,0.0,0.0,0.0,0.0,-7.2048,-7.1988,-7.2048,-7.2204,-7.2299,-7.3208,-7.4001,-7.4625,-7.5616,-7.6093,-7.6093,-7.6937,-7.7011,-7.6423,-7.7047,-7.7169,-7.6789,-7.564,-7.465,-7.3988,-7.4247,-7.4181,-7.4102,-7.5458,-7.614,-7.6445,-7.665,-7.6781,-7.6846,0.0,0.0,0.0,0.0,0.0,0.0,0.0,0.0,0.0,0.0,0.0,0.0,0.0,0.0,0.0,0.0,0.0,0.0,0.0,0.0,0.0,0.0,0.0,0.0,0.0,0.0,0.0,0.0,0.0,-2.0898,0.0,0.0,0.0,0.0,0.0,0.0,0.0,0.0,0.0,0.0,-2.3271,0.0,0.0,0.0,0.0,0.0,-2.2952,-2.3746,0.0,-2.5385,-2.6464,-2.7745,0.0,0.0,0.0,0.0,-3.0698,-3.1421,-3.2035,-3.2978,-3.3863,-3.4266,-3.432,-3.4495,0.0,0.0,0.0,0.0,0.0,0.0,0.0,0.0,0.0,0.0,0.0,0.0,0.0,0.0,0.0,0.0,0.0,0.0,0.0,0.0,0.0,0.0,0.0,-7.1903,-7.1744,-7.1927,-7.2048,-7.2144,-7.3149,-7.4074,-7.4918,-7.5689,-7.6276,-7.668,-7.7059,-7.6961,-7.6558,-7.681,-7.6966,-7.6765,-7.4934,-7.4514,-7.5001,-7.4013,-7.4157,-7.508,-7.5711,-7.6104,-7.6336,-7.6439,-7.6643,-7.6781,0.0,0.0,0.0,0.0,0.0,0.0,0.0,0.0,0.0,0.0,0.0,0.0,0.0,0.0,0.0,0.0,0.0,0.0,0.0,0.0,0.0,0.0,0.0,0.0,0.0,0.0,0.0,0.0,0.0,0.0,0.0,0.0,-2.4517,0.0,0.0,0.0,0.0,0.0,0.0,-2.3448,-2.3424,0.0,0.0,0.0,0.0,0.0,0.0,0.0,0.0,-2.54,-2.6284,-2.7121,-2.8111,0.0,0.0,0.0,0.0,0.0,-3.1427,-3.2736,-3.4081,-3.4981,-3.4696,-3.4439,0.0,0.0,0.0,0.0,0.0,0.0,0.0,0.0,0.0,0.0,0.0,0.0,0.0,0.0,0.0,0.0,0.0,0.0,0.0,0.0,0.0,0.0,0.0,-7.1718,-7.1494,-7.1805,-7.1988,-7.1988,-7.2981,-7.3964,-7.4918,-7.5666,-7.6399,-7.6997,-7.7019,-7.6956,-7.6846,-7.6672,-7.6614,-7.6505,0.0,0.0,-7.6099,-7.4172,-7.4528,-7.6208,-7.6036,-7.6099,-7.633,-7.6228,-7.6432,-7.6745,0.0,0.0,0.0,0.0,0.0,0.0,0.0,0.0,0.0,0.0,0.0,0.0,0.0,0.0,0.0,0.0,0.0,0.0,0.0,0.0,0.0,0.0,0.0,0.0,0.0,0.0,0.0,0.0,0.0,0.0,-2.2524,-2.4831,-2.5317,-2.4137,0.0,-2.2201,-2.1538,-2.221,-2.2918,-2.3562,-2.3517,0.0,0.0,0.0,0.0,0.0,0.0,0.0,0.0,-2.5575,-2.6512,-2.7464,-2.8268,0.0,0.0,0.0,0.0,0.0,-3.1413,-3.2834,-3.4252,-3.5088,-3.5715,-3.6094,0.0,0.0,0.0,0.0,0.0,0.0,0.0,0.0,0.0,0.0,0.0,0.0,0.0,0.0,0.0,0.0,0.0,0.0,0.0,0.0,0.0,0.0,-7.1816,-7.1718,-7.1494,-7.1805,-7.1988,-7.1988,-7.2431,-7.3413,-7.4918,-7.5605,-7.5896,-7.588,-7.6417,-7.6381,-7.5853,-7.6352,-7.6614,-7.6505,0.0,-7.4492,-7.5724,-7.3898,-7.4149,-7.5724,-7.5898,-7.614,-7.6239,-7.6068,-7.6172,-7.6342,0.0,0.0,0.0,0.0,0.0,0.0,0.0,0.0,0.0,0.0,0.0,0.0,0.0,0.0,0.0,0.0,0.0,0.0,0.0,0.0,0.0,0.0,0.0,0.0,0.0,0.0,0.0,0.0,0.0,-2.2955,-2.3656,-2.4846,-2.4807,-2.3689,0.0,-2.1821,-2.199,-2.2246,-2.2876,-2.3696,0.0,0.0,0.0,0.0,0.0,0.0,0.0,0.0,0.0,0.0,-2.6345,-2.6935,-2.8139,0.0,0.0,0.0,0.0,0.0,-3.1407,-3.2678,-3.3956,-3.5676,-3.6636,-3.7433,0.0,0.0,0.0,0.0,0.0,0.0,0.0,0.0,0.0,0.0,0.0,0.0,0.0,0.0,0.0,0.0,0.0,0.0,0.0,0.0,0.0,0.0,-7.1593,-7.1593,-7.1494,-7.178,-7.1964,-7.1988,-7.2167,-7.3031,-7.458,-7.4858,-7.5416,-7.6254,-7.6498,-7.6396,-7.5967,-7.6197,-7.6311,-7.6135,0.0,-7.4287,-7.5654,-7.3575,-7.4003,-7.6007,-7.6104,-7.6208,-7.6244,-7.5995,-7.6,-7.6285,0.0,0.0,0.0,0.0,0.0,0.0,0.0,0.0,0.0,0.0,0.0,0.0,0.0,0.0,0.0,0.0,0.0,0.0,0.0,0.0,0.0,0.0,0.0,0.0,0.0,0.0,-2.0022,-2.0601,-2.2647,-2.3988,-2.467,-2.4539,-2.4064,0.0,0.0,-2.1749,-2.2186,-2.2144,-2.2653,-2.3473,0.0,0.0,0.0,0.0,0.0,0.0,0.0,0.0,0.0,0.0,0.0,0.0,0.0,0.0,0.0,-2.9255,-2.9237,-2.957,-3.1666,-3.2791,-3.3925,0.0,0.0,0.0,0.0,0.0,0.0,0.0,0.0,0.0,0.0,0.0,0.0,0.0,0.0,0.0,0.0,0.0,0.0,0.0,0.0,0.0,0.0,0.0,0.0,-7.134,-7.1431,-7.1494,-7.1494,-7.1656,-7.1842,-7.1927,-7.1988,-7.2753,-7.4395,-7.4242,-7.4978,-7.6607,-7.6445,-7.6311,-7.6208,-7.6003,-7.5934,-7.5931,-7.4329,-7.4438,-7.562,-7.3862,-7.4359,-7.6187,-7.628,-7.6135,-7.5855,-7.5887,-7.6068,-7.6252,0.0,0.0,0.0,0.0,0.0,0.0,0.0,0.0,0.0,0.0,0.0,0.0,0.0,0.0,0.0,0.0,0.0,0.0,0.0,0.0,0.0,0.0,0.0,0.0,0.0,-1.8843,-1.9967,-2.2139,-2.2995,-2.3815,-2.461,-2.4353,-2.3637,-2.256,0.0,-2.1944,-2.1299,-2.1339,-2.1806,-2.2503,-2.2623,0.0,0.0,0.0,0.0,0.0,0.0,0.0,0.0,0.0,0.0,0.0,0.0,0.0,-2.9088,-3.0019,-2.9717,-2.9672,-3.2446,-3.3732,-3.4521,-3.5539,0.0,0.0,0.0,0.0,0.0,0.0,0.0,0.0,0.0,0.0,0.0,0.0,0.0,0.0,0.0,0.0,0.0,0.0,0.0,0.0,0.0,0.0,0.0,-7.1494,-7.1494,-7.1494,-7.1494,-7.1656,-7.1816,-7.178,-7.1964,-7.2753,-7.4395,-7.4115,-7.4652,-7.6072,-7.5901,-7.5937,-7.6003,-7.5691,-7.5691,-7.6003,-7.5477,-7.5371,-7.5478,-7.5371,-7.555,-7.5908,-7.6157,-7.5582,-7.4652,-7.5819,-7.6104,-7.5931,0.0,0.0,0.0,0.0,0.0,0.0,0.0,0.0,0.0,0.0,0.0,0.0,0.0,0.0,0.0,0.0,0.0,0.0,0.0,0.0,0.0,0.0,0.0,-1.7115,-1.9427,-1.998,-2.0927,-2.2303,-2.3366,-2.4095,-2.4453,-2.3869,0.0,0.0,0.0,-2.1785,-2.2021,-2.1965,-2.2473,-2.3271,-2.3334,-2.3583,0.0,0.0,0.0,0.0,0.0,0.0,0.0,0.0,-2.6072,0.0,0.0,0.0,-2.9159,-3.0161,-3.0272,-3.0528,-3.2797,-3.4003,-3.4899,-3.6241,0.0,0.0,0.0,0.0,0.0,0.0,0.0,0.0,0.0,0.0,0.0,0.0,0.0,0.0,0.0,0.0,0.0,0.0,0.0,0.0,0.0,0.0,-7.124,-7.134,-7.1404,-7.1404,-7.1494,-7.1593,-7.1656,-7.1816,-7.1718,-7.2543,-7.4306,-7.3921,-7.4384,-7.5691,-7.5798,-7.5727,-7.5478,-7.5657,-7.5798,-7.5832,-7.5621,-7.5478,-7.5478,-7.5407,-7.5371,-7.5442,-7.5585,-7.5618,-7.561,-7.6115,-7.6252,-7.6172,0.0,0.0,0.0,0.0,0.0,0.0,0.0,0.0,0.0,0.0,0.0,0.0,0.0,0.0,0.0,0.0,0.0,0.0,0.0,0.0,0.0,0.0,0.0,-1.7501,-1.9755,-2.0362,-2.1221,-2.2238,-2.2996,-2.3307,-2.3186,0.0,0.0,0.0,0.0,-2.2416,-2.253,-2.2767,-2.3076,-2.3386,-2.3454,-2.368,0.0,0.0,0.0,0.0,0.0,0.0,0.0,0.0,0.0,0.0,0.0,0.0,0.0,0.0,-3.1368,-3.1811,-3.3443,-3.4651,-3.57,0.0,0.0,0.0,0.0,0.0,0.0,0.0,0.0,0.0,0.0,0.0,0.0,0.0,0.0,0.0,0.0,0.0,0.0,0.0,0.0,0.0,0.0,-7.0028,-7.1211,-7.134,-7.134,-7.1404,-7.1494,-7.1494,-7.1557,-7.1718,-7.1593,-7.2355,-7.4115,-7.3826,-7.4284,-7.5406,-7.5299,-7.5263,-7.5225,-7.5514,-7.5657,-7.5727,-7.5585,-7.5478,-7.5406,-7.5263,-7.5192,-7.5263,-7.5478,-7.569,-7.5931,-7.6187,-7.6289,-7.6275,0.0,0.0,0.0,0.0,0.0,0.0,0.0,0.0,0.0,0.0,0.0,0.0,0.0,0.0,0.0,0.0,0.0,0.0,0.0,0.0,0.0,0.0,0.0,-1.8157,-1.9755,-1.981,-2.0548,-2.2094,-2.1753,-2.1274,-2.0639,-2.1405,0.0,0.0,0.0,0.0,-2.2587,-2.3587,-2.3458,-2.2515,-2.2735,-2.3247,-2.3899,0.0,0.0,0.0,0.0,0.0,0.0,0.0,0.0,0.0,0.0,0.0,0.0,0.0,-3.3141,-3.3446,-3.4521,-3.5866,0.0,0.0,0.0,0.0,0.0,0.0,0.0,0.0,0.0,0.0,0.0,0.0,0.0,0.0,0.0,0.0,0.0,0.0,0.0,0.0,0.0,0.0,-6.946,-7.0613,-7.134,-7.1494,-7.1494,-7.1494,-7.1494,-7.1494,-7.1494,-7.1494,-7.1494,-7.2291,-7.3885,-7.3724,-7.418,-7.5082,-7.4368,-7.444,-7.5189,-7.5189,-7.5262,-7.5478,-7.5478,-7.5406,-7.5189,-7.5227,-7.5191,-7.5299,-7.5979,-7.5798,-7.5188,-7.6032,-7.6275,-7.6311,0.0,0.0,0.0,0.0,0.0,0.0,0.0,0.0,0.0,0.0,0.0,0.0,0.0,0.0,0.0,0.0,0.0,0.0,0.0,0.0,0.0,0.0,0.0,0.0,0.0,0.0,-1.9673,-2.118,-2.1103,-2.1266,0.0,0.0,0.0,-2.3061,0.0,0.0,-2.3684,-2.4465,-2.432,-2.3648,-2.3631,-2.3817,-2.4132,0.0,0.0,0.0,0.0,0.0,0.0,0.0,0.0,0.0,0.0,0.0,0.0,0.0,-3.2443,-3.3614,-3.4604,0.0,0.0,0.0,0.0,0.0,0.0,0.0,0.0,0.0,0.0,0.0,0.0,0.0,0.0,0.0,0.0,0.0,0.0,0.0,0.0,0.0,0.0,0.0,-6.7224,-6.9006,-7.0188,-7.0282,-7.0951,-7.1404,-7.1494,-7.1494,-7.1494,-7.1494,-7.1494,-7.2001,-7.3052,-7.3471,-7.3996,-7.4547,-7.4762,-7.4828,-7.4744,-7.4472,-7.4798,-7.5478,-7.5657,-7.5585,-7.5478,-7.5263,-7.5227,-7.5192,-7.5405,-7.5513,-7.5585,-7.5729,-7.5835,-7.5937,0.0,0.0,0.0,0.0,0.0,0.0,0.0,0.0,0.0,0.0,0.0,0.0,0.0,0.0,0.0,0.0,0.0,0.0,0.0,0.0,0.0,0.0,0.0,0.0,0.0,-1.8898,-1.9336,0.0,0.0,0.0,0.0,0.0,0.0,-2.3376,0.0,-2.4762,-2.4052,-2.4897,-2.4807,-2.4188,-2.4481,-2.463,-2.4706,0.0,0.0,0.0,0.0,0.0,0.0,0.0,0.0,0.0,0.0,0.0,0.0,0.0,-3.3067,-3.4597,-3.5248,0.0,0.0,0.0,0.0,0.0,0.0,0.0,0.0,0.0,0.0,0.0,0.0,0.0,0.0,0.0,0.0,0.0,0.0,0.0,0.0,0.0,0.0,0.0,-6.6279,-6.7888,-6.9113,-6.9597,-7.0129,-7.0656,-7.1304,-7.124,-7.1304,-7.1494,-7.1494,-7.1893,-7.269,-7.3327,-7.3888,-7.4296,-7.4583,-7.4722,-7.4709,-7.447,-7.4725,-7.5442,-7.5692,-7.5798,-7.5655,-7.5298,-7.5155,-7.5192,-7.5151,-7.5369,-7.555,-7.5657,-7.5693,-7.5798,0.0,0.0,0.0,0.0,0.0,0.0,0.0,0.0,0.0,0.0,0.0,0.0,0.0,0.0,0.0,0.0,0.0,0.0,0.0,0.0,0.0,0.0,0.0,0.0,0.0,0.0,0.0,0.0,0.0,0.0,0.0,0.0,-2.1806,-2.303,0.0,-2.4835,-2.4231,-2.5203,-2.5058,-2.4301,-2.5151,-2.5465,-2.5409,-2.5467,0.0,0.0,0.0,0.0,0.0,0.0,0.0,0.0,0.0,0.0,0.0,-3.2535,-3.425,-3.5744,0.0,0.0,0.0,0.0,0.0,0.0,0.0,0.0,0.0,0.0,0.0,0.0,0.0,0.0,0.0,0.0,0.0,0.0,-6.4793,0.0,0.0,0.0,0.0,-6.6309,-6.6274,-6.7153,-6.8137,-6.9015,-6.8987,-6.9515,-7.0878,-7.0775,-7.0943,-7.154,-7.1467,-7.1857,-7.2617,-7.3218,-7.3744,-7.4081,-7.4047,-7.4224,-7.4645,-7.4716,-7.4971,-7.5297,-7.5728,-7.5868,-7.5721,-7.5299,-7.5119,-7.5156,-7.5226,-7.519,-7.5192,-7.5585,-7.5727,-7.5727,0.0,0.0,0.0,0.0,0.0,0.0,0.0,0.0,0.0,0.0,0.0,0.0,0.0,0.0,0.0,0.0,0.0,0.0,0.0,0.0,0.0,0.0,0.0,0.0,0.0,0.0,0.0,0.0,0.0,0.0,0.0,0.0,0.0,-2.5805,0.0,-2.5761,-2.6204,-2.641,-2.5671,-2.4432,-2.5264,-2.5245,-2.4723,-2.4774,-2.4828,0.0,0.0,0.0,0.0,0.0,0.0,0.0,0.0,-3.0086,-3.0698,-3.1049,-3.251,0.0,0.0,0.0,0.0,0.0,0.0,0.0,0.0,0.0,0.0,0.0,0.0,0.0,0.0,0.0,0.0,0.0,0.0,0.0,0.0,0.0,0.0,0.0,0.0,-6.5226,-6.5089,-6.6203,-6.7069,-6.7212,-6.8082,-6.9179,-7.0709,-7.0141,-7.0524,-7.1981,-7.16,-7.1448,-7.1593,-7.2358,-7.2629,-7.2433,-7.3261,-7.3654,-7.3545,-7.376,-7.4512,-7.5728,-7.5836,-7.5764,-7.5514,-7.5262,-7.501,-7.4796,-7.5082,-7.5189,-7.5226,-7.5262,-7.537,-7.537,0.0,0.0,0.0,0.0,0.0,0.0,0.0,0.0,0.0,0.0,0.0,0.0,0.0,0.0,0.0,0.0,0.0,0.0,0.0,0.0,0.0,0.0,0.0,0.0,0.0,0.0,0.0,0.0,0.0,0.0,0.0,0.0,0.0,-2.67,0.0,-2.6228,-2.6265,-2.6303,-2.5838,-2.5149,-2.5968,-2.6078,-2.5795,-2.6235,-2.616,-2.5789,-2.5806,0.0,0.0,0.0,0.0,0.0,0.0,0.0,-3.0203,-3.1385,-3.2471,-3.3752,0.0,0.0,0.0,0.0,0.0,0.0,0.0,0.0,0.0,0.0,0.0,0.0,0.0,0.0,0.0,0.0,0.0,0.0,0.0,0.0,-6.6048,-6.5611,-6.5349,-6.518,-6.4979,-6.5636,-6.6159,-6.6514,-6.6904,-6.803,-6.9971,-6.9479,-6.9971,-7.1723,-7.1362,-7.1211,-7.1404,-7.1939,-7.2135,-7.2068,-7.2796,-7.3048,-7.2727,-7.3726,-7.4691,-7.5548,-7.5692,-7.5621,-7.5371,-7.5226,-7.5118,-7.4902,-7.4971,-7.5116,-7.5225,-7.5225,-7.5225,-7.5225,0.0,0.0,0.0,0.0,0.0,0.0,0.0,0.0,0.0,0.0,0.0,0.0,0.0,0.0,0.0,0.0,0.0,0.0,0.0,0.0,0.0,0.0,0.0,0.0,0.0,0.0,0.0,0.0,0.0,0.0,0.0,0.0,0.0,-2.7594,0.0,-2.7065,-2.6581,-2.6522,-2.6316,-2.6109,-2.6987,-2.7249,-2.7211,-2.793,-2.7763,-2.7151,-2.7203,-2.7676,-2.8334,-2.8446,0.0,0.0,0.0,0.0,-3.0095,-3.2242,-3.2966,-3.3612,0.0,0.0,0.0,0.0,0.0,0.0,0.0,0.0,0.0,0.0,0.0,0.0,0.0,0.0,0.0,0.0,0.0,0.0,0.0,0.0,-6.6325,-6.5867,-6.5611,-6.5415,-6.5282,-6.5349,-6.5597,-6.6167,-6.5931,-6.667,-6.8948,-6.8747,-6.9412,-7.1175,-7.1146,-7.1175,-7.1431,-7.1729,-7.1852,-7.1955,-7.2224,-7.2227,-7.1907,-7.3583,-7.4476,-7.4689,-7.5046,-7.5083,-7.4941,-7.5012,-7.5082,-7.5116,-7.4968,-7.5149,-7.5403,-7.526,-7.5296,-7.5403,0.0,0.0,0.0,0.0,0.0,0.0,0.0,0.0,0.0,0.0,0.0,0.0,0.0,0.0,0.0,0.0,0.0,0.0,-1.4775,0.0,0.0,-1.8586,-1.8659,-1.8697,0.0,0.0,0.0,0.0,0.0,0.0,0.0,0.0,0.0,-3.116,0.0,0.0,-3.0093,-2.9439,-2.835,-2.7073,-2.7916,-2.7859,-2.729,-2.7393,-2.7344,-2.7186,-2.7236,-2.7731,-2.8409,-2.9177,-2.9922,0.0,0.0,0.0,-3.1468,-3.2428,-3.2797,0.0,0.0,0.0,0.0,0.0,0.0,0.0,0.0,0.0,0.0,0.0,0.0,0.0,0.0,0.0,0.0,0.0,0.0,0.0,0.0,0.0,-6.6899,-6.5939,-6.5545,-6.5349,-6.5282,-6.5415,-6.548,-6.5587,-6.549,-6.623,-6.8128,-6.8101,-6.898,-7.0979,-7.1146,-7.1276,-7.134,-7.1384,-7.1261,-7.0965,-7.0832,-7.0764,-7.0764,-7.194,-7.2511,-7.2478,-7.2584,-7.3119,-7.3901,-7.4082,-7.451,-7.4968,-7.5116,-7.5617,-7.6152,-7.5474,-7.5653,-7.6152,0.0,0.0,0.0,0.0,0.0,0.0,0.0,0.0,0.0,0.0,0.0,0.0,0.0,0.0,0.0,-1.3608,-1.4263,-1.5036,-1.5932,-1.7136,-1.8019,-1.8526,-1.8603,-1.8659,-1.8659,0.0,0.0,0.0,0.0,0.0,0.0,-2.8425,-3.0014,0.0,0.0,0.0,0.0,-3.1729,-3.0847,-2.9413,-3.0147,-3.0298,-3.011,-3.011,-3.0145,-3.0292,-3.1111,-3.1017,-3.064,-3.1843,-3.1874,-3.1635,-3.2858,0.0,0.0,0.0,-3.3499,0.0,0.0,0.0,0.0,0.0,0.0,0.0,0.0,0.0,0.0,0.0,0.0,0.0,0.0,0.0,0.0,0.0,0.0,0.0,0.0,0.0,-6.6621,-6.6602,-6.5661,-6.5098,-6.5189,-6.5645,-6.5716,-6.5126,-6.539,-6.6287,-6.7888,-6.7598,-6.8261,-7.0099,-7.0303,-7.0433,-7.0626,-7.0793,-7.0775,-7.0678,-7.0547,-7.0514,-7.0514,-7.0978,-7.1158,-7.1267,-7.2121,-7.3048,-7.3867,-7.3939,-7.4403,-7.5042,-7.5151,-7.576,-7.6509,-7.5861,-7.6007,-7.6331,0.0,0.0,0.0,0.0,0.0,0.0,0.0,0.0,0.0,0.0,0.0,0.0,0.0,0.0,0.0,0.0,-1.4589,-1.5693,-1.727,-1.7934,-1.8328,-1.8483,-1.8741,-1.8834,-1.8641,0.0,0.0,0.0,0.0,0.0,-2.9133,-3.032,-3.1954,0.0,-3.5136,0.0,0.0,0.0,0.0,-3.2071,-3.2977,-3.3298,-3.3336,-3.3853,-3.3918,-3.3884,-3.4996,-3.4524,-3.3535,-3.4572,-3.4152,-3.3411,-3.4596,-3.4102,0.0,0.0,0.0,0.0,0.0,0.0,0.0,0.0,0.0,0.0,0.0,0.0,0.0,0.0,0.0,0.0,0.0,0.0,0.0,0.0,0.0,0.0,0.0,0.0,-6.6236,-6.6809,-6.5636,-6.4875,-6.4936,-6.5715,-6.5751,-6.4588,-6.5296,-6.6232,-6.7231,-6.7153,-6.7676,-6.9017,-6.9239,-6.9584,-6.9985,-7.0452,-7.057,-7.0386,-7.0472,-7.0478,-7.0511,-7.0478,-7.0481,-7.0555,-7.1729,-7.2549,-7.3119,-7.3369,-7.419,-7.5153,-7.4902,-7.5543,-7.6506,-7.5889,-7.5964,-7.6292,0.0,0.0,0.0,0.0,0.0,0.0,0.0,0.0,0.0,0.0,0.0,0.0,-1.3873,-1.3793,-1.4026,-1.4792,-1.5453,-1.6502,-1.8038,-1.8176,-1.8295,-1.8403,-1.925,0.0,-1.8788,0.0,0.0,0.0,0.0,0.0,-2.839,-3.0133,-3.2732,-3.5937,-3.7514,-3.6901,-3.4851,0.0,0.0,0.0,0.0,-3.6408,-3.6125,-3.8116,-3.81,-3.7106,-3.7415,-3.7154,-3.6643,-3.6584,-3.6508,-3.6484,-3.6769,-3.6683,-3.6459,0.0,0.0,0.0,0.0,0.0,0.0,0.0,0.0,0.0,0.0,0.0,0.0,0.0,0.0,0.0,0.0,0.0,0.0,0.0,0.0,0.0,0.0,0.0,-6.6093,-6.6057,-6.5216,-6.4626,-6.4626,-6.534,-6.5224,-6.3872,-6.501,-6.5672,-6.5418,-6.654,-6.7366,-6.7811,-6.8382,-6.9038,-6.9584,-7.0668,-7.0806,-7.0157,-7.0391,-7.0511,-7.0503,-7.0511,-7.0514,-7.0514,-7.059,-7.0627,-7.0734,-7.1801,-7.3405,-7.512,-7.4152,-7.4716,-7.6031,-7.5023,-7.5312,-7.5996,0.0,0.0,0.0,0.0,0.0,0.0,0.0,0.0,0.0,0.0,0.0,0.0,0.0,-1.5277,-1.5382,-1.5662,-1.6305,-1.7171,-1.8149,-1.8225,-1.8551,-1.9122,-1.9608,-1.9996,-2.0325,0.0,0.0,0.0,0.0,-2.4733,-2.8408,-2.9642,-3.1751,-3.4564,-3.7327,-3.8369,-3.8104,-3.9188,0.0,0.0,0.0,0.0,0.0,-4.0296,-4.0753,-4.1283,-4.1856,-4.1176,-4.0197,-4.1252,-4.1045,-4.0407,-4.0198,-3.9184,-3.7923,-3.7292,-3.7308,0.0,0.0,0.0,0.0,0.0,0.0,0.0,0.0,0.0,0.0,0.0,0.0,0.0,0.0,0.0,0.0,0.0,0.0,0.0,0.0,0.0,-6.611,-6.6702,-6.56,-6.4813,-6.4936,-6.5653,-6.5438,-6.38,-6.5064,-6.5752,-6.5439,-6.6066,-6.6666,-6.7132,-6.7518,-6.774,-6.7695,-6.8546,-6.9006,-6.9108,-6.9404,-6.9836,-7.0511,-7.0478,-7.0481,-7.0519,-7.0485,-7.038,-7.0133,-7.0593,-7.1765,-7.3261,-7.3543,-7.447,-7.5505,-7.5458,-7.5818,-7.6217,0.0,0.0,0.0,0.0,0.0,0.0,0.0,0.0,0.0,0.0,0.0,0.0,0.0,0.0,-1.6291,-1.65,-1.7425,-1.8208,-1.8635,-1.8997,-1.9444,-2.0012,-2.0469,-2.0916,-2.1247,0.0,0.0,0.0,0.0,0.0,0.0,-2.8961,-3.0935,-3.3715,-3.5949,-3.7692,0.0,0.0,0.0,-3.9664,0.0,0.0,-4.3948,-4.5019,-4.5563,-4.5957,-4.7011,-4.6201,-4.4712,-4.5759,-4.5577,-4.4794,-4.3763,-4.189,-3.9866,-3.8921,-3.8894,0.0,0.0,0.0,0.0,0.0,0.0,0.0,0.0,0.0,0.0,0.0,0.0,0.0,0.0,0.0,0.0,0.0,0.0,0.0,0.0,0.0,0.0,-6.651,-6.5287,-6.4527,-6.4839,-6.5402,-6.5151,-6.38,-6.5125,0.0,-6.5411,-6.5752,-6.6173,-6.6517,-6.6717,-6.6896,-6.7046,-6.7868,-6.8434,-6.8714,-6.9261,-6.9904,-7.0579,-7.0547,-7.0481,-7.0519,-7.0519,-7.0202,-6.9743,-6.9955,-7.0523,-7.1339,-7.2724,-7.4079,-7.522,-7.5423,-7.5676,-7.5826,0.0,0.0,0.0,0.0,0.0,0.0,0.0,0.0,0.0,0.0,0.0,0.0,0.0,0.0,0.0,-1.7377,-1.8778,-1.9654,-1.9654,-2.0428,-2.0915,-2.0951,-2.1875,-2.2114,-2.1512,0.0,0.0,0.0,0.0,0.0,0.0,0.0,-3.0419,-3.3619,-3.3582,-3.4945,-3.7485,0.0,-4.1076,-4.1518,0.0,-4.6307,-4.7672,-5.2078,-5.2485,-5.0867,-5.2631,-5.1964,-5.0193,-4.9896,-4.9896,-4.9603,-4.7296,-4.4744,-4.2405,-4.1539,-4.1075,-4.0889,0.0,0.0,0.0,0.0,0.0,0.0,0.0,0.0,0.0,0.0,0.0,0.0,0.0,0.0,0.0,0.0,0.0,0.0,0.0,0.0,0.0,-6.5403,-6.4215,-6.3672,-6.4365,-6.45,-6.4367,-6.38,-6.5125,-6.5725,-6.5094,-6.5653,-6.5958,-6.5804,-6.5946,-6.6567,-6.7599,-6.8866,-6.9317,-6.8858,-7.0058,-7.0709,-7.0806,-7.0579,-7.0514,-7.0514,-7.0514,-7.0127,-6.9459,-6.9777,-6.9742,-6.9672,-7.173,-7.3579,-7.5072,-7.474,-7.4744,-7.4894,0.0,0.0,0.0,0.0,0.0,0.0,0.0,0.0,0.0,0.0,0.0,0.0,0.0,-1.933,-1.987,-2.0043,-2.0433,-2.0681,-2.0681,-2.0915,-2.1313,-2.1946,-2.2345,-2.2797,-2.3339,0.0,0.0,0.0,0.0,0.0,0.0,0.0,0.0,0.0,-3.2406,-3.3715,-3.5642,-3.7548,0.0,-4.2133,-4.3555,-4.5998,0.0,0.0,-5.1874,-5.2337,-5.4054,-5.4121,-5.3444,-5.4091,-5.4417,-5.3865,-4.9634,-4.6691,-4.4601,-4.3579,-4.3423,-4.3494,-4.3415,0.0,0.0,0.0,0.0,0.0,0.0,0.0,0.0,0.0,0.0,0.0,0.0,0.0,0.0,0.0,0.0,0.0,0.0,0.0,0.0,-6.4657,-6.3867,-6.3547,-6.4301,-6.4436,-6.4429,0.0,-6.5296,-6.551,-6.4787,-6.5439,-6.5867,-6.5804,-6.5839,-6.6089,-6.6517,-6.7504,-6.7754,-6.7332,-6.7207,-6.8409,-7.057,-7.0575,-7.0478,-7.0519,-7.0481,-7.0552,-7.0556,-7.038,-7.0203,-7.0062,-7.1872,-7.2868,-7.3509,-7.4577,-7.5042,-7.5116,0.0,0.0,0.0,0.0,0.0,0.0,0.0,0.0,0.0,0.0,0.0,0.0,0.0,0.0,-2.1268,-2.159,-2.1667,-2.1831,-2.2153,-2.2195,-2.2452,-2.2983,-2.3143,-2.3482,-2.4075,0.0,0.0,0.0,0.0,0.0,0.0,0.0,0.0,0.0,0.0,0.0,0.0,0.0,0.0,0.0,-4.4285,0.0,0.0,-5.3211,-5.4605,-5.5511,-5.7691,-5.7888,-5.7235,-5.8042,-5.7694,-5.6283,-5.2724,-5.0446,-4.8717,-4.6597,-4.6298,-4.6453,-4.5628,-4.613,0.0,0.0,0.0,0.0,-4.9599,-5.1295,-5.2957,0.0,0.0,0.0,0.0,0.0,0.0,0.0,0.0,0.0,0.0,0.0,0.0,-6.391,-6.3137,-6.2789,-6.3279,-6.3697,-6.4081,-6.4464,-6.4927,-6.4999,-6.4536,-6.4927,-6.5319,-6.5604,-6.564,-6.596,-6.6631,-6.7403,-6.7475,-6.688,-6.7237,-6.798,-6.9077,-6.9757,-6.9979,-7.002,-7.0475,-7.0725,-7.0802,-7.0555,-7.0449,-7.0381,-7.2051,-7.2834,-7.3226,-7.4652,-7.5225,-7.5225,0.0,0.0,0.0,0.0,0.0,0.0,0.0,0.0,0.0,0.0,0.0,0.0,0.0,0.0,0.0,-2.2747,-2.2869,-2.3235,-2.392,-2.4064,-2.4091,-2.4091,-2.4271,-2.4388,-2.4408,0.0,0.0,0.0,0.0,0.0,0.0,0.0,0.0,0.0,0.0,0.0,0.0,0.0,0.0,-4.2611,-4.5741,-4.8972,0.0,0.0,-5.8838,-5.9169,-6.205,-6.2155,-6.1051,-6.1556,-6.0199,-5.7996,-5.6223,-5.5047,-5.3634,-5.021,-4.9555,-4.9586,-4.8058,-4.7928,-4.8259,-4.8528,-4.9035,0.0,-5.123,-5.1605,-5.1877,-5.2561,0.0,0.0,0.0,0.0,0.0,0.0,0.0,0.0,0.0,0.0,0.0,0.0,-6.2159,-6.1538,-6.1777,-6.2541,-6.3314,-6.4195,-6.4301,-6.4301,-6.4301,-6.4301,-6.4586,-6.509,-6.5232,-6.5895,-6.6946,-6.779,-6.7783,-6.7032,-6.8535,-6.8469,-6.7017,-6.8342,-6.9091,-6.9269,-7.0221,-7.0511,-7.0445,-7.0517,-7.059,-7.07,-7.2228,-7.3048,-7.3582,-7.4724,-7.5153,-7.5082,-1.554,0.0,0.0,0.0,0.0,0.0,0.0,0.0,0.0,0.0,0.0,0.0,0.0,0.0,0.0,-2.5384,-2.5497,-2.5637,-2.5782,-2.5892,-2.6015,-2.6057,-2.6119,-2.6237,-2.628,-2.6319,0.0,0.0,0.0,0.0,0.0,0.0,0.0,0.0,0.0,0.0,0.0,0.0,0.0,-4.3165,-4.5086,-4.8172,-5.2186,-5.6803,-5.882,-5.9604,-6.2684,-6.3474,-6.3121,-6.3621,-6.3021,-6.1661,-5.9325,-5.7469,-5.5785,-5.3723,-5.291,-5.2376,-5.1214,-5.0587,-5.0248,-5.0266,-5.0134,0.0,-5.1269,-5.1691,-5.2101,0.0,0.0,0.0,0.0,0.0,0.0,0.0,0.0,0.0,0.0,0.0,0.0,0.0,-6.0988,-6.0086,-6.1446,-6.1693,-6.2245,-6.3187,-6.3733,-6.4037,-6.4037,-6.4037,-6.3831,-6.3519,-6.4067,-6.4356,-6.422,-6.6114,-6.6672,-6.5824,-6.6851,-6.7069,-6.6785,-6.6869,-6.7685,-6.8926,-6.9068,-6.9494,-7.0097,-7.0877,-7.1126,-7.109,-7.2192,-7.2619,-7.2758,-7.4543,-7.4796,-7.426,-1.5296,0.0,0.0,0.0,0.0,0.0,0.0,0.0,0.0,0.0,0.0,0.0,0.0,0.0,0.0,-2.7308,-2.7876,-2.8166,-2.8177,-2.8625,-2.8402,-2.7279,-2.7306,-2.7163,-2.678,-2.6839,0.0,0.0,0.0,0.0,0.0,0.0,0.0,0.0,0.0,0.0,0.0,0.0,-4.003,-4.3934,-4.5597,0.0,-5.2783,-5.7093,-5.953,-6.0945,-6.3649,-6.4493,-6.4525,-6.5207,-6.4296,-6.2594,-6.0971,-5.9761,-5.857,-5.638,-5.5349,-5.4712,-5.3913,-5.2984,-5.2209,-5.2017,-5.2465,0.0,0.0,-5.2977,-5.3211,-5.3855,0.0,0.0,0.0,0.0,0.0,0.0,0.0,0.0,0.0,0.0,0.0,0.0,-5.9671,-5.8464,-5.9249,-5.9452,-6.0192,-6.1581,-6.2142,-6.2524,-6.2931,-6.2967,-6.2832,-6.2528,-6.2722,-6.3146,-6.3801,-6.5242,-6.5871,-6.5675,-6.6393,-6.6505,-6.6114,-6.6305,-6.684,-6.7619,-6.8572,-6.9139,-6.9389,-7.031,-7.0982,-7.1688,-7.2832,-7.3152,-7.3148,-7.4615,-7.4866,-7.4508,-1.5348,0.0,0.0,0.0,0.0,0.0,0.0,0.0,0.0,0.0,0.0,0.0,0.0,0.0,0.0,-2.9973,-3.1045,-3.1535,-3.1272,-3.1748,-3.1286,-2.9605,-2.8986,-2.8418,-2.7885,-2.784,-2.816,0.0,0.0,0.0,0.0,0.0,0.0,0.0,0.0,0.0,0.0,0.0,0.0,-4.5588,0.0,-4.9762,-5.3386,-5.7882,-6.0515,-6.2164,-6.4709,-6.5727,-6.5959,-6.6402,-6.5273,-6.3466,-6.2234,-6.1758,-6.1152,-5.8685,-5.7434,-5.671,-5.6206,-5.5169,-5.4126,-5.3991,-5.4766,-5.5511,0.0,0.0,0.0,0.0,0.0,0.0,0.0,0.0,0.0,0.0,0.0,0.0,0.0,0.0,0.0,0.0,-5.8016,-5.6474,-5.6388,-5.6535,-5.7386,-5.9276,-6.0175,-6.0899,-6.1298,-6.1235,-6.1206,-6.1184,-6.1336,-6.1998,-6.3341,-6.4503,-6.5232,-6.5526,-6.618,-6.6221,-6.5759,-6.6199,-6.6418,-6.663,-6.8288,-6.8857,-6.8788,-6.9672,-7.0837,-7.2066,-7.3186,-7.3652,-7.3718,-7.4757,-7.4935,-7.4606,-1.7043,-1.7259,0.0,0.0,0.0,0.0,0.0,0.0,0.0,0.0,0.0,0.0,0.0,-3.3328,-3.4157,-3.5184,-3.6638,-3.6955,-3.5577,-3.5027,-3.4961,-3.5403,-3.2699,-3.1481,-3.2109,-3.1478,-3.1214,-3.137,0.0,0.0,0.0,0.0,0.0,0.0,-3.4475,0.0,0.0,0.0,-4.4271,0.0,-4.9836,-5.1056,0.0,-5.935,-6.1697,-6.2165,-6.5694,-6.7474,-6.792,-6.6987,-6.6993,-6.6815,-6.4046,-6.3092,-6.2631,-6.0892,-5.9425,-5.8282,-5.7964,-5.6848,-5.5893,-5.6469,-5.6055,-5.5535,-5.614,0.0,-5.4762,-5.4762,0.0,0.0,0.0,0.0,0.0,0.0,0.0,0.0,0.0,0.0,0.0,-5.7086,-5.5237,-5.3639,-5.3625,-5.3195,-5.3723,-5.5749,-5.852,-5.9823,-5.9027,-5.8552,-5.8255,-5.829,-5.9573,-6.0452,-6.0783,-6.3094,-6.4386,-6.4579,-6.5297,-6.5972,-6.6576,-6.6447,-6.6737,-6.7235,-6.8188,-6.8433,-6.8395,-7.0056,-7.111,-7.1769,-7.2324,-7.2897,-7.3531,-7.4535,-7.4358,-7.3637,-1.6624,-1.7248,0.0,0.0,0.0,0.0,0.0,0.0,0.0,0.0,0.0,0.0,-3.4431,-3.5248,-3.6431,-3.862,-4.0732,-4.1129,-3.9171,-3.9543,-3.958,-3.9087,-3.6405,-3.5119,-3.5329,-3.4271,-3.3524,-3.3019,-3.2622,0.0,0.0,0.0,0.0,0.0,-3.6515,0.0,-4.207,0.0,-4.6318,0.0,0.0,0.0,0.0,-5.942,-6.1897,-6.3531,-6.6467,-6.742,-6.7287,-6.7756,-6.7475,-6.6628,-6.5361,-6.4144,-6.3014,-6.224,-6.0761,-5.9425,-5.9598,-5.8621,-5.7538,-5.7403,-5.7291,-5.7036,-5.6499,-5.591,-5.5455,-5.5603,0.0,0.0,0.0,0.0,0.0,0.0,-5.0603,0.0,0.0,0.0,-5.1121,0.0,0.0,0.0,-4.9882,-5.0343,-5.1252,-5.2511,-5.4852,-5.6776,-5.8033,-5.8107,-5.7564,-5.65,-5.8413,-5.9706,-6.036,-6.1835,-6.3194,-6.4372,-6.4498,-6.4964,-6.5911,-6.5541,-6.5758,-6.6391,-6.7412,-6.7868,-6.8141,-6.9522,-7.0437,-7.1061,-7.1819,-7.2886,-7.3981,-7.4563,-7.4305,-7.3751,-1.7245,0.0,0.0,0.0,0.0,0.0,0.0,0.0,0.0,0.0,0.0,0.0,-3.7558,-3.8598,-4.0081,-4.285,-4.5292,-4.5877,-4.4089,-4.4127,-4.4127,-4.3871,-4.0726,-3.909,-3.9395,-3.7863,-3.6597,-3.5768,0.0,0.0,0.0,0.0,0.0,0.0,0.0,-4.1285,-4.415,0.0,-4.8565,-5.2091,-5.4115,-5.6396,-5.8729,-6.0254,-6.2465,-6.4903,-6.6891,-6.7336,-6.7161,-6.8188,-6.7799,-6.6778,-6.6138,-6.4982,-6.3728,-6.3412,-6.2092,-6.0827,-6.0989,-6.0272,-5.9245,-5.8395,-5.8387,-5.8203,-5.7055,-5.6263,-5.5846,-5.5996,-5.4741,0.0,0.0,0.0,-5.1303,-5.0091,0.0,-4.9571,0.0,-4.7768,0.0,0.0,0.0,0.0,0.0,-4.7488,-4.8514,-4.9658,-5.053,-5.2415,-5.5672,-5.6387,-5.6387,-5.5683,-5.748,-5.8941,-6.0184,-6.0936,-6.2096,-6.3733,-6.3801,-6.4478,-6.5601,-6.5228,-6.5443,-6.6074,-6.713,-6.7622,-6.7753,-6.8992,-6.9871,-7.0494,-7.1282,-7.2302,-7.3491,-7.4223,-7.4209,-7.3817,-2.0099,-2.0196,0.0,0.0,0.0,0.0,0.0,0.0,0.0,0.0,0.0,0.0,-4.3136,-4.516,-4.6835,-4.879,-5.1035,-5.2009,-5.134,-4.8433,-4.8065,-5.0947,-4.5794,-4.3539,-4.4939,-4.2812,-4.1286,-4.0486,0.0,0.0,0.0,0.0,0.0,0.0,0.0,-4.3066,-4.4872,-4.8102,-5.1286,-5.4361,-5.6606,-5.965,-6.2838,0.0,-6.3889,-6.5882,-6.6707,-6.7694,-6.8541,-6.8109,-6.8378,-6.8518,-6.6246,-6.5514,-6.5267,-6.4568,-6.3716,-6.2953,-6.2272,-6.1654,-6.0951,-5.9987,-5.9203,-5.8623,-5.8404,-5.692,-5.5587,-5.5662,-5.484,-5.4006,-5.346,-5.2514,-5.1572,-5.0779,-4.9468,0.0,0.0,0.0,0.0,0.0,0.0,0.0,0.0,-4.4541,-4.5091,-4.7182,-4.593,-4.6777,-5.062,-5.1955,-5.3676,-5.5999,-5.6772,-5.7894,-5.9501,-6.0416,-6.1245,-6.2098,-6.3435,-6.4893,-6.638,-6.6211,-6.653,-6.7306,-6.8117,-6.7904,-6.7164,-6.8744,-6.9757,-7.0196,-7.0424,-7.0797,-7.1429,-7.3291,-7.3817,-7.3542,0.0,0.0,0.0,0.0,0.0,0.0,0.0,-2.8578,0.0,0.0,-3.5965,-3.9621,-4.638,-4.8121,-4.9864,-5.2578,-5.366,-5.4298,-5.4553,-5.2635,-5.259,-5.5124,-5.1302,-4.9253,-4.9564,-4.7493,-4.5869,-4.4863,0.0,0.0,0.0,0.0,0.0,0.0,0.0,-4.4542,0.0,0.0,0.0,0.0,0.0,-6.0726,-6.2771,0.0,-6.4743,-6.5685,-6.6602,-6.7446,-6.8068,-6.8334,-6.8496,-6.8489,-6.7655,-6.7029,-6.6393,-6.5911,-6.5035,-6.4166,-6.369,-6.2851,-6.191,-6.122,-6.0324,-5.9452,-5.9031,-5.8374,-5.7586,-5.6668,-5.6269,-5.5605,-5.4095,-5.3274,-5.2329,-5.0677,-5.0241,-4.9141,0.0,0.0,0.0,0.0,0.0,0.0,0.0,0.0,-4.3547,-4.3867,-4.4316,-4.5192,-4.6473,-4.9552,-5.1911,-5.3408,-5.5764,-5.7388,-5.8341,-5.9655,-6.065,-6.136,-6.235,-6.3515,-6.4918,-6.4988,-6.5654,-6.67,-6.6777,-6.7093,-6.7613,-6.832,-6.906,-6.9722,-7.0138,-7.0371,-7.0713,-7.225,-7.2649,-7.2476,-2.637,0.0,0.0,0.0,0.0,0.0,0.0,0.0,0.0,0.0,-4.0275,-4.3891,-5.0118,-5.1488,-5.3051,-5.5635,-5.6292,-5.6812,-5.7608,-5.5752,-5.5812,-5.8519,-5.5296,-5.362,-5.417,-5.205,-5.0247,-4.9007,-4.6564,-4.5503,0.0,0.0,0.0,0.0,0.0,-4.5755,-4.7257,-5.0484,-5.2684,0.0,0.0,-6.1641,0.0,0.0,-6.5299,-6.5816,0.0,-6.7225,-6.8154,-6.8378,-6.8743,-6.908,-6.8769,-6.8275,-6.7738,-6.741,-6.6562,-6.5705,-6.5121,-6.4035,-6.2899,-6.1977,-6.0932,-5.989,-5.9052,-5.8383,-5.7839,-5.711,-5.6435,-5.5662,-5.4795,-5.3838,-5.2587,-5.0674,-5.0368,-4.9141,0.0,-4.3622,-4.2591,-4.2397,0.0,0.0,0.0,-4.2561,-4.2848,-4.2914,-4.3775,-4.4633,0.0,-4.8783,-5.1279,-5.2579,-5.546,-5.7399,-5.8273,-5.9257,-6.0072,-6.0548,-6.1285,-6.2369,-6.3693,-6.4077,-6.4913,-6.6098,-6.6458,-6.6985,-6.7613,-6.832,-6.8919,-6.9337,-6.9602,-6.9624,-6.9722,-7.1097,-7.17,-7.1801,-2.7629,-2.6864,0.0,0.0,-2.8097,0.0,0.0,0.0,-4.0083,0.0,-4.5832,-4.9153,-5.408,-5.5266,-5.6433,-5.8195,-5.8916,-5.9617,-6.0444,-5.7815,-5.7762,-6.1257,-5.7801,-5.6671,-5.8627,-5.6319,-5.4347,-5.2999,-5.0807,0.0,0.0,0.0,0.0,0.0,-4.6038,0.0,-4.739,-5.1582,-5.3647,-5.4539,-5.9116,-6.2354,-6.4443,-6.4823,-6.5545,-6.6423,-6.6011,-6.7115,-6.8822,-6.8275,-6.9118,-7.0222,-6.9532,-6.9347,-6.9209,-6.8945,-6.8213,-6.7251,-6.6282,-6.5222,-6.39,-6.2178,-6.1113,-6.0018,-5.8507,-5.7409,-5.6723,-5.7044,-5.5534,-5.4437,-5.5521,-5.4227,-5.2557,-5.1047,-4.9883,-4.8241,-4.5505,-4.4367,-4.3588,-4.3095,-4.2747,-4.2556,-4.252,-4.2458,-4.2825,-4.4024,-4.3994,-4.4854,0.0,-4.9381,-5.1563,-5.3333,-5.5724,-5.7588,-5.8959,-5.91,-5.9362,-5.9674,-6.0419,-6.1535,-6.2927,-6.3583,-6.4526,-6.5617,-6.7155,-6.7473,-6.7129,-6.8744,-6.9337,-6.9148,-6.8851,-6.8586,-6.857,-7.0129,-7.1041,-7.167,-3.0546,-2.9454,-2.8797,0.0,-3.0369,-3.1756,0.0,0.0,0.0,0.0,-4.7003,-4.9667,-5.5434,-5.6761,-5.8087,-6.016,-6.0152,-6.0567,-6.1911,-6.0228,-6.026,-6.276,-6.0795,-6.0297,-6.1581,-5.8426,-5.7198,-5.8158,-5.353,0.0,-5.2925,0.0,0.0,0.0,0.0,0.0,-4.8877,-5.1475,-5.4524,-5.7872,-5.9935,-6.2037,-6.3993,0.0,-6.5694,-6.7183,-6.6936,-6.7443,-6.8423,-6.8853,-6.9222,-6.9635,-6.998,-6.9785,-6.9222,-6.8603,-6.7876,-6.7014,-6.6323,-6.5377,-6.4352,-6.3197,-6.2146,-6.1099,-6.0008,-5.9729,-5.9301,-5.8375,-5.7879,-5.7186,-5.5885,-5.5246,-5.4278,-5.2263,-4.9813,-4.78,-4.7011,-4.5767,-4.4884,-4.491,-4.5032,-4.4141,-4.1796,-4.2825,-4.2937,-4.1205,-4.3494,0.0,0.0,0.0,-4.8714,-5.034,-5.3344,-5.5308,-5.6265,-5.8141,-5.8584,-5.7751,-6.0419,-6.1465,-6.0981,-6.3275,-6.4463,-6.4778,-6.5757,-6.6458,-6.7129,-6.8597,-6.9468,-6.9917,-6.9687,-6.8995,-6.8369,-6.9889,-7.1304,-7.2395,-3.269,-3.1448,0.0,-3.1777,0.0,0.0,-3.7321,-4.0071,0.0,-4.8611,-4.9554,0.0,-5.6492,-5.7973,-5.9095,-6.0368,-6.0772,-6.1307,-6.2139,-6.1795,-6.2485,-6.4621,-6.256,-6.2115,-6.3674,-6.0662,-5.9258,-5.9741,-5.6354,0.0,-5.3833,0.0,0.0,0.0,0.0,-4.8889,-4.9372,-5.2519,-5.6099,-5.9668,-6.0677,-6.237,0.0,-6.453,-6.5714,-6.7126,-6.7227,-6.7822,-6.867,-6.9038,-6.9623,-7.0325,-7.0739,-7.0347,-6.955,-6.9066,-6.8064,-6.7082,-6.6558,-6.5444,-6.42,-6.3596,-6.2359,-6.1061,-6.0168,-6.0055,-6.0026,-5.9399,-5.8786,-5.8138,-5.7288,-5.6359,-5.4849,-5.2633,-4.9879,-4.7933,-4.7637,-4.6487,-4.57,-4.5785,-4.5607,-4.473,-4.2879,-4.3642,-4.3572,-4.1886,-4.3683,0.0,0.0,0.0,-4.8277,-4.9955,-5.2647,-5.4605,-5.5758,-5.7814,-5.8421,-5.7682,-5.9798,-6.0668,-6.0393,-6.2543,-6.3832,-6.4392,-6.575,-6.6767,-6.7476,-6.8478,-6.9345,-7.0078,-7.0114,-6.9738,-6.9256,-7.0381,-7.1139,-7.1774,-3.4575,-3.3373,0.0,0.0,0.0,0.0,0.0,-4.4263,0.0,-5.1678,0.0,-5.4278,-5.7555,-5.897,-5.987,-6.0225,-6.1379,-6.2061,-6.1954,-6.2754,-6.4102,-6.5958,-6.3447,-6.2994,-6.5017,-6.2596,-6.0803,-5.9706,-5.8733,0.0,0.0,0.0,0.0,0.0,0.0,0.0,0.0,-5.4226,-5.7814,-6.0566,-6.1422,-6.2966,-6.48,-6.505,-6.5904,-6.6964,-6.7223,-6.8152,-6.921,-6.9117,-7.0161,-7.1498,-7.1498,-7.0835,-6.9985,-6.9696,-6.8404,-6.7133,-6.6796,-6.5413,-6.4002,-6.3581,-6.2127,-6.06,-5.9591,-5.9595,-5.9762,-6.0043,-5.9032,-5.8316,-5.9039,-5.7266,-5.499,-5.2851,-5.0566,-4.8852,-4.8363,-4.7373,-4.6684,-4.6591,-4.5924,0.0,-4.5218,-4.4946,-4.449,-4.3975,-4.4285,0.0,0.0,0.0,-4.882,-5.0608,-5.2599,-5.443,-5.6073,-5.7681,-5.8387,-5.8124,-5.9071,-5.9802,-6.0392,-6.1951,-6.3202,-6.4251,-6.6294,-6.7377,-6.7819,-6.8537,-6.9254,-7.0054,-7.0419,-7.0416,-7.0381,-7.1007,-7.0953,-7.0657,-3.6962,0.0,0.0,0.0,0.0,-4.6009,-4.7854,-4.8061,-4.9661,-5.4317,-5.4437,-5.5565,-5.9425,-5.9999,-6.1015,-6.3123,-6.3548,-6.3441,-6.2769,-6.3477,-6.4013,-6.4203,-6.371,-6.4069,-6.5479,-6.2673,-6.159,-6.2334,-5.9082,0.0,0.0,0.0,0.0,0.0,0.0,0.0,-5.3471,-5.5907,0.0,-6.1254,-6.2289,-6.3657,-6.5233,-6.6039,-6.717,-6.8199,-6.7856,-6.828,-6.9082,-6.9653,-7.0609,-7.1498,-7.1331,-7.0683,-6.983,-6.8625,-6.7726,-6.7082,-6.6402,-6.556,-6.4519,-6.3285,-6.2146,-6.1098,-6.0206,-6.0128,-6.0351,-6.052,-6.0027,-5.9544,-5.9206,-5.7343,-5.5638,-5.509,-5.3129,-5.1673,-5.1541,-5.0624,-4.9692,-4.9214,-4.9232,-4.8957,-4.8014,-4.6769,-4.5405,-4.3721,0.0,0.0,0.0,0.0,-4.7352,0.0,-5.0558,-5.2183,0.0,0.0,-5.7149,-5.6745,-5.9599,-6.0613,-6.0063,-6.2398,-6.3517,-6.3797,-6.5715,-6.669,-6.7012,-6.8767,-6.9817,-7.0338,-7.1015,-7.0663,-6.9967,-7.1056,-7.1263,-7.1213,-4.0323,0.0,0.0,0.0,0.0,0.0,0.0,-5.3032,-5.46,-5.6455,-5.5939,-5.6545,-5.9657,-6.0679,-6.145,-6.2252,-6.3158,-6.365,-6.3515,-6.4706,-6.5724,-6.6283,-6.5548,-6.5617,-6.6624,-6.4044,-6.2856,-6.3136,-6.0493,-5.8299,0.0,0.0,0.0,0.0,0.0,-5.3576,0.0,0.0,0.0,-6.2119,-6.3158,-6.4556,-6.6083,-6.6702,-6.742,-6.8036,-6.8417,-6.8554,-6.8705,-6.9575,-7.0496,-7.1198,-7.1028,-7.0156,-6.8997,-6.832,-6.759,-6.693,-6.6541,-6.553,-6.4303,-6.3477,-6.2154,-6.0889,-6.039,-6.0378,-6.0633,-6.0835,-6.049,-5.9871,-5.8897,-5.753,-5.6354,-5.5954,-5.4316,-5.2986,-5.2831,-5.1932,-5.116,-5.0773,-5.0958,-5.0625,-4.9505,-4.8812,-4.7384,0.0,0.0,0.0,0.0,0.0,-4.6405,0.0,0.0,0.0,-5.3567,0.0,-5.7132,-5.7771,-6.0048,-6.1313,-6.1666,-6.2717,-6.3869,-6.5162,-6.5734,-6.656,-6.769,-6.9367,-7.0084,-7.0368,-7.1335,-7.1131,-7.0379,-7.1217,-7.1422,-7.1335,0.0,-4.3768,0.0,0.0,-4.8702,-5.1848,-5.4105,-5.7348,-5.9217,-5.8387,-5.7764,-5.8089,-6.0105,-6.1396,-6.1884,-6.15,-6.2857,-6.3904,-6.4319,-6.5962,-6.7217,-6.7939,-6.7064,-6.6751,-6.7064,-6.5256,-6.3935,-6.3311,-6.1846,-5.9709,0.0,0.0,0.0,0.0,0.0,0.0,0.0,0.0,-6.1745,-6.347,-6.4332,-6.549,-6.6735,-6.7373,-6.7618,-6.7774,-6.8725,-6.8895,-6.8727,-6.9254,-6.997,-7.0619,-7.0362,-6.9425,-6.8268,-6.8014,-6.7455,-6.6812,-6.6677,-6.5346,-6.3869,-6.3581,-6.2028,-6.0633,-6.0463,-6.0548,-6.0802,-6.1086,-6.0817,-6.0077,-5.8986,-5.7974,-5.7096,-5.6604,-5.5195,-5.4061,-5.3813,-5.3075,-5.2404,-5.2017,-5.1872,-5.1412,-5.0297,-5.0067,-4.8951,0.0,0.0,0.0,-4.5277,0.0,0.0,0.0,0.0,-5.1505,-5.3229,0.0,-5.7438,-5.8892,-6.0334,-6.1806,-6.3206,-6.2927,-6.4002,-6.6234,-6.5849,-6.6669,-6.8423,-6.982,-7.023,-7.0271,-7.1576,-7.1609,-7.1045,-7.1484,-7.1523,-7.1422,0.0,0.0,0.0,0.0,0.0,-5.6974,-5.6725,-5.9184,-6.0876,-6.0357,-6.0601,-6.1258,-6.2334,-6.2577,-6.2924,-6.3797,-6.4633,-6.512,-6.519,-6.6651,-6.6965,-6.5677,-6.6676,-6.656,-6.5278,-6.5036,-6.4477,-6.357,-6.251,-6.0695,0.0,0.0,0.0,0.0,0.0,0.0,0.0,-6.1734,-6.3348,-6.5635,-6.623,-6.6505,-6.6876,-6.8211,-6.8538,-6.8316,-6.8789,-6.9242,-6.9502,-6.8719,-6.9079,-6.973,-6.8795,-6.8404,-6.8132,-6.7201,-6.688,-6.6762,-6.6316,-6.5158,-6.3784,-6.3186,-6.1805,-6.0717,-6.0717,-6.0717,-6.0802,-6.1301,-6.1107,-6.0695,-6.0165,-5.9109,-5.8107,-5.7764,-5.6502,-5.5688,-5.5662,-5.5319,-5.4525,-5.3111,-5.2538,-5.1688,-5.0232,-4.9536,-4.8674,0.0,-4.6499,0.0,0.0,0.0,0.0,-4.6747,-4.9412,-5.1675,-5.3341,-5.5758,-5.7456,-5.8502,-6.0202,-6.1739,-6.2997,-6.2997,-6.3867,-6.5468,-6.5833,-6.6858,-6.8221,-6.9739,-7.023,-7.0271,-7.1747,-7.2004,-7.1586,-7.1864,-7.1951,-7.1901,0.0,0.0,0.0,0.0,0.0,0.0,0.0,-6.0492,-6.1693,-6.1349,-6.2113,-6.2944,-6.385,-6.4369,-6.4576,-6.4512,-6.5244,-6.556,-6.4962,-6.6456,-6.7121,-6.6346,-6.7238,-6.7515,-6.685,-6.6478,-6.578,-6.4979,-6.3647,-6.2092,-6.0288,0.0,0.0,0.0,0.0,-6.1705,-6.3432,-6.3296,-6.4419,-6.6176,-6.6211,-6.686,-6.7796,-6.8675,-6.8845,-6.8857,-6.9815,-6.9637,-6.8898,-6.8942,-6.9065,-6.903,-6.8166,-6.7624,-6.7303,-6.6914,-6.6812,-6.6728,-6.6592,-6.5261,-6.3902,-6.3615,-6.2264,-6.0919,-6.0919,-6.0919,-6.1086,-6.1465,-6.1715,-6.1537,-6.0671,-6.0023,-5.9488,-5.8931,-5.804,-5.739,-5.7291,-5.6689,-5.5812,-5.4732,-5.4262,-5.3547,-5.2329,-5.107,-5.0135,0.0,0.0,0.0,0.0,0.0,0.0,-4.6687,0.0,-5.2474,-5.3349,-5.5674,-5.7816,-5.983,-6.0976,-6.2544,-6.4354,-6.3794,-6.4239,-6.5503,-6.6746,-6.7532,-6.8062,-6.9611,-7.0099,-6.9985,-7.137,-7.1688,-7.1457,-7.1722,-7.1898,-7.1883,-5.6439,0.0,-5.6601,0.0,-5.8703,-5.9116,-6.0004,-6.1444,-6.2364,-6.218,-6.3056,-6.3968,-6.4518,-6.5241,-6.531,-6.4387,-6.5255,-6.5676,-6.5083,-6.6159,-6.685,-6.6902,-6.7419,-6.7591,-6.735,-6.7152,-6.6635,-6.5876,-6.4807,-6.3673,-6.2468,0.0,0.0,0.0,-6.2552,-6.3618,-6.482,-6.4674,-6.5335,-6.6494,-6.6446,-6.7112,-6.8336,-6.8913,-6.9045,-6.9127,-7.0377,-6.9803,-6.856,-6.9027,-6.8985,-6.8685,-6.7805,-6.7082,-6.6576,-6.666,-6.6745,-6.666,-6.6728,-6.5564,-6.422,-6.3935,-6.2598,-6.1384,-6.1152,-6.1119,-6.1169,-6.1628,-6.1951,-6.1975,-6.1165,-6.065,-6.0169,-5.9789,-5.883,-5.8287,-5.8592,-5.7673,-5.6761,-5.6018,-5.5314,-5.4398,-5.3179,-5.2482,-5.1672,0.0,0.0,0.0,0.0,0.0,0.0,0.0,0.0,0.0,-5.3661,-5.5881,-5.825,-6.0531,-6.1606,-6.303,-6.4689,-6.4473,-6.4876,-6.568,-6.735,-6.8039,-6.7902,-6.9481,-6.9932,-6.9782,-7.111,-7.141,-7.1063,-7.1118,-7.1246,-7.1234,-5.8624,-5.9037,-5.9583,-5.9583,-6.0198,-6.0677,-6.0711,-6.2009,-6.2966,-6.2966,-6.3615,-6.4093,-6.4127,-6.4776,-6.4718,-6.3439,-6.4675,-6.5611,-6.5876,-6.5757,-6.5911,-6.6666,-6.6701,-6.6323,-6.5568,-6.6523,-6.6635,-6.5876,-6.5876,-6.5462,-6.4594,0.0,-6.3199,-6.3158,-6.3563,-6.4268,-6.5176,-6.5522,-6.6268,-6.7112,-6.7146,-6.7588,-6.8302,-6.9118,-6.9218,-6.9127,-7.0162,-6.9896,-6.9018,-6.8825,-6.8858,-6.8836,-6.7588,-6.6745,-6.6134,-6.6441,-6.6492,-6.6475,-6.6473,-6.5765,-6.4771,-6.3866,-6.2879,-6.198,-6.1285,-6.1119,-6.1169,-6.1628,-6.1709,-6.179,-6.1997,-6.0662,-5.9689,-6.0231,-5.8806,-5.8018,-5.9342,-5.8421,-5.7392,-5.6867,-5.5235,-5.3581,-5.2,-5.3171,0.0,0.0,0.0,0.0,0.0,0.0,0.0,-5.1452,-5.1747,0.0,-5.4532,-5.6747,-5.8599,-6.022,-6.1916,-6.2914,-6.3371,-6.4881,-6.5723,-6.5979,-6.7463,-6.8039,-6.7902,-6.9481,-6.9932,-6.9782,-7.111,-7.1158,-7.0512,-7.0284,-6.9984,-6.9662,-6.0604,-6.1095,-6.179,-6.1907,-6.2112,-6.2036,-6.1449,-6.2566,-6.3519,-6.3396,-6.3928,-6.4403,-6.4241,-6.5323,-6.5835,0.0,-6.6257,-6.6474,0.0,-6.6371,-6.6816,-6.6701,-6.7181,-6.7398,-6.7315,-6.7635,-6.7394,-6.6635,-6.6635,-6.5903,0.0,-6.5035,-6.506,-6.4615,-6.5051,-6.5753,-6.6514,-6.5997,-6.6052,-6.6643,-6.6558,-6.73,-6.8586,-6.8682,-6.9245,-7.0062,-7.0348,-7.0103,-6.9561,-6.9528,-6.9197,-6.8732,-6.8386,-6.7902,-6.7557,-6.7315,-6.7266,-6.7165,-6.6641,-6.5765,-6.4771,-6.3781,-6.2879,-6.198,-6.1285,-6.1169,-6.1383,-6.1837,-6.179,-6.1709,-6.179,-6.1341,-6.1107,-6.1227,-6.0315,-5.9876,-6.0593,-5.9659,-5.8328,-5.7055,-5.6023,-5.4984,-5.3966,-5.402,-5.4127,0.0,0.0,0.0,0.0,0.0,0.0,0.0,-5.4059,0.0,-5.5913,-5.8051,-5.9911,-6.1268,-6.1821,-6.2713,-6.3897,-6.5402,-6.6131,-6.62,-6.7273,-6.7638,-6.7625,-6.8486,-6.9118,-6.9578,-7.0304,-7.0792,-7.1029,-7.1084,-7.0871,-7.0379,-6.2367,-6.2257,-6.2448,-6.2876,-6.2707,-6.2391,-6.211,-6.3125,-6.3937,-6.3856,-6.4025,-6.4228,-6.4416,-6.4945,0.0,-6.5255,-6.6016,-6.6268,-6.5665,-6.6165,-6.6609,-6.6873,-6.7124,-6.7307,-6.7273,-6.7866,0.0,-6.6745,-6.6941,-6.6553,-6.547,-6.588,-6.5834,-6.5425,-6.5739,-6.6132,-6.6656,-6.6287,-6.6373,-6.6738,-6.6705,-6.7611,-6.8954,-6.8831,-6.9444,-7.0448,-7.0389,-7.0143,-6.9798,-6.9798,-6.95,-6.9069,-6.881,-6.8599,-6.8278,-6.7569,-6.7262,-6.7098,-6.6608,-6.5966,-6.5173,-6.4352,-6.3596,-6.2808,-6.208,-6.1567,-6.1483,-6.2125,-6.191,-6.1628,-6.187,-6.1635,-6.1535,-6.1917,-6.1054,-6.0661,-6.1593,-6.0309,-5.901,-5.8361,-5.7264,-5.6325,-5.5877,-5.5554,-5.553,0.0,0.0,0.0,0.0,0.0,-5.2759,-5.4161,-5.5732,-5.6929,-5.7648,-5.9329,-6.068,-6.1654,-6.2233,-6.3128,-6.4196,-6.5585,-6.6233,-6.6348,-6.7168,-6.7428,-6.738,-6.8046,-6.8456,-6.8879,-6.9572,-7.006,-7.0466,-7.0609,-7.0478,-7.014,-6.3869,-6.2698,-6.2011,-6.2781,-6.2278,-6.2044,-6.2781,-6.3717,-6.4386,-6.4386,-6.3944,-6.3856,-6.4532,-6.389,-6.3451,-6.3552,0.0,0.0,-6.6268,-6.5527,-6.5685,-6.7112,-6.6698,-6.637,-6.6092,-6.7422,-6.7501,-6.6382,-6.6923,-6.718,-6.7112,-6.6151,-6.573,-6.5696,-6.573,-6.5764,-6.5797,-6.6508,-6.6963,-6.7133,-6.741,-6.835,-6.9386,-6.9377,-6.9745,-7.044,-7.023,-7.0016,-6.9798,-6.9798,-6.9798,-6.9666,-6.8931,-6.8644,-6.8418,-6.7288,-6.6752,-6.6542,-6.6473,-6.6302,-6.5928,-6.5106,-6.4681,-6.41,-6.3372,-6.2179,-6.1501,-6.2482,-6.2081,-6.1614,-6.2223,-6.1649,-6.1301,-6.2279,-6.1197,-6.0714,-6.2189,-6.0511,-5.943,-6.0367,-5.8724,-5.7499,-5.7648,-5.7465,-5.7163,0.0,0.0,0.0,0.0,0.0,-5.3717,-5.6178,-5.693,-5.803,-5.9655,-6.0628,-6.1278,-6.1741,-6.3237,-6.4029,-6.4254,-6.5447,-6.6174,-6.637,-6.7087,-6.7346,-6.7248,-6.7928,-6.8065,-6.7963,-6.8707,-6.9045,-6.9113,-6.9113,-6.9218,-6.9254,0.0,0.0,-6.2566,-6.3467,-6.3049,-6.2814,-6.3584,-6.4287,-6.4841,-6.4841,-6.4707,-6.4673,-6.4671,-6.3701,-6.3366,-6.4303,-6.5076,-6.5764,-6.6424,-6.6406,-6.6524,-6.6896,-6.701,-6.7073,-6.7121,-6.7454,-6.7488,-6.7236,-6.7195,-6.6874,-6.6296,-6.6456,-6.6237,-6.5696,-6.6305,-6.6542,-6.6542,-6.6745,-6.666,-6.643,-6.7012,-6.7711,-6.8335,-6.8311,-6.9136,-7.0196,-6.955,-6.9589,-6.9798,-6.9798,-6.9798,-6.9666,-6.8904,-6.8467,-6.8028,-6.7122,-6.6879,-6.6646,-6.6095,-6.5908,-6.5701,-6.4706,-6.4022,-6.3338,-6.261,-6.261,-6.2562,-6.185,-6.1867,-6.2049,-6.2131,-6.1782,-6.1669,-6.2268,-6.2076,-6.2019,-6.2368,-6.1076,-6.0179,-6.0511,-5.9631,-5.8686,-5.804,-5.8236,-5.8287,0.0,0.0,-5.706,-5.8039,-5.6808,-5.6701,-5.7976,-5.9009,-6.0251,-6.1799,-6.2747,-6.3444,-6.3882,-6.4796,-6.5237,-6.5352,-6.6219,-6.6625,-6.6709,-6.6912,-6.6896,-6.693,-6.71,-6.7506,-6.7929,-6.8098,-6.8571,-6.9113,-6.9113,-6.8879,-6.8608,-6.4507,-6.3929,-6.38,-6.4653,-6.4152,-6.3918,-6.4653,-6.512,-6.544,-6.5526,-6.531,-6.5194,-6.5194,-6.4187,-6.3902,-6.4753,-6.4858,-6.5329,-6.644,-6.6592,-6.6728,-6.6812,-6.7097,-6.718,-6.7146,-6.7394,-6.7428,-6.7346,-6.7097,-6.6777,-6.637,-6.6609,-6.6609,-6.6203,-6.6643,-6.6812,-6.6812,-6.6728,-6.6675,-6.6631,-6.6979,-6.7397,-6.802,-6.7836,-6.8393,-6.9144,-6.8599,-6.8572,-6.8771,-6.8798,-6.9064,-6.9103,-6.8042,-6.7737,-6.7563,-6.65,-6.6334,-6.6423,-6.5968,-6.5834,-6.5625,-6.4873,-6.4145,-6.3603,-6.3583,-6.3351,-6.3073,-6.2931,-6.2598,-6.2382,-6.236,-6.2072,-6.187,-6.203,-6.2223,-6.2415,-6.237,-6.1436,-6.074,-6.1054,-6.0382,-5.9968,-5.9901,-5.9755,-5.9742,-5.9895,-5.8815,0.0,-5.917,-5.8681,-5.8705,-5.9365,-6.0298,-6.1268,-6.2315,-6.3299,-6.4003,-6.4613,-6.5275,-6.5613,-6.573,-6.6474,-6.6812,-6.6812,-6.6812,-6.6812,-6.6812,-6.6728,-6.6965,-6.7387,-6.7336,-6.7809,-6.8538,-6.8538,-6.859,-6.8642,-6.5425,-6.5005,-6.4914,-6.5559,-6.518,-6.4947,-6.5592,-6.5692,-6.578,-6.6009,-6.5679,-6.5531,-6.5782,-6.4975,-6.459,-6.5039,-6.4404,-6.4656,-6.632,-6.6421,-6.6592,-6.6728,-6.7014,-6.7014,-6.6812,-6.7146,-6.7346,-6.7097,-6.6896,-6.6812,-6.6728,-6.6728,-6.6728,-6.6728,-6.6728,-6.6728,-6.6643,-6.6473,-6.6637,-6.6945,-6.6968,-6.7231,-6.7803,-6.7652,-6.7711,-6.792,-6.7678,-6.7645,-6.7579,-6.7571,-6.8069,-6.844,-6.7115,-6.7107,-6.7239,-6.5979,-6.5703,-6.5913,-6.5747,-6.5736,-6.5636,-6.5189,-6.4563,-6.4222,-6.477,-6.4012,-6.3429,-6.4275,-6.3563,-6.2782,-6.2932,-6.2528,-6.2139,-6.191,-6.2232,-6.2425,-6.2354,-6.1581,-6.1211,-6.1656,-6.1107,-6.1165,-6.1929,-6.1357,-6.1032,-6.1221,-6.0478,-6.003,-5.9977,-5.9934,-6.008,-6.0498,-6.1183,-6.1933,-6.2813,-6.3615,-6.4254,-6.487,-6.5429,-6.5615,-6.5782,-6.6424,-6.6728,-6.6728,-6.6728,-6.6728,-6.6728,-6.6592,-6.6592,-6.6728,-6.6507,-6.6963,-6.764,-6.764,-6.8079,-6.8586,-6.5425,-6.4862,-6.4685,-6.5382,-6.4917,-6.4718,-6.5415,-6.5425,-6.5603,-6.578,-6.5767,-6.5788,-6.6014,-6.5377,-6.5072,-6.5634,-6.5034,-6.4967,-6.5834,-6.6249,-6.6507,-6.6507,-6.6728,-6.6812,-6.6812,-6.6896,-6.6896,-6.6812,-6.6812,-6.6728,-6.6507,-6.6507,-6.6388,-6.6182,-6.6182,-6.6182,-6.6182,-6.6201,-6.6129,-6.6101,-6.6666,-6.6784,-6.6817,-6.7413,-6.7671,-6.7687,-6.7668,-6.7612,-6.7629,-6.7546,-6.8076,-6.8539,-6.7711,-6.7446,-6.7247,-6.6533,-6.5667,-6.4976,-6.5369,-6.5369,-6.5189,-6.5099,-6.4877,-6.4433,-6.3973,-6.426,-6.444,-6.3408,-6.3474,-6.3748,-6.3548,-6.323,-6.2964,-6.2665,-6.281,-6.2737,-6.2064,-6.1896,-6.1795,-6.1581,-6.1682,-6.1816,-6.1997,-6.1548,-6.1187,-6.0998,-6.0247,-6.0078,-6.0718,-6.0595,-6.0772,-6.1428,-6.2032,-6.3333,-6.5474,-6.5607,-6.588,-6.6255,-6.6441,-6.639,-6.6014,-6.644,-6.6388,-6.6182,-6.6473,-6.6507,-6.6507,-6.6507,-6.6507,-6.6507,-6.6302,-6.6249,-6.635,-6.635,-6.6417,-6.6618,-6.5425,-6.5249,-6.5238,-6.5537,-6.5337,-6.5238,-6.557,-6.5514,-6.5514,-6.578,-6.5867,-6.6042,-6.6302,-6.6,-6.5761,-6.5746,-6.548,-6.5413,-6.557,-6.6042,-6.6302,-6.6507,-6.6643,-6.6812,-6.6812,-6.6812,-6.6728,-6.6677,-6.6677,-6.6473,-6.6302,-6.6302,-6.6215,-6.6095,-6.6095,-6.6095,-6.6095,-6.5801,-6.5713,-6.578,-6.5913,-6.5955,-6.5955,-6.632,-6.6395,-6.6428,-6.6434,-6.64,-6.6443,-6.6419,-6.7049,-6.7711,-6.6641,-6.6621,-6.6851,-6.5857,-6.5297,-6.5066,-6.5156,-6.5189,-6.5099,-6.4918,-6.4669,-6.4387,-6.4028,-6.4316,-6.4564,-6.3932,-6.3801,-6.3791,-6.3606,-6.3417,-6.3053,-6.2723,-6.3166,-6.3249,-6.2566,-6.2546,-6.2475,-6.2535,-6.2005,-6.1803,-6.1997,-6.1773,-6.1604,-6.1367,-6.111,-6.1077,-6.1173,-6.1207,-6.1294,-6.1383,-6.2432,-6.3696,-6.532,-6.5547,-6.5955,-6.6507,-6.6302,-6.6302,-6.6302,-6.6302,-6.6215,-6.6095,-6.6215,-6.6215,-6.6162,-6.6162,-6.6042,-6.5867,-6.578,-6.5746,-6.5746,-6.5867,-6.5955,-6.5988,-6.5425,-6.5603,-6.5692,-6.5692,-6.5692,-6.5692,-6.5692,-6.5514,-6.5514,-6.5867,-6.6009,-6.6182,-6.6507,-6.6592,-6.6421,-6.5988,-6.5867,-6.578,-6.5514,-6.5834,-6.6215,-6.6507,-6.6643,-6.6812,-6.6728,-6.6728,-6.6643,-6.6421,-6.6421,-6.6302,-6.6009,-6.6095,-6.6009,-6.5922,-6.6009,-6.6009,-6.5922,-6.557,-6.5481,-6.5625,-6.5204,-6.5147,-6.5336,-6.5525,-6.5535,-6.5453,-6.5624,-6.5492,-6.5359,-6.5336,-6.6055,-6.6684,-6.5673,-6.5947,-6.6315,-6.5302,-6.5148,-6.5246,-6.5099,-6.5008,-6.4918,-6.4702,-6.4393,-6.4268,-6.4268,-6.4328,-6.442,-6.4662,-6.4178,-6.376,-6.385,-6.3693,-6.3353,-6.2835,-6.3417,-6.3663,-6.3087,-6.2964,-6.3082,-6.328,-6.2479,-6.1944,-6.1904,-6.2085,-6.2038,-6.1662,-6.1756,-6.1676,-6.1383,-6.1465,-6.1301,-6.1002,-6.2345,-6.3458,-6.4328,-6.4806,-6.538,-6.6014,-6.5721,-6.5788,-6.6249,-6.6129,-6.6009,-6.5922,-6.6009,-6.5955,-6.578,-6.578,-6.5692,-6.5514,-6.5425,-6.5425,-6.5425,-6.5603,-6.5692,-6.5692,-6.5425,-6.5425,-6.5425,-6.5425,-6.5425,-6.5425,-6.5425,-6.5425,-6.557,-6.6009,-6.6095,-6.6268,-6.6728,-6.6812,-6.6643,-6.6507,-6.6215,-6.6009,-6.578,-6.5922,-6.6215,-6.6507,-6.6643,-6.6728,-6.6507,-6.6507,-6.6388,-6.6095,-6.6095,-6.6009,-6.578,-6.6009,-6.5834,-6.5514,-6.5692,-6.5692,-6.5425,-6.5392,-6.5336,-6.5099,-6.5132,-6.5132,-6.5222,-6.5913,-6.5813,-6.5492,-6.6168,-6.5846,-6.5171,-6.5066,-6.5478,-6.5922,-6.6061,-6.5886,-6.5573,-6.5988,-6.5395,-6.4793,-6.4702,-6.4702,-6.4702,-6.4426,-6.4146,-6.4085,-6.424,-6.43,-6.4393,-6.4669,-6.4453,-6.4328,-6.4604,-6.4387,-6.4034,-6.3621,0.0,0.0,-6.2991,-6.2941,-6.2913,-6.3064,-6.3199,-6.2766,-6.165,-6.2248,-6.2364,-6.1532,-6.1465,-6.1465,-6.1383,-6.0969,-6.0802,-6.0717,-6.1763,-6.261,-6.3425,-6.3663,-6.4029,-6.4552,-6.4867,-6.52,-6.5514,-6.5692,-6.5692,-6.5514,-6.5692,-6.578,-6.578,-6.578,-6.578,-6.578,-6.5514,-6.5425,-6.5425,-6.5425,-6.5425,-6.5425,-6.5425,-6.5425,-6.5425,-6.5425,-6.5425,-6.5425,-6.5425,-6.5425,-6.5514,-6.5867,-6.6009,-6.6182,-6.6592,-6.6592,-6.6507,-6.6302,-6.6042,-6.578,-6.5603,-6.557,-6.5955,-6.6507,-6.6643,-6.6643,-6.6302,-6.6421,-6.6335,-6.5955,-6.5955,-6.578,-6.5514,-6.5603,-6.557,-6.5425,-6.5514,-6.5448,-6.5204,-6.5033,-6.491,-6.4877,-6.4702,-6.4676,-6.4925,-6.5165,-6.5165,-6.5016,-6.5297,-6.5198,-6.4852,-6.4872,-6.5187,-6.5494,-6.5106,-6.5045,-6.5106,-6.489,-6.4752,-6.461,-6.4365,-6.4333,-6.4426,-6.4333,-6.4179,-6.4024,-6.4085,-6.4085,-6.4179,-6.4272,-6.4179,-6.4179,-6.4272,-6.424,-6.4235,-6.3882,0.0,-6.4269,-6.3825,-6.4012,-6.4013,-6.3595,-6.3087,-6.2794,-6.2595,-6.2378,-6.2429,-6.258,-6.2496,-6.2496,-6.2326,-6.164,-6.1126,-6.0919,-6.1183,-6.1645,-6.2577,-6.3126,-6.3809,-6.4627,-6.4627,-6.476,-6.5026,-6.5404,-6.5282,-6.4796,-6.5315,-6.5514,-6.5369,-6.5514,-6.5425,-6.5156,-6.5156,-6.5066,-6.4976,-6.5156,-6.5189,-6.5346,-6.5425,-6.5425,-6.5425,-6.5425,-6.5425,-6.5425,-6.5425,-6.5425,-6.5514,-6.578,-6.5955,-6.6129,-6.6421,-6.6421,-6.6302,-6.6215,-6.5955,-6.5692,-6.5514,-6.5514,-6.578,-6.6302,-6.6473,-6.644,-6.6095,-6.6215,-6.6076,-6.5692,-6.5692,-6.5603,-6.5425,-6.5425,-6.5336,-6.5336,-6.5336,-6.5147,-6.4959,-6.4761,-6.4669,-6.4538,-6.4333,-6.4398,-6.4583,-6.4577,-6.4643,-6.4681,-6.4676,-6.461,-6.461,-6.4659,-6.4817,-6.4877,-6.4504,-6.4626,-6.4714,-6.415,-6.4272,-6.4458,-6.4085,-6.4085,-6.424,-6.424,-6.4085,-6.4024,-6.4024,-6.4024,-6.4024,-6.4024,-6.4024,-6.4024,-6.4024,-6.4085,-6.4179,-6.4024,-6.4272,-6.4426,-6.4333,-6.4505,-6.4548,-6.4219,-6.3561,-6.3188,-6.3417,-6.2859,-6.2727,-6.3153,-6.3186,-6.2979,-6.2837,-6.2169,-6.1764,-6.156,-6.1409,-6.1725,-6.251,-6.2577,-6.3159,-6.4175,-6.4121,-6.4353,-6.496,-6.5282,-6.516,-6.473,-6.5194,-6.5336,-6.5189,-6.5336,-6.5246,-6.4976,-6.5066,-6.5066,-6.4976,-6.5099,-6.5321,-6.5552,-6.5425,-6.5425,-6.5425,-6.5425,-6.5425,-6.5392,-6.5392,-6.5392,-6.5514,-6.578,-6.578,-6.5988,-6.6421,-6.6302,-6.6182,-6.6507,-6.6076,-6.578,-6.578,-6.578,-6.5867,-6.6095,-6.6095,-6.6095,-6.6095,-6.5867,-6.5692,-6.5425,-6.5425,-6.5425,-6.5425,-6.5425,-6.5246,-6.5099,-6.5066,-6.491,-6.472,-6.4676,-6.4583,-6.4328,-6.4309,-6.4276,-6.4235,-6.4309,-6.4467,-6.4681,-6.4681,-6.4491,-6.436,-6.4616,-6.437,-6.4056,-6.4569,-6.4569,-6.428,-6.4056,-6.4024,-6.4024,-6.4024,-6.4024,-6.4024,-6.4024,-6.4024,-6.4024,-6.4024,-6.4024,-6.4024,-6.4024,-6.4024,-6.4024,-6.4024,-6.4024,-6.4024,-6.4024,-6.4024,-6.4085,-6.424,-6.411,-6.4262,-6.4943,-6.4695,-6.4334,-6.3991,-6.3791,-6.3416,-6.2991,-6.2925,-6.2837,-6.2573,-6.2573,-6.2573,-6.2573,-6.2837,-6.3012,-6.3272,-6.1848,-6.1679,-6.2925,-6.3186,-6.4034,-6.5392,-6.5425,-6.5392,-6.5392,-6.5425,-6.5425,-6.5425,-6.5425,-6.5425,-6.5425,-6.5425,-6.5425,-6.5425,-6.5425,-6.5889,-6.6419,-6.5425,-6.5425,-6.5425,-6.5425,-6.5028,-6.4697,-6.4697,-6.4697,-6.4785,-6.5014,-6.548,-6.5867,-6.6215,-6.6042,-6.5955,-6.5955,-6.5692,-6.5514,-6.5514,-6.5514,-6.5603,-6.5867,-6.5867,-6.578,-6.557,-6.5603,-6.5514,-6.5425,-6.5246,-6.5189,-6.5189,-6.4976,-6.4885,-6.4793,-6.4786,-6.4662,-6.4387,-6.4479,-6.4328,-6.4053,-6.4056,-6.3959,-6.3797,-6.3991,-6.3991,-6.3955,-6.4085,-6.4211,-6.4053,-6.4211,-6.4114,-6.4077,-6.4365,-6.4244,-6.415,-6.4179,-6.424,-6.4146,-6.3991,-6.3991,-6.3991,-6.4024,-6.4024,-6.4024,-6.4024,-6.4024,-6.4024,-6.4024,-6.4024,-6.4024,-6.4024,-6.4024,-6.4024,-6.4024,-6.4024,-6.4024,-6.4085,-6.4053,-6.4114,-6.4485,-6.4735,-6.4761,-6.4523,-6.4367,-6.4211,-6.417,-6.3956,-6.3727,-6.3326,-6.2932,-6.2613,-6.2305,-6.2395,-6.2573,-6.3012,-6.2756,-6.3107,-6.3947,-6.3859,-6.4002,-6.4431,-6.4959,-6.4893,-6.4431,-6.5105,-6.5425,-6.5425,-6.5279,-6.5246,-6.5425,-6.5246,-6.5246,-6.5425,-6.5425,-6.5558,-6.579,-6.5425,-6.5425,-6.5425,-6.5425,-6.5061,-6.4796,-6.4796,-6.4796,-6.4884,-6.4939,-6.5337,-6.5692,-6.5955,-6.578,-6.5692,-6.578,-6.5514,-6.5246,-6.5246,-6.5246,-6.5336,-6.5548,-6.5425,-6.5425,-6.5425,-6.5336,-6.5156,-6.4943,-6.4793,-6.4702,-6.461,-6.4426,-6.424,-6.424,-6.4203,-6.4012,-6.3887,-6.3887,-6.3829,-6.3707,-6.3675,-6.3578,-6.3514,-6.377,-6.377,-6.3611,-6.3897,-6.4024,-6.4024,-6.4085,-6.4081,-6.417,-6.4175,-6.3952,-6.357,-6.3724,-6.3724,-6.3724,-6.3476,-6.3576,-6.3802,-6.3707,-6.374,-6.3835,-6.3802,-6.3897,-6.3929,-6.3707,-6.3802,-6.4024,-6.3897,-6.3929,-6.4024,-6.4024,-6.4024,-6.4024,-6.4024,-6.4024,-6.4085,-6.4426,-6.4583,-6.48,-6.4826,-6.4545,-6.4453,-6.4518,-6.4333,-6.4045,-6.3865,-6.3589,-6.3394,-6.3153,-6.3334,-6.3514,-6.3837,-6.4046,-6.42,-6.4189,-6.4012,-6.3965,-6.426,-6.472,-6.4655,-6.426,-6.4869,-6.5156,-6.5156,-6.4976,-6.5099,-6.5246,-6.5099,-6.5189,-6.5246,-6.5336,-6.5501,-6.5709,-6.5336,-6.5425,-6.5425,-6.5425,-6.5359,-6.5326,-6.5326,-6.5326,-6.5326,-6.5326,-6.5359,-6.5514,-6.5692,-6.5514,-6.5514,-6.5692,-6.5369,-6.5099,-6.5099,-6.5099,-6.5099,-6.5099,-6.4885,-6.4885,-6.5336,-6.5099,-6.4826,-6.4207,-6.43,-6.4114,-6.3894,-6.3675,-6.358,-6.358,-6.3292,-6.3227,-6.3256,-6.3196,-6.3228,-6.3228,-6.3228,-6.3164,-6.3132,-6.3453,-6.3581,-6.3644,-6.3835,-6.4024,-6.3991,-6.424,-6.424,-6.4207,-6.402,-6.3473,-6.289,-6.2825,-6.2825,-6.289,-6.2611,-6.3065,-6.3517,-6.3325,-6.3389,-6.3613,-6.3612,-6.3802,-6.3802,-6.3325,-6.3612,-6.3897,-6.3707,-6.3802,-6.4024,-6.4024,-6.4024,-6.4024,-6.4024,-6.4024,-6.4179,-6.461,-6.4518,-6.4518,-6.5008,-6.461,-6.43,-6.4235,-6.4146,-6.4053,-6.4235,-6.4268,-6.4426,-6.4702,-6.4918,-6.5189,-6.5336,-6.5336,-6.4916,-6.4111,-6.3899,-6.4047,-6.4702,-6.4702,-6.4702,-6.4702,-6.4702,-6.4702,-6.4702,-6.4702,-6.4793,-6.5099,-6.5099,-6.5099,-6.5099,-6.5246,-6.5676,-6.5989,-6.5189,-6.5246,-6.5425,-6.5425,-6.4962,-6.4597,-6.4597,-6.4597,-6.4597,-6.4597,-6.5061,-6.5425,-6.5514,-6.5425,-6.5425,-6.5514,-6.5425,-6.5336,-6.5336,-6.5336,-6.5336,-6.5336,-6.5099,-6.4885,-6.461,-6.4518,-6.43,-6.402,-6.4053,-6.3959,-6.3675,-6.3421,-6.3325,-6.3325,-6.326,-6.3228,-6.3228,-6.316,-6.316,-6.326,-6.3192,-6.3033,-6.294,-6.3192,-6.3324,-6.3353,-6.358,-6.3835,-6.4024,-6.4085,-6.4085,-6.3988,-6.3622,-6.3182,-6.2834,-6.2458,-6.2587,-6.2918,-6.2797,-6.3221,-6.3612,-6.3802,-6.3549,-6.3385,-6.3549,-6.3517,-6.3421,-6.3707,-6.3707,-6.3707,-6.3897,-6.3929,-6.4024,-6.4024,-6.4024,-6.4024,-6.4024,-6.4024,-6.4179,-6.461,-6.4518,-6.4426,-6.4793,-6.4365,-6.3952,-6.3551,-6.3915,-6.4072,-6.376,-6.4283,-6.461,-6.4702,-6.4793,-6.4885,-6.5189,-6.4976,-6.4967,-6.5105,-6.4836,-6.4753,-6.4702,-6.4702,-6.461,-6.4426,-6.461,-6.4702,-6.4702,-6.4702,-6.4702,-6.4793,-6.4793,-6.4793,-6.4793,-6.4885,-6.4892,-6.499,-6.5099,-6.5246,-6.5425,-6.5425,-6.5127,-6.4862,-6.4862,-6.4862,-6.4862,-6.4862,-6.5194,-6.5336,-6.5279,-6.5336,-6.5425,-6.5425,-6.5336,-6.5279,-6.5279,-6.5279,-6.5156,-6.5066,-6.4556,-6.4067,-6.3738,-6.3603,-6.3382,-6.3357,-6.3675,-6.358,-6.3002,-6.3002,-6.2905,-6.2839,-6.2773,-6.2805,-6.2675,-6.2735,-6.2703,-6.2675,-6.2735,-6.2738,-6.2614,-6.29,-6.3066,-6.3068,-6.3484,-6.374,-6.3959,-6.3603,-6.3606,-6.3768,-6.3242,-6.2733,-6.2228,-6.2074,-6.2165,-6.2334,-6.228,-6.2807,-6.3421,-6.3421,-6.3162,-6.2964,-6.3357,-6.3357,-6.326,-6.3421,-6.3517,-6.3612,-6.3802,-6.3897,-6.4024,-6.4024,-6.4024,-6.4024,-6.4024,-6.4024,-6.4085,-6.4518,-6.4426,-6.4333,-6.4518,-6.4179,-6.3955,-6.3812,-6.4105,-6.4262,-6.4145,-6.4597,-6.4885,-6.4885,-6.4976,-6.5066,-6.5279,-6.5066,-6.5066,-6.5246,-6.4885,-6.461,-6.4365,-6.424,-6.4146,-6.3959,-6.4146,-6.4146,-6.4146,-6.4333,-6.4426,-6.4518,-6.4518,-6.4518,-6.4485,-6.4702,-6.461,-6.4426,-6.5008,-6.5156,-6.5425,-6.5336,-6.5336,-6.5425,-6.5336,-6.5425,-6.5425,-6.5425,-6.5336,-6.5246,-6.5099,-6.5156,-6.5246,-6.5246,-6.5189,-6.5008,-6.5008,-6.5099,-6.4943,-6.4505,-6.3865,-6.3307,-6.2908,-6.2745,-6.2684,-6.271,-6.3293,-6.3196,-6.2446,-6.271,-6.2612,-6.2446,-6.2315,-6.2247,-6.2079,-6.2247,-6.2148,-6.1979,-6.2247,-6.2414,-6.2383,-6.2612,-6.2808,-6.2873,-6.3293,-6.3612,-6.3738,-6.3185,-6.3095,-6.329,-6.2737,-6.2099,-6.1466,-6.145,-6.1666,-6.1886,-6.1648,-6.2331,-6.3131,-6.2905,-6.271,-6.2612,-6.3002,-6.3163,-6.3098,-6.2905,-6.3293,-6.358,-6.358,-6.3802,-6.3929,-6.4024,-6.3929,-6.3929,-6.4024,-6.4024,-6.4085,-6.424,-6.4333,-6.4333,-6.424,-6.4085,-6.4053,-6.4045,-6.4235,-6.4387,-6.4342,-6.4745,-6.4959,-6.4827,-6.4972,-6.5094,-6.5227,-6.5227,-6.5147,-6.5008,-6.461,-6.424,-6.3991,-6.3673,-6.3578,-6.3707,-6.3707,-6.3707,-6.3707,-6.3897,-6.4179,-6.424,-6.4333,-6.4333,-6.424,-6.4518,-6.4333,-6.3991,-6.4426,-6.4943,-6.5246,-6.4885,-6.5156,-6.5336,-6.5189,-6.5246,-6.5425,-6.5425,-6.5279,-6.5099,-6.5099,-6.4885,-6.4793,-6.4793,-6.4793,-6.4793,-6.4793,-6.5008,-6.4712,-6.3785,-6.4276,-6.3649,-6.1777,-6.2872,-6.3004,-6.2116,-6.3099,-6.3196,-6.2446,-6.271,-6.2612,-6.2414,-6.2116,-6.2116,-6.2347,-6.2179,-6.2079,-6.2016,-6.2315,-6.2252,-6.2126,-6.2383,-6.258,-6.2841,-6.2873,-6.3099,-6.3293,-6.3196,-6.2844,-6.2299,-6.1562,-6.1404,-6.1372,-6.0444,-6.1306,-6.2363,-6.2139,-6.2588,-6.3228,-6.3131,-6.2971,-6.2744,-6.2808,-6.2808,-6.2937,-6.3131,-6.3421,-6.358,-6.358,-6.3612,-6.3707,-6.3929,-6.3802,-6.3707,-6.4024,-6.4024,-6.4085,-6.424,-6.4333,-6.424,-6.4085,-6.4024,-6.3732,-6.3177,-6.4067,-6.4145,-6.2933,-6.3903,-6.4233,-6.3603,-6.357,-6.3868,-6.4531,-6.4531,-6.4652,-6.4793,-6.4702,-6.4518,-6.4207,-6.3622,-6.3594,-6.3929,-6.3929,-6.3929,-6.3991,-6.4146,-6.4146,-6.4085,-6.424,-6.4146,-6.3991,-6.4085,-6.4085,-6.3991,-6.4333,-6.4669,-6.4844,-6.4145,-6.4351,-6.4563,-6.4473,-6.4619,-6.4873,-6.5213,-6.5189,-6.5008,-6.4702,-6.4518,-6.4518,-6.4702,-6.4702,-6.4702,-6.4702,-6.4918,-6.4498,-6.3258,-6.3551,-6.2765,-6.0897,-6.1981,-6.2013,-6.0854,-6.2523,-6.3002,-6.2414,-6.2329,-6.2263,-6.2414,-6.1905,-6.1869,-6.2179,-6.2179,-6.2179,-6.1979,-6.2273,-6.231,-6.2221,-6.2383,-6.2513,-6.258,-6.2808,-6.3002,-6.3164,-6.2748,-6.2556,-6.2428,-6.179,-6.1599,-6.1536,-6.1246,-6.1663,-6.2236,-6.2109,-6.2556,-6.3002,-6.3002,-6.2776,-6.258,-6.2612,-6.271,-6.2808,-6.2905,-6.3068,-6.3164,-6.3293,-6.3516,-6.3578,-6.3738,-6.3802,-6.3897,-6.4024,-6.4024,-6.3991,-6.3959,-6.3509,-6.3444,-6.377,-6.3541,-6.3339,-6.3258,-6.3792,-6.3744,-6.3078,-6.3484,-6.3603,-6.3272,-6.3272,-6.3438,-6.3769,-6.3682,-6.3551,-6.349,-6.2974,-6.316,-6.4146,-6.3667,-6.3606,-6.3802,-6.3802,-6.3802,-6.3802,-6.3991,-6.4085,-6.4024,-6.4085,-6.4085,-6.4024,-6.3802,-6.3802,-6.3707]}]]